<?xml version="1.0" encoding="UTF-8" standalone="no" ?>
<gpx xmlns="http://www.topografix.com/GPX/1/1" xmlns:xsi="http://www.w3.org/2001/XMLSchema-instance" xsi:schemaLocation="http://www.topografix.com/GPX/1/1 http://www.topografix.com/GPX/1/1/gpx.xsd" version="1.1" creator="VisuGPX - https://www.visugpx.com">
  <metadata>
    <name>Ste Victoire / Les Rauques-Hautes 11/02/11</name>
    <desc><![CDATA[Temps couvert, croix de Provence dans la brume et lac Zola à sec !
Bernard
]]></desc>
  </metadata>
  <trk>
    <name><![CDATA[Ste Victoire / Les Rauques-Hautes 11/02/11_1]]></name>
    <trkseg>
      <trkpt lat="43.52359" lon="5.54749">
        <ele>261</ele>
        <time>2011-02-11T08:23:55Z</time>
      </trkpt>
      <trkpt lat="43.52339" lon="5.54775">
        <ele>258</ele>
        <time>2011-02-11T08:25:04Z</time>
      </trkpt>
      <trkpt lat="43.52336" lon="5.54788">
        <ele>258</ele>
        <time>2011-02-11T08:25:15Z</time>
      </trkpt>
      <trkpt lat="43.52329" lon="5.54796">
        <ele>257</ele>
        <time>2011-02-11T08:25:25Z</time>
      </trkpt>
      <trkpt lat="43.52318" lon="5.54798">
        <ele>257</ele>
        <time>2011-02-11T08:25:35Z</time>
      </trkpt>
      <trkpt lat="43.52306" lon="5.54792">
        <ele>257</ele>
        <time>2011-02-11T08:25:45Z</time>
      </trkpt>
      <trkpt lat="43.52298" lon="5.5478">
        <ele>257</ele>
        <time>2011-02-11T08:25:55Z</time>
      </trkpt>
      <trkpt lat="43.52295" lon="5.54766">
        <ele>255</ele>
        <time>2011-02-11T08:26:05Z</time>
      </trkpt>
      <trkpt lat="43.52289" lon="5.5475">
        <ele>254</ele>
        <time>2011-02-11T08:26:15Z</time>
      </trkpt>
      <trkpt lat="43.52281" lon="5.54736">
        <ele>254</ele>
        <time>2011-02-11T08:26:25Z</time>
      </trkpt>
      <trkpt lat="43.52271" lon="5.54722">
        <ele>254</ele>
        <time>2011-02-11T08:26:36Z</time>
      </trkpt>
      <trkpt lat="43.5226" lon="5.54719">
        <ele>254</ele>
        <time>2011-02-11T08:26:46Z</time>
      </trkpt>
      <trkpt lat="43.52247" lon="5.54713">
        <ele>255</ele>
        <time>2011-02-11T08:26:57Z</time>
      </trkpt>
      <trkpt lat="43.52235" lon="5.54706">
        <ele>256</ele>
        <time>2011-02-11T08:27:08Z</time>
      </trkpt>
      <trkpt lat="43.52224" lon="5.547">
        <ele>256</ele>
        <time>2011-02-11T08:27:18Z</time>
      </trkpt>
      <trkpt lat="43.52213" lon="5.54694">
        <ele>256</ele>
        <time>2011-02-11T08:27:29Z</time>
      </trkpt>
      <trkpt lat="43.52199" lon="5.54692">
        <ele>256</ele>
        <time>2011-02-11T08:27:39Z</time>
      </trkpt>
      <trkpt lat="43.52187" lon="5.54688">
        <ele>256</ele>
        <time>2011-02-11T08:27:49Z</time>
      </trkpt>
      <trkpt lat="43.52174" lon="5.54686">
        <ele>256</ele>
        <time>2011-02-11T08:28:00Z</time>
      </trkpt>
      <trkpt lat="43.52163" lon="5.54688">
        <ele>256</ele>
        <time>2011-02-11T08:28:11Z</time>
      </trkpt>
      <trkpt lat="43.52153" lon="5.54685">
        <ele>256</ele>
        <time>2011-02-11T08:28:21Z</time>
      </trkpt>
      <trkpt lat="43.52144" lon="5.54684">
        <ele>255</ele>
        <time>2011-02-11T08:28:32Z</time>
      </trkpt>
      <trkpt lat="43.52133" lon="5.5469">
        <ele>255</ele>
        <time>2011-02-11T08:28:43Z</time>
      </trkpt>
      <trkpt lat="43.5213" lon="5.54704">
        <ele>255</ele>
        <time>2011-02-11T08:28:53Z</time>
      </trkpt>
      <trkpt lat="43.52127" lon="5.5472">
        <ele>255</ele>
        <time>2011-02-11T08:29:04Z</time>
      </trkpt>
      <trkpt lat="43.52126" lon="5.54735">
        <ele>255</ele>
        <time>2011-02-11T08:29:14Z</time>
      </trkpt>
      <trkpt lat="43.52127" lon="5.5475">
        <ele>255</ele>
        <time>2011-02-11T08:29:24Z</time>
      </trkpt>
      <trkpt lat="43.52132" lon="5.54765">
        <ele>255</ele>
        <time>2011-02-11T08:29:34Z</time>
      </trkpt>
      <trkpt lat="43.52137" lon="5.54776">
        <ele>255</ele>
        <time>2011-02-11T08:29:44Z</time>
      </trkpt>
      <trkpt lat="43.52144" lon="5.54788">
        <ele>255</ele>
        <time>2011-02-11T08:29:55Z</time>
      </trkpt>
      <trkpt lat="43.52151" lon="5.54798">
        <ele>255</ele>
        <time>2011-02-11T08:30:05Z</time>
      </trkpt>
      <trkpt lat="43.52158" lon="5.54808">
        <ele>256</ele>
        <time>2011-02-11T08:30:15Z</time>
      </trkpt>
      <trkpt lat="43.52169" lon="5.54812">
        <ele>256</ele>
        <time>2011-02-11T08:30:26Z</time>
      </trkpt>
      <trkpt lat="43.52179" lon="5.54806">
        <ele>257</ele>
        <time>2011-02-11T08:30:37Z</time>
      </trkpt>
      <trkpt lat="43.52178" lon="5.54792">
        <ele>257</ele>
        <time>2011-02-11T08:30:47Z</time>
      </trkpt>
      <trkpt lat="43.52174" lon="5.54778">
        <ele>258</ele>
        <time>2011-02-11T08:30:57Z</time>
      </trkpt>
      <trkpt lat="43.52181" lon="5.5477">
        <ele>258</ele>
        <time>2011-02-11T08:31:07Z</time>
      </trkpt>
      <trkpt lat="43.52193" lon="5.54767">
        <ele>258</ele>
        <time>2011-02-11T08:31:17Z</time>
      </trkpt>
      <trkpt lat="43.52208" lon="5.54763">
        <ele>259</ele>
        <time>2011-02-11T08:31:29Z</time>
      </trkpt>
      <trkpt lat="43.52221" lon="5.54762">
        <ele>260</ele>
        <time>2011-02-11T08:31:39Z</time>
      </trkpt>
      <trkpt lat="43.52234" lon="5.54767">
        <ele>260</ele>
        <time>2011-02-11T08:31:51Z</time>
      </trkpt>
      <trkpt lat="43.52242" lon="5.54776">
        <ele>260</ele>
        <time>2011-02-11T08:32:01Z</time>
      </trkpt>
      <trkpt lat="43.52251" lon="5.54788">
        <ele>260</ele>
        <time>2011-02-11T08:32:13Z</time>
      </trkpt>
      <trkpt lat="43.52258" lon="5.54804">
        <ele>260</ele>
        <time>2011-02-11T08:32:25Z</time>
      </trkpt>
      <trkpt lat="43.52266" lon="5.54821">
        <ele>261</ele>
        <time>2011-02-11T08:32:37Z</time>
      </trkpt>
      <trkpt lat="43.52274" lon="5.54834">
        <ele>262</ele>
        <time>2011-02-11T08:32:48Z</time>
      </trkpt>
      <trkpt lat="43.5228" lon="5.54846">
        <ele>264</ele>
        <time>2011-02-11T08:32:58Z</time>
      </trkpt>
      <trkpt lat="43.52288" lon="5.5486">
        <ele>266</ele>
        <time>2011-02-11T08:33:09Z</time>
      </trkpt>
      <trkpt lat="43.52294" lon="5.5487">
        <ele>268</ele>
        <time>2011-02-11T08:33:19Z</time>
      </trkpt>
      <trkpt lat="43.52303" lon="5.54877">
        <ele>270</ele>
        <time>2011-02-11T08:33:30Z</time>
      </trkpt>
      <trkpt lat="43.52313" lon="5.54882">
        <ele>271</ele>
        <time>2011-02-11T08:33:40Z</time>
      </trkpt>
      <trkpt lat="43.52324" lon="5.54885">
        <ele>272</ele>
        <time>2011-02-11T08:33:51Z</time>
      </trkpt>
      <trkpt lat="43.52334" lon="5.5489">
        <ele>274</ele>
        <time>2011-02-11T08:34:02Z</time>
      </trkpt>
      <trkpt lat="43.52342" lon="5.54902">
        <ele>275</ele>
        <time>2011-02-11T08:34:13Z</time>
      </trkpt>
      <trkpt lat="43.52343" lon="5.5492">
        <ele>277</ele>
        <time>2011-02-11T08:34:25Z</time>
      </trkpt>
      <trkpt lat="43.52346" lon="5.54934">
        <ele>278</ele>
        <time>2011-02-11T08:34:35Z</time>
      </trkpt>
      <trkpt lat="43.52351" lon="5.5495">
        <ele>280</ele>
        <time>2011-02-11T08:34:46Z</time>
      </trkpt>
      <trkpt lat="43.52359" lon="5.54959">
        <ele>281</ele>
        <time>2011-02-11T08:34:56Z</time>
      </trkpt>
      <trkpt lat="43.5237" lon="5.54969">
        <ele>283</ele>
        <time>2011-02-11T08:35:07Z</time>
      </trkpt>
      <trkpt lat="43.52381" lon="5.54976">
        <ele>283</ele>
        <time>2011-02-11T08:35:17Z</time>
      </trkpt>
      <trkpt lat="43.52392" lon="5.54983">
        <ele>285</ele>
        <time>2011-02-11T08:35:28Z</time>
      </trkpt>
      <trkpt lat="43.52401" lon="5.54993">
        <ele>286</ele>
        <time>2011-02-11T08:35:38Z</time>
      </trkpt>
      <trkpt lat="43.52405" lon="5.55005">
        <ele>288</ele>
        <time>2011-02-11T08:35:48Z</time>
      </trkpt>
      <trkpt lat="43.52409" lon="5.55019">
        <ele>290</ele>
        <time>2011-02-11T08:35:59Z</time>
      </trkpt>
      <trkpt lat="43.52413" lon="5.55032">
        <ele>292</ele>
        <time>2011-02-11T08:36:10Z</time>
      </trkpt>
      <trkpt lat="43.52417" lon="5.55046">
        <ele>294</ele>
        <time>2011-02-11T08:36:21Z</time>
      </trkpt>
      <trkpt lat="43.52422" lon="5.55059">
        <ele>294</ele>
        <time>2011-02-11T08:36:31Z</time>
      </trkpt>
      <trkpt lat="43.52428" lon="5.55073">
        <ele>296</ele>
        <time>2011-02-11T08:36:42Z</time>
      </trkpt>
      <trkpt lat="43.52435" lon="5.55082">
        <ele>298</ele>
        <time>2011-02-11T08:36:52Z</time>
      </trkpt>
      <trkpt lat="43.52441" lon="5.55093">
        <ele>299</ele>
        <time>2011-02-11T08:37:02Z</time>
      </trkpt>
      <trkpt lat="43.52446" lon="5.55106">
        <ele>300</ele>
        <time>2011-02-11T08:37:12Z</time>
      </trkpt>
      <trkpt lat="43.52451" lon="5.55119">
        <ele>301</ele>
        <time>2011-02-11T08:37:22Z</time>
      </trkpt>
      <trkpt lat="43.52455" lon="5.55133">
        <ele>302</ele>
        <time>2011-02-11T08:37:33Z</time>
      </trkpt>
      <trkpt lat="43.5246" lon="5.55148">
        <ele>304</ele>
        <time>2011-02-11T08:37:44Z</time>
      </trkpt>
      <trkpt lat="43.52464" lon="5.55165">
        <ele>305</ele>
        <time>2011-02-11T08:37:54Z</time>
      </trkpt>
      <trkpt lat="43.52468" lon="5.5518">
        <ele>307</ele>
        <time>2011-02-11T08:38:05Z</time>
      </trkpt>
      <trkpt lat="43.52473" lon="5.55196">
        <ele>309</ele>
        <time>2011-02-11T08:38:16Z</time>
      </trkpt>
      <trkpt lat="43.52477" lon="5.55211">
        <ele>312</ele>
        <time>2011-02-11T08:38:26Z</time>
      </trkpt>
      <trkpt lat="43.5248" lon="5.55228">
        <ele>313</ele>
        <time>2011-02-11T08:38:37Z</time>
      </trkpt>
      <trkpt lat="43.52486" lon="5.55244">
        <ele>315</ele>
        <time>2011-02-11T08:38:48Z</time>
      </trkpt>
      <trkpt lat="43.52491" lon="5.55257">
        <ele>316</ele>
        <time>2011-02-11T08:38:58Z</time>
      </trkpt>
      <trkpt lat="43.52497" lon="5.55272">
        <ele>317</ele>
        <time>2011-02-11T08:39:08Z</time>
      </trkpt>
      <trkpt lat="43.52501" lon="5.55288">
        <ele>317</ele>
        <time>2011-02-11T08:39:18Z</time>
      </trkpt>
      <trkpt lat="43.52504" lon="5.55303">
        <ele>318</ele>
        <time>2011-02-11T08:39:28Z</time>
      </trkpt>
      <trkpt lat="43.52507" lon="5.55319">
        <ele>318</ele>
        <time>2011-02-11T08:39:38Z</time>
      </trkpt>
      <trkpt lat="43.52511" lon="5.55335">
        <ele>319</ele>
        <time>2011-02-11T08:39:48Z</time>
      </trkpt>
      <trkpt lat="43.52515" lon="5.55351">
        <ele>319</ele>
        <time>2011-02-11T08:39:58Z</time>
      </trkpt>
      <trkpt lat="43.52519" lon="5.55366">
        <ele>320</ele>
        <time>2011-02-11T08:40:08Z</time>
      </trkpt>
      <trkpt lat="43.52523" lon="5.55381">
        <ele>321</ele>
        <time>2011-02-11T08:40:18Z</time>
      </trkpt>
      <trkpt lat="43.52527" lon="5.55397">
        <ele>321</ele>
        <time>2011-02-11T08:40:28Z</time>
      </trkpt>
      <trkpt lat="43.5253" lon="5.55412">
        <ele>322</ele>
        <time>2011-02-11T08:40:38Z</time>
      </trkpt>
      <trkpt lat="43.52534" lon="5.55428">
        <ele>322</ele>
        <time>2011-02-11T08:40:48Z</time>
      </trkpt>
      <trkpt lat="43.52537" lon="5.55442">
        <ele>323</ele>
        <time>2011-02-11T08:40:58Z</time>
      </trkpt>
      <trkpt lat="43.52541" lon="5.55456">
        <ele>324</ele>
        <time>2011-02-11T08:41:14Z</time>
      </trkpt>
      <trkpt lat="43.52542" lon="5.55464">
        <ele>325</ele>
        <time>2011-02-11T08:41:35Z</time>
      </trkpt>
      <trkpt lat="43.52544" lon="5.55462">
        <ele>325</ele>
        <time>2011-02-11T08:41:45Z</time>
      </trkpt>
      <trkpt lat="43.52548" lon="5.55469">
        <ele>325</ele>
        <time>2011-02-11T08:41:55Z</time>
      </trkpt>
      <trkpt lat="43.5255" lon="5.55481">
        <ele>325</ele>
        <time>2011-02-11T08:42:05Z</time>
      </trkpt>
      <trkpt lat="43.52554" lon="5.55494">
        <ele>325</ele>
        <time>2011-02-11T08:42:16Z</time>
      </trkpt>
      <trkpt lat="43.52558" lon="5.55509">
        <ele>325</ele>
        <time>2011-02-11T08:42:26Z</time>
      </trkpt>
      <trkpt lat="43.52562" lon="5.55524">
        <ele>326</ele>
        <time>2011-02-11T08:42:37Z</time>
      </trkpt>
      <trkpt lat="43.52566" lon="5.55539">
        <ele>326</ele>
        <time>2011-02-11T08:42:47Z</time>
      </trkpt>
      <trkpt lat="43.52571" lon="5.55554">
        <ele>327</ele>
        <time>2011-02-11T08:42:58Z</time>
      </trkpt>
      <trkpt lat="43.52577" lon="5.5557">
        <ele>328</ele>
        <time>2011-02-11T08:43:09Z</time>
      </trkpt>
      <trkpt lat="43.52582" lon="5.55584">
        <ele>329</ele>
        <time>2011-02-11T08:43:20Z</time>
      </trkpt>
      <trkpt lat="43.52587" lon="5.55598">
        <ele>330</ele>
        <time>2011-02-11T08:43:31Z</time>
      </trkpt>
      <trkpt lat="43.52591" lon="5.55611">
        <ele>330</ele>
        <time>2011-02-11T08:43:41Z</time>
      </trkpt>
      <trkpt lat="43.52597" lon="5.55624">
        <ele>332</ele>
        <time>2011-02-11T08:43:52Z</time>
      </trkpt>
      <trkpt lat="43.52604" lon="5.55636">
        <ele>333</ele>
        <time>2011-02-11T08:44:02Z</time>
      </trkpt>
      <trkpt lat="43.52612" lon="5.55644">
        <ele>335</ele>
        <time>2011-02-11T08:44:12Z</time>
      </trkpt>
      <trkpt lat="43.52621" lon="5.55652">
        <ele>337</ele>
        <time>2011-02-11T08:44:23Z</time>
      </trkpt>
      <trkpt lat="43.52629" lon="5.55663">
        <ele>338</ele>
        <time>2011-02-11T08:44:33Z</time>
      </trkpt>
      <trkpt lat="43.52635" lon="5.55678">
        <ele>339</ele>
        <time>2011-02-11T08:44:44Z</time>
      </trkpt>
      <trkpt lat="43.52645" lon="5.55685">
        <ele>339</ele>
        <time>2011-02-11T08:44:54Z</time>
      </trkpt>
      <trkpt lat="43.52654" lon="5.55678">
        <ele>339</ele>
        <time>2011-02-11T08:45:04Z</time>
      </trkpt>
      <trkpt lat="43.52661" lon="5.55666">
        <ele>339</ele>
        <time>2011-02-11T08:45:14Z</time>
      </trkpt>
      <trkpt lat="43.52664" lon="5.55651">
        <ele>341</ele>
        <time>2011-02-11T08:45:25Z</time>
      </trkpt>
      <trkpt lat="43.52666" lon="5.55638">
        <ele>342</ele>
        <time>2011-02-11T08:45:35Z</time>
      </trkpt>
      <trkpt lat="43.52669" lon="5.55623">
        <ele>344</ele>
        <time>2011-02-11T08:45:45Z</time>
      </trkpt>
      <trkpt lat="43.52671" lon="5.55607">
        <ele>346</ele>
        <time>2011-02-11T08:45:55Z</time>
      </trkpt>
      <trkpt lat="43.52671" lon="5.55591">
        <ele>348</ele>
        <time>2011-02-11T08:46:05Z</time>
      </trkpt>
      <trkpt lat="43.52672" lon="5.55574">
        <ele>349</ele>
        <time>2011-02-11T08:46:15Z</time>
      </trkpt>
      <trkpt lat="43.52675" lon="5.55559">
        <ele>349</ele>
        <time>2011-02-11T08:46:25Z</time>
      </trkpt>
      <trkpt lat="43.52682" lon="5.55545">
        <ele>349</ele>
        <time>2011-02-11T08:46:36Z</time>
      </trkpt>
      <trkpt lat="43.52692" lon="5.55535">
        <ele>349</ele>
        <time>2011-02-11T08:46:46Z</time>
      </trkpt>
      <trkpt lat="43.52703" lon="5.55529">
        <ele>349</ele>
        <time>2011-02-11T08:46:56Z</time>
      </trkpt>
      <trkpt lat="43.52716" lon="5.55534">
        <ele>349</ele>
        <time>2011-02-11T08:47:07Z</time>
      </trkpt>
      <trkpt lat="43.52721" lon="5.55549">
        <ele>349</ele>
        <time>2011-02-11T08:47:17Z</time>
      </trkpt>
      <trkpt lat="43.52724" lon="5.55565">
        <ele>349</ele>
        <time>2011-02-11T08:47:27Z</time>
      </trkpt>
      <trkpt lat="43.52729" lon="5.5558">
        <ele>349</ele>
        <time>2011-02-11T08:47:37Z</time>
      </trkpt>
      <trkpt lat="43.52731" lon="5.55596">
        <ele>349</ele>
        <time>2011-02-11T08:47:47Z</time>
      </trkpt>
      <trkpt lat="43.52727" lon="5.55612">
        <ele>349</ele>
        <time>2011-02-11T08:47:57Z</time>
      </trkpt>
      <trkpt lat="43.52719" lon="5.55625">
        <ele>349</ele>
        <time>2011-02-11T08:48:07Z</time>
      </trkpt>
      <trkpt lat="43.52711" lon="5.5564">
        <ele>349</ele>
        <time>2011-02-11T08:48:18Z</time>
      </trkpt>
      <trkpt lat="43.52705" lon="5.55653">
        <ele>349</ele>
        <time>2011-02-11T08:48:28Z</time>
      </trkpt>
      <trkpt lat="43.52699" lon="5.55668">
        <ele>349</ele>
        <time>2011-02-11T08:48:38Z</time>
      </trkpt>
      <trkpt lat="43.52698" lon="5.55684">
        <ele>349</ele>
        <time>2011-02-11T08:48:48Z</time>
      </trkpt>
      <trkpt lat="43.52699" lon="5.55699">
        <ele>349</ele>
        <time>2011-02-11T08:48:58Z</time>
      </trkpt>
      <trkpt lat="43.52697" lon="5.55715">
        <ele>349</ele>
        <time>2011-02-11T08:49:09Z</time>
      </trkpt>
      <trkpt lat="43.52695" lon="5.55729">
        <ele>347</ele>
        <time>2011-02-11T08:49:19Z</time>
      </trkpt>
      <trkpt lat="43.52695" lon="5.55744">
        <ele>346</ele>
        <time>2011-02-11T08:49:30Z</time>
      </trkpt>
      <trkpt lat="43.52694" lon="5.55746">
        <ele>344</ele>
        <time>2011-02-11T08:49:43Z</time>
      </trkpt>
      <trkpt lat="43.52693" lon="5.55754">
        <ele>342</ele>
        <time>2011-02-11T08:49:53Z</time>
      </trkpt>
      <trkpt lat="43.52695" lon="5.55756">
        <ele>341</ele>
        <time>2011-02-11T08:50:49Z</time>
      </trkpt>
      <trkpt lat="43.52695" lon="5.55754">
        <ele>339</ele>
        <time>2011-02-11T08:51:11Z</time>
      </trkpt>
      <trkpt lat="43.52696" lon="5.55757">
        <ele>337</ele>
        <time>2011-02-11T08:51:24Z</time>
      </trkpt>
      <trkpt lat="43.52697" lon="5.55774">
        <ele>336</ele>
        <time>2011-02-11T08:51:34Z</time>
      </trkpt>
      <trkpt lat="43.52696" lon="5.55791">
        <ele>335</ele>
        <time>2011-02-11T08:51:44Z</time>
      </trkpt>
      <trkpt lat="43.52697" lon="5.55807">
        <ele>334</ele>
        <time>2011-02-11T08:51:54Z</time>
      </trkpt>
      <trkpt lat="43.52694" lon="5.55822">
        <ele>333</ele>
        <time>2011-02-11T08:52:04Z</time>
      </trkpt>
      <trkpt lat="43.52688" lon="5.55837">
        <ele>331</ele>
        <time>2011-02-11T08:52:15Z</time>
      </trkpt>
      <trkpt lat="43.52683" lon="5.55853">
        <ele>327</ele>
        <time>2011-02-11T08:52:25Z</time>
      </trkpt>
      <trkpt lat="43.52673" lon="5.55864">
        <ele>326</ele>
        <time>2011-02-11T08:52:35Z</time>
      </trkpt>
      <trkpt lat="43.52659" lon="5.55871">
        <ele>324</ele>
        <time>2011-02-11T08:52:46Z</time>
      </trkpt>
      <trkpt lat="43.52647" lon="5.55881">
        <ele>322</ele>
        <time>2011-02-11T08:52:57Z</time>
      </trkpt>
      <trkpt lat="43.52639" lon="5.55896">
        <ele>320</ele>
        <time>2011-02-11T08:53:07Z</time>
      </trkpt>
      <trkpt lat="43.5264" lon="5.55913">
        <ele>319</ele>
        <time>2011-02-11T08:53:17Z</time>
      </trkpt>
      <trkpt lat="43.52644" lon="5.55929">
        <ele>319</ele>
        <time>2011-02-11T08:53:27Z</time>
      </trkpt>
      <trkpt lat="43.5265" lon="5.55946">
        <ele>319</ele>
        <time>2011-02-11T08:53:37Z</time>
      </trkpt>
      <trkpt lat="43.52652" lon="5.55962">
        <ele>319</ele>
        <time>2011-02-11T08:53:47Z</time>
      </trkpt>
      <trkpt lat="43.52645" lon="5.55977">
        <ele>320</ele>
        <time>2011-02-11T08:53:57Z</time>
      </trkpt>
      <trkpt lat="43.52633" lon="5.55983">
        <ele>320</ele>
        <time>2011-02-11T08:54:07Z</time>
      </trkpt>
      <trkpt lat="43.52619" lon="5.55992">
        <ele>320</ele>
        <time>2011-02-11T08:54:18Z</time>
      </trkpt>
      <trkpt lat="43.52612" lon="5.56008">
        <ele>320</ele>
        <time>2011-02-11T08:54:28Z</time>
      </trkpt>
      <trkpt lat="43.52611" lon="5.56026">
        <ele>320</ele>
        <time>2011-02-11T08:54:38Z</time>
      </trkpt>
      <trkpt lat="43.52615" lon="5.56043">
        <ele>320</ele>
        <time>2011-02-11T08:54:48Z</time>
      </trkpt>
      <trkpt lat="43.52623" lon="5.56059">
        <ele>320</ele>
        <time>2011-02-11T08:54:59Z</time>
      </trkpt>
      <trkpt lat="43.5263" lon="5.56073">
        <ele>320</ele>
        <time>2011-02-11T08:55:09Z</time>
      </trkpt>
      <trkpt lat="43.52633" lon="5.56089">
        <ele>322</ele>
        <time>2011-02-11T08:55:19Z</time>
      </trkpt>
      <trkpt lat="43.52634" lon="5.56106">
        <ele>323</ele>
        <time>2011-02-11T08:55:29Z</time>
      </trkpt>
      <trkpt lat="43.52635" lon="5.56122">
        <ele>324</ele>
        <time>2011-02-11T08:55:39Z</time>
      </trkpt>
      <trkpt lat="43.52635" lon="5.56138">
        <ele>324</ele>
        <time>2011-02-11T08:55:49Z</time>
      </trkpt>
      <trkpt lat="43.52634" lon="5.56154">
        <ele>325</ele>
        <time>2011-02-11T08:55:59Z</time>
      </trkpt>
      <trkpt lat="43.52634" lon="5.5617">
        <ele>326</ele>
        <time>2011-02-11T08:56:09Z</time>
      </trkpt>
      <trkpt lat="43.52633" lon="5.56185">
        <ele>327</ele>
        <time>2011-02-11T08:56:19Z</time>
      </trkpt>
      <trkpt lat="43.52633" lon="5.56201">
        <ele>328</ele>
        <time>2011-02-11T08:56:29Z</time>
      </trkpt>
      <trkpt lat="43.52633" lon="5.56216">
        <ele>329</ele>
        <time>2011-02-11T08:56:39Z</time>
      </trkpt>
      <trkpt lat="43.52633" lon="5.56231">
        <ele>330</ele>
        <time>2011-02-11T08:56:49Z</time>
      </trkpt>
      <trkpt lat="43.52633" lon="5.56246">
        <ele>330</ele>
        <time>2011-02-11T08:56:59Z</time>
      </trkpt>
      <trkpt lat="43.52634" lon="5.56262">
        <ele>332</ele>
        <time>2011-02-11T08:57:09Z</time>
      </trkpt>
      <trkpt lat="43.52635" lon="5.56277">
        <ele>333</ele>
        <time>2011-02-11T08:57:19Z</time>
      </trkpt>
      <trkpt lat="43.52636" lon="5.56293">
        <ele>335</ele>
        <time>2011-02-11T08:57:30Z</time>
      </trkpt>
      <trkpt lat="43.52636" lon="5.56309">
        <ele>336</ele>
        <time>2011-02-11T08:57:40Z</time>
      </trkpt>
      <trkpt lat="43.52637" lon="5.56324">
        <ele>337</ele>
        <time>2011-02-11T08:57:50Z</time>
      </trkpt>
      <trkpt lat="43.52639" lon="5.56339">
        <ele>338</ele>
        <time>2011-02-11T08:58:00Z</time>
      </trkpt>
      <trkpt lat="43.52641" lon="5.56354">
        <ele>339</ele>
        <time>2011-02-11T08:58:10Z</time>
      </trkpt>
      <trkpt lat="43.52644" lon="5.56368">
        <ele>340</ele>
        <time>2011-02-11T08:58:20Z</time>
      </trkpt>
      <trkpt lat="43.52647" lon="5.56382">
        <ele>342</ele>
        <time>2011-02-11T08:58:30Z</time>
      </trkpt>
      <trkpt lat="43.52648" lon="5.56397">
        <ele>344</ele>
        <time>2011-02-11T08:58:40Z</time>
      </trkpt>
      <trkpt lat="43.52649" lon="5.56412">
        <ele>345</ele>
        <time>2011-02-11T08:58:50Z</time>
      </trkpt>
      <trkpt lat="43.52642" lon="5.56424">
        <ele>345</ele>
        <time>2011-02-11T08:59:01Z</time>
      </trkpt>
      <trkpt lat="43.52631" lon="5.56425">
        <ele>345</ele>
        <time>2011-02-11T08:59:11Z</time>
      </trkpt>
      <trkpt lat="43.52619" lon="5.56422">
        <ele>345</ele>
        <time>2011-02-11T08:59:21Z</time>
      </trkpt>
      <trkpt lat="43.52608" lon="5.56427">
        <ele>345</ele>
        <time>2011-02-11T08:59:31Z</time>
      </trkpt>
      <trkpt lat="43.52599" lon="5.56436">
        <ele>345</ele>
        <time>2011-02-11T08:59:41Z</time>
      </trkpt>
      <trkpt lat="43.52589" lon="5.56444">
        <ele>345</ele>
        <time>2011-02-11T08:59:51Z</time>
      </trkpt>
      <trkpt lat="43.52581" lon="5.56455">
        <ele>345</ele>
        <time>2011-02-11T09:00:01Z</time>
      </trkpt>
      <trkpt lat="43.52575" lon="5.56469">
        <ele>345</ele>
        <time>2011-02-11T09:00:11Z</time>
      </trkpt>
      <trkpt lat="43.52574" lon="5.56485">
        <ele>345</ele>
        <time>2011-02-11T09:00:21Z</time>
      </trkpt>
      <trkpt lat="43.52573" lon="5.56502">
        <ele>345</ele>
        <time>2011-02-11T09:00:31Z</time>
      </trkpt>
      <trkpt lat="43.52565" lon="5.56515">
        <ele>345</ele>
        <time>2011-02-11T09:00:41Z</time>
      </trkpt>
      <trkpt lat="43.5256" lon="5.56529">
        <ele>345</ele>
        <time>2011-02-11T09:00:51Z</time>
      </trkpt>
      <trkpt lat="43.52559" lon="5.56544">
        <ele>345</ele>
        <time>2011-02-11T09:01:01Z</time>
      </trkpt>
      <trkpt lat="43.52558" lon="5.56561">
        <ele>345</ele>
        <time>2011-02-11T09:01:11Z</time>
      </trkpt>
      <trkpt lat="43.52557" lon="5.56575">
        <ele>345</ele>
        <time>2011-02-11T09:01:21Z</time>
      </trkpt>
      <trkpt lat="43.52557" lon="5.56592">
        <ele>346</ele>
        <time>2011-02-11T09:01:31Z</time>
      </trkpt>
      <trkpt lat="43.52558" lon="5.56609">
        <ele>347</ele>
        <time>2011-02-11T09:01:41Z</time>
      </trkpt>
      <trkpt lat="43.52562" lon="5.56625">
        <ele>348</ele>
        <time>2011-02-11T09:01:51Z</time>
      </trkpt>
      <trkpt lat="43.52568" lon="5.56638">
        <ele>349</ele>
        <time>2011-02-11T09:02:01Z</time>
      </trkpt>
      <trkpt lat="43.52569" lon="5.56637">
        <ele>351</ele>
        <time>2011-02-11T09:02:17Z</time>
      </trkpt>
      <trkpt lat="43.52564" lon="5.56627">
        <ele>351</ele>
        <time>2011-02-11T09:02:27Z</time>
      </trkpt>
      <trkpt lat="43.52566" lon="5.56624">
        <ele>351</ele>
        <time>2011-02-11T09:02:49Z</time>
      </trkpt>
      <trkpt lat="43.52566" lon="5.56626">
        <ele>351</ele>
        <time>2011-02-11T09:03:34Z</time>
      </trkpt>
      <trkpt lat="43.52573" lon="5.56635">
        <ele>351</ele>
        <time>2011-02-11T09:03:45Z</time>
      </trkpt>
      <trkpt lat="43.52576" lon="5.56641">
        <ele>351</ele>
        <time>2011-02-11T09:04:45Z</time>
      </trkpt>
      <trkpt lat="43.52581" lon="5.56642">
        <ele>351</ele>
        <time>2011-02-11T09:05:58Z</time>
      </trkpt>
      <trkpt lat="43.52588" lon="5.56649">
        <ele>351</ele>
        <time>2011-02-11T09:06:09Z</time>
      </trkpt>
      <trkpt lat="43.52593" lon="5.56661">
        <ele>351</ele>
        <time>2011-02-11T09:06:19Z</time>
      </trkpt>
      <trkpt lat="43.52595" lon="5.56676">
        <ele>351</ele>
        <time>2011-02-11T09:06:29Z</time>
      </trkpt>
      <trkpt lat="43.5259" lon="5.56689">
        <ele>351</ele>
        <time>2011-02-11T09:06:40Z</time>
      </trkpt>
      <trkpt lat="43.5259" lon="5.56698">
        <ele>351</ele>
        <time>2011-02-11T09:06:51Z</time>
      </trkpt>
      <trkpt lat="43.52592" lon="5.56702">
        <ele>353</ele>
        <time>2011-02-11T09:07:02Z</time>
      </trkpt>
      <trkpt lat="43.52593" lon="5.56709">
        <ele>355</ele>
        <time>2011-02-11T09:07:12Z</time>
      </trkpt>
      <trkpt lat="43.52592" lon="5.56715">
        <ele>355</ele>
        <time>2011-02-11T09:07:22Z</time>
      </trkpt>
      <trkpt lat="43.52594" lon="5.56723">
        <ele>356</ele>
        <time>2011-02-11T09:07:32Z</time>
      </trkpt>
      <trkpt lat="43.52597" lon="5.56734">
        <ele>357</ele>
        <time>2011-02-11T09:07:42Z</time>
      </trkpt>
      <trkpt lat="43.52599" lon="5.56749">
        <ele>358</ele>
        <time>2011-02-11T09:07:53Z</time>
      </trkpt>
      <trkpt lat="43.52597" lon="5.5676">
        <ele>359</ele>
        <time>2011-02-11T09:08:03Z</time>
      </trkpt>
      <trkpt lat="43.52595" lon="5.56772">
        <ele>359</ele>
        <time>2011-02-11T09:08:13Z</time>
      </trkpt>
      <trkpt lat="43.52594" lon="5.56784">
        <ele>361</ele>
        <time>2011-02-11T09:08:23Z</time>
      </trkpt>
      <trkpt lat="43.52597" lon="5.56793">
        <ele>363</ele>
        <time>2011-02-11T09:08:34Z</time>
      </trkpt>
      <trkpt lat="43.52603" lon="5.56792">
        <ele>366</ele>
        <time>2011-02-11T09:08:45Z</time>
      </trkpt>
      <trkpt lat="43.52609" lon="5.5679">
        <ele>368</ele>
        <time>2011-02-11T09:08:56Z</time>
      </trkpt>
      <trkpt lat="43.52615" lon="5.56783">
        <ele>368</ele>
        <time>2011-02-11T09:09:06Z</time>
      </trkpt>
      <trkpt lat="43.52621" lon="5.56775">
        <ele>370</ele>
        <time>2011-02-11T09:09:16Z</time>
      </trkpt>
      <trkpt lat="43.52628" lon="5.56767">
        <ele>372</ele>
        <time>2011-02-11T09:09:27Z</time>
      </trkpt>
      <trkpt lat="43.52634" lon="5.56762">
        <ele>373</ele>
        <time>2011-02-11T09:09:38Z</time>
      </trkpt>
      <trkpt lat="43.5264" lon="5.56763">
        <ele>375</ele>
        <time>2011-02-11T09:09:48Z</time>
      </trkpt>
      <trkpt lat="43.52647" lon="5.56766">
        <ele>377</ele>
        <time>2011-02-11T09:09:59Z</time>
      </trkpt>
      <trkpt lat="43.52652" lon="5.56774">
        <ele>379</ele>
        <time>2011-02-11T09:10:10Z</time>
      </trkpt>
      <trkpt lat="43.52657" lon="5.5678">
        <ele>382</ele>
        <time>2011-02-11T09:10:21Z</time>
      </trkpt>
      <trkpt lat="43.52659" lon="5.5679">
        <ele>383</ele>
        <time>2011-02-11T09:10:31Z</time>
      </trkpt>
      <trkpt lat="43.52661" lon="5.56797">
        <ele>385</ele>
        <time>2011-02-11T09:10:41Z</time>
      </trkpt>
      <trkpt lat="43.52662" lon="5.56805">
        <ele>388</ele>
        <time>2011-02-11T09:10:51Z</time>
      </trkpt>
      <trkpt lat="43.52656" lon="5.56813">
        <ele>388</ele>
        <time>2011-02-11T09:11:02Z</time>
      </trkpt>
      <trkpt lat="43.52652" lon="5.56824">
        <ele>389</ele>
        <time>2011-02-11T09:11:13Z</time>
      </trkpt>
      <trkpt lat="43.52654" lon="5.56835">
        <ele>390</ele>
        <time>2011-02-11T09:11:24Z</time>
      </trkpt>
      <trkpt lat="43.52662" lon="5.56841">
        <ele>392</ele>
        <time>2011-02-11T09:11:34Z</time>
      </trkpt>
      <trkpt lat="43.52671" lon="5.56844">
        <ele>394</ele>
        <time>2011-02-11T09:11:44Z</time>
      </trkpt>
      <trkpt lat="43.5268" lon="5.56848">
        <ele>395</ele>
        <time>2011-02-11T09:11:54Z</time>
      </trkpt>
      <trkpt lat="43.52688" lon="5.56854">
        <ele>397</ele>
        <time>2011-02-11T09:12:04Z</time>
      </trkpt>
      <trkpt lat="43.52695" lon="5.56863">
        <ele>397</ele>
        <time>2011-02-11T09:12:14Z</time>
      </trkpt>
      <trkpt lat="43.52706" lon="5.56872">
        <ele>398</ele>
        <time>2011-02-11T09:12:24Z</time>
      </trkpt>
      <trkpt lat="43.52717" lon="5.56876">
        <ele>398</ele>
        <time>2011-02-11T09:12:35Z</time>
      </trkpt>
      <trkpt lat="43.52729" lon="5.56877">
        <ele>398</ele>
        <time>2011-02-11T09:12:46Z</time>
      </trkpt>
      <trkpt lat="43.52739" lon="5.56876">
        <ele>399</ele>
        <time>2011-02-11T09:12:56Z</time>
      </trkpt>
      <trkpt lat="43.52747" lon="5.56875">
        <ele>400</ele>
        <time>2011-02-11T09:13:06Z</time>
      </trkpt>
      <trkpt lat="43.52753" lon="5.56866">
        <ele>401</ele>
        <time>2011-02-11T09:13:17Z</time>
      </trkpt>
      <trkpt lat="43.52756" lon="5.56855">
        <ele>402</ele>
        <time>2011-02-11T09:13:27Z</time>
      </trkpt>
      <trkpt lat="43.52763" lon="5.56848">
        <ele>402</ele>
        <time>2011-02-11T09:13:37Z</time>
      </trkpt>
      <trkpt lat="43.5277" lon="5.56853">
        <ele>403</ele>
        <time>2011-02-11T09:13:49Z</time>
      </trkpt>
      <trkpt lat="43.52777" lon="5.56858">
        <ele>406</ele>
        <time>2011-02-11T09:13:59Z</time>
      </trkpt>
      <trkpt lat="43.52785" lon="5.56858">
        <ele>408</ele>
        <time>2011-02-11T09:14:09Z</time>
      </trkpt>
      <trkpt lat="43.52793" lon="5.5686">
        <ele>410</ele>
        <time>2011-02-11T09:14:20Z</time>
      </trkpt>
      <trkpt lat="43.52795" lon="5.5687">
        <ele>411</ele>
        <time>2011-02-11T09:14:30Z</time>
      </trkpt>
      <trkpt lat="43.52799" lon="5.56876">
        <ele>412</ele>
        <time>2011-02-11T09:14:41Z</time>
      </trkpt>
      <trkpt lat="43.52805" lon="5.56882">
        <ele>414</ele>
        <time>2011-02-11T09:14:53Z</time>
      </trkpt>
      <trkpt lat="43.52804" lon="5.56887">
        <ele>415</ele>
        <time>2011-02-11T09:15:04Z</time>
      </trkpt>
      <trkpt lat="43.52811" lon="5.56888">
        <ele>415</ele>
        <time>2011-02-11T09:15:15Z</time>
      </trkpt>
      <trkpt lat="43.52821" lon="5.56891">
        <ele>416</ele>
        <time>2011-02-11T09:15:25Z</time>
      </trkpt>
      <trkpt lat="43.52832" lon="5.56896">
        <ele>417</ele>
        <time>2011-02-11T09:15:36Z</time>
      </trkpt>
      <trkpt lat="43.52841" lon="5.56899">
        <ele>419</ele>
        <time>2011-02-11T09:15:46Z</time>
      </trkpt>
      <trkpt lat="43.52852" lon="5.56896">
        <ele>420</ele>
        <time>2011-02-11T09:15:57Z</time>
      </trkpt>
      <trkpt lat="43.52863" lon="5.56895">
        <ele>421</ele>
        <time>2011-02-11T09:16:09Z</time>
      </trkpt>
      <trkpt lat="43.52871" lon="5.56897">
        <ele>423</ele>
        <time>2011-02-11T09:16:19Z</time>
      </trkpt>
      <trkpt lat="43.52876" lon="5.56904">
        <ele>424</ele>
        <time>2011-02-11T09:16:31Z</time>
      </trkpt>
      <trkpt lat="43.52876" lon="5.56913">
        <ele>424</ele>
        <time>2011-02-11T09:16:43Z</time>
      </trkpt>
      <trkpt lat="43.52879" lon="5.56918">
        <ele>427</ele>
        <time>2011-02-11T09:16:54Z</time>
      </trkpt>
      <trkpt lat="43.52883" lon="5.56924">
        <ele>428</ele>
        <time>2011-02-11T09:17:04Z</time>
      </trkpt>
      <trkpt lat="43.52887" lon="5.56932">
        <ele>430</ele>
        <time>2011-02-11T09:17:16Z</time>
      </trkpt>
      <trkpt lat="43.52889" lon="5.56943">
        <ele>430</ele>
        <time>2011-02-11T09:17:28Z</time>
      </trkpt>
      <trkpt lat="43.52886" lon="5.56948">
        <ele>434</ele>
        <time>2011-02-11T09:18:03Z</time>
      </trkpt>
      <trkpt lat="43.52887" lon="5.56947">
        <ele>434</ele>
        <time>2011-02-11T09:18:19Z</time>
      </trkpt>
      <trkpt lat="43.5289" lon="5.56947">
        <ele>438</ele>
        <time>2011-02-11T09:18:43Z</time>
      </trkpt>
      <trkpt lat="43.52891" lon="5.56946">
        <ele>439</ele>
        <time>2011-02-11T09:18:54Z</time>
      </trkpt>
      <trkpt lat="43.52893" lon="5.56945">
        <ele>439</ele>
        <time>2011-02-11T09:19:08Z</time>
      </trkpt>
      <trkpt lat="43.52893" lon="5.56945">
        <ele>439</ele>
        <time>2011-02-11T09:19:29Z</time>
      </trkpt>
      <trkpt lat="43.52889" lon="5.56944">
        <ele>438</ele>
        <time>2011-02-11T09:19:42Z</time>
      </trkpt>
      <trkpt lat="43.52887" lon="5.56941">
        <ele>438</ele>
        <time>2011-02-11T09:19:57Z</time>
      </trkpt>
      <trkpt lat="43.52888" lon="5.56943">
        <ele>438</ele>
        <time>2011-02-11T09:20:39Z</time>
      </trkpt>
      <trkpt lat="43.52887" lon="5.56945">
        <ele>438</ele>
        <time>2011-02-11T09:20:50Z</time>
      </trkpt>
      <trkpt lat="43.52886" lon="5.56945">
        <ele>438</ele>
        <time>2011-02-11T09:21:03Z</time>
      </trkpt>
      <trkpt lat="43.52887" lon="5.56947">
        <ele>438</ele>
        <time>2011-02-11T09:21:25Z</time>
      </trkpt>
      <trkpt lat="43.52886" lon="5.5695">
        <ele>439</ele>
        <time>2011-02-11T09:21:52Z</time>
      </trkpt>
      <trkpt lat="43.52887" lon="5.5695">
        <ele>440</ele>
        <time>2011-02-11T09:22:27Z</time>
      </trkpt>
      <trkpt lat="43.52888" lon="5.56951">
        <ele>440</ele>
        <time>2011-02-11T09:22:50Z</time>
      </trkpt>
      <trkpt lat="43.52888" lon="5.56948">
        <ele>440</ele>
        <time>2011-02-11T09:23:00Z</time>
      </trkpt>
      <trkpt lat="43.52896" lon="5.56944">
        <ele>440</ele>
        <time>2011-02-11T09:23:11Z</time>
      </trkpt>
      <trkpt lat="43.52907" lon="5.5694">
        <ele>440</ele>
        <time>2011-02-11T09:23:22Z</time>
      </trkpt>
      <trkpt lat="43.52917" lon="5.56934">
        <ele>440</ele>
        <time>2011-02-11T09:23:32Z</time>
      </trkpt>
      <trkpt lat="43.52927" lon="5.56926">
        <ele>439</ele>
        <time>2011-02-11T09:23:43Z</time>
      </trkpt>
      <trkpt lat="43.52923" lon="5.56919">
        <ele>438</ele>
        <time>2011-02-11T09:23:54Z</time>
      </trkpt>
      <trkpt lat="43.52915" lon="5.5692">
        <ele>438</ele>
        <time>2011-02-11T09:24:04Z</time>
      </trkpt>
      <trkpt lat="43.52906" lon="5.56922">
        <ele>436</ele>
        <time>2011-02-11T09:24:14Z</time>
      </trkpt>
      <trkpt lat="43.52897" lon="5.56919">
        <ele>435</ele>
        <time>2011-02-11T09:24:24Z</time>
      </trkpt>
      <trkpt lat="43.52887" lon="5.56914">
        <ele>433</ele>
        <time>2011-02-11T09:24:35Z</time>
      </trkpt>
      <trkpt lat="43.52879" lon="5.56905">
        <ele>431</ele>
        <time>2011-02-11T09:24:45Z</time>
      </trkpt>
      <trkpt lat="43.52876" lon="5.56889">
        <ele>430</ele>
        <time>2011-02-11T09:24:55Z</time>
      </trkpt>
      <trkpt lat="43.52876" lon="5.56873">
        <ele>429</ele>
        <time>2011-02-11T09:25:05Z</time>
      </trkpt>
      <trkpt lat="43.52875" lon="5.56858">
        <ele>429</ele>
        <time>2011-02-11T09:25:15Z</time>
      </trkpt>
      <trkpt lat="43.52876" lon="5.56842">
        <ele>429</ele>
        <time>2011-02-11T09:25:25Z</time>
      </trkpt>
      <trkpt lat="43.52878" lon="5.56826">
        <ele>429</ele>
        <time>2011-02-11T09:25:35Z</time>
      </trkpt>
      <trkpt lat="43.52884" lon="5.5681">
        <ele>428</ele>
        <time>2011-02-11T09:25:46Z</time>
      </trkpt>
      <trkpt lat="43.52889" lon="5.56794">
        <ele>428</ele>
        <time>2011-02-11T09:25:56Z</time>
      </trkpt>
      <trkpt lat="43.5289" lon="5.56777">
        <ele>427</ele>
        <time>2011-02-11T09:26:06Z</time>
      </trkpt>
      <trkpt lat="43.52891" lon="5.5676">
        <ele>427</ele>
        <time>2011-02-11T09:26:16Z</time>
      </trkpt>
      <trkpt lat="43.52889" lon="5.56743">
        <ele>426</ele>
        <time>2011-02-11T09:26:26Z</time>
      </trkpt>
      <trkpt lat="43.52888" lon="5.56727">
        <ele>426</ele>
        <time>2011-02-11T09:26:36Z</time>
      </trkpt>
      <trkpt lat="43.52887" lon="5.56712">
        <ele>426</ele>
        <time>2011-02-11T09:26:46Z</time>
      </trkpt>
      <trkpt lat="43.52886" lon="5.56696">
        <ele>426</ele>
        <time>2011-02-11T09:26:57Z</time>
      </trkpt>
      <trkpt lat="43.52888" lon="5.56681">
        <ele>425</ele>
        <time>2011-02-11T09:27:07Z</time>
      </trkpt>
      <trkpt lat="43.5289" lon="5.56666">
        <ele>422</ele>
        <time>2011-02-11T09:27:17Z</time>
      </trkpt>
      <trkpt lat="43.52894" lon="5.56648">
        <ele>419</ele>
        <time>2011-02-11T09:27:28Z</time>
      </trkpt>
      <trkpt lat="43.52899" lon="5.56633">
        <ele>418</ele>
        <time>2011-02-11T09:27:38Z</time>
      </trkpt>
      <trkpt lat="43.52903" lon="5.56619">
        <ele>418</ele>
        <time>2011-02-11T09:27:48Z</time>
      </trkpt>
      <trkpt lat="43.52908" lon="5.56603">
        <ele>418</ele>
        <time>2011-02-11T09:27:58Z</time>
      </trkpt>
      <trkpt lat="43.52911" lon="5.56586">
        <ele>417</ele>
        <time>2011-02-11T09:28:08Z</time>
      </trkpt>
      <trkpt lat="43.52916" lon="5.56569">
        <ele>416</ele>
        <time>2011-02-11T09:28:18Z</time>
      </trkpt>
      <trkpt lat="43.52918" lon="5.56552">
        <ele>415</ele>
        <time>2011-02-11T09:28:28Z</time>
      </trkpt>
      <trkpt lat="43.52914" lon="5.56534">
        <ele>414</ele>
        <time>2011-02-11T09:28:38Z</time>
      </trkpt>
      <trkpt lat="43.52907" lon="5.56518">
        <ele>413</ele>
        <time>2011-02-11T09:28:48Z</time>
      </trkpt>
      <trkpt lat="43.52899" lon="5.56503">
        <ele>413</ele>
        <time>2011-02-11T09:28:58Z</time>
      </trkpt>
      <trkpt lat="43.52893" lon="5.56487">
        <ele>412</ele>
        <time>2011-02-11T09:29:08Z</time>
      </trkpt>
      <trkpt lat="43.52887" lon="5.5647">
        <ele>412</ele>
        <time>2011-02-11T09:29:18Z</time>
      </trkpt>
      <trkpt lat="43.52885" lon="5.56453">
        <ele>412</ele>
        <time>2011-02-11T09:29:28Z</time>
      </trkpt>
      <trkpt lat="43.52881" lon="5.56437">
        <ele>412</ele>
        <time>2011-02-11T09:29:38Z</time>
      </trkpt>
      <trkpt lat="43.52874" lon="5.56423">
        <ele>412</ele>
        <time>2011-02-11T09:29:48Z</time>
      </trkpt>
      <trkpt lat="43.5287" lon="5.56406">
        <ele>412</ele>
        <time>2011-02-11T09:29:58Z</time>
      </trkpt>
      <trkpt lat="43.52868" lon="5.56389">
        <ele>412</ele>
        <time>2011-02-11T09:30:08Z</time>
      </trkpt>
      <trkpt lat="43.52867" lon="5.56371">
        <ele>412</ele>
        <time>2011-02-11T09:30:18Z</time>
      </trkpt>
      <trkpt lat="43.52865" lon="5.56353">
        <ele>412</ele>
        <time>2011-02-11T09:30:28Z</time>
      </trkpt>
      <trkpt lat="43.52861" lon="5.56336">
        <ele>411</ele>
        <time>2011-02-11T09:30:38Z</time>
      </trkpt>
      <trkpt lat="43.52857" lon="5.56319">
        <ele>410</ele>
        <time>2011-02-11T09:30:48Z</time>
      </trkpt>
      <trkpt lat="43.52857" lon="5.56301">
        <ele>410</ele>
        <time>2011-02-11T09:30:58Z</time>
      </trkpt>
      <trkpt lat="43.5286" lon="5.56285">
        <ele>409</ele>
        <time>2011-02-11T09:31:08Z</time>
      </trkpt>
      <trkpt lat="43.52863" lon="5.5627">
        <ele>408</ele>
        <time>2011-02-11T09:31:18Z</time>
      </trkpt>
      <trkpt lat="43.52861" lon="5.56252">
        <ele>407</ele>
        <time>2011-02-11T09:31:28Z</time>
      </trkpt>
      <trkpt lat="43.52859" lon="5.56234">
        <ele>406</ele>
        <time>2011-02-11T09:31:38Z</time>
      </trkpt>
      <trkpt lat="43.52855" lon="5.56219">
        <ele>406</ele>
        <time>2011-02-11T09:31:48Z</time>
      </trkpt>
      <trkpt lat="43.5285" lon="5.56205">
        <ele>405</ele>
        <time>2011-02-11T09:31:59Z</time>
      </trkpt>
      <trkpt lat="43.52843" lon="5.56194">
        <ele>404</ele>
        <time>2011-02-11T09:32:09Z</time>
      </trkpt>
      <trkpt lat="43.52837" lon="5.56182">
        <ele>402</ele>
        <time>2011-02-11T09:32:19Z</time>
      </trkpt>
      <trkpt lat="43.52832" lon="5.56168">
        <ele>400</ele>
        <time>2011-02-11T09:32:29Z</time>
      </trkpt>
      <trkpt lat="43.52829" lon="5.56153">
        <ele>399</ele>
        <time>2011-02-11T09:32:39Z</time>
      </trkpt>
      <trkpt lat="43.52825" lon="5.56139">
        <ele>397</ele>
        <time>2011-02-11T09:32:49Z</time>
      </trkpt>
      <trkpt lat="43.52821" lon="5.56124">
        <ele>395</ele>
        <time>2011-02-11T09:32:59Z</time>
      </trkpt>
      <trkpt lat="43.52816" lon="5.56109">
        <ele>393</ele>
        <time>2011-02-11T09:33:09Z</time>
      </trkpt>
      <trkpt lat="43.52813" lon="5.56091">
        <ele>391</ele>
        <time>2011-02-11T09:33:19Z</time>
      </trkpt>
      <trkpt lat="43.52812" lon="5.56075">
        <ele>389</ele>
        <time>2011-02-11T09:33:29Z</time>
      </trkpt>
      <trkpt lat="43.52811" lon="5.56059">
        <ele>387</ele>
        <time>2011-02-11T09:33:39Z</time>
      </trkpt>
      <trkpt lat="43.5281" lon="5.56042">
        <ele>385</ele>
        <time>2011-02-11T09:33:49Z</time>
      </trkpt>
      <trkpt lat="43.52808" lon="5.56026">
        <ele>384</ele>
        <time>2011-02-11T09:33:59Z</time>
      </trkpt>
      <trkpt lat="43.52805" lon="5.56011">
        <ele>382</ele>
        <time>2011-02-11T09:34:09Z</time>
      </trkpt>
      <trkpt lat="43.52804" lon="5.55996">
        <ele>381</ele>
        <time>2011-02-11T09:34:19Z</time>
      </trkpt>
      <trkpt lat="43.52802" lon="5.5598">
        <ele>379</ele>
        <time>2011-02-11T09:34:29Z</time>
      </trkpt>
      <trkpt lat="43.52802" lon="5.55965">
        <ele>378</ele>
        <time>2011-02-11T09:34:39Z</time>
      </trkpt>
      <trkpt lat="43.528" lon="5.5595">
        <ele>377</ele>
        <time>2011-02-11T09:34:49Z</time>
      </trkpt>
      <trkpt lat="43.52798" lon="5.55936">
        <ele>376</ele>
        <time>2011-02-11T09:34:59Z</time>
      </trkpt>
      <trkpt lat="43.52797" lon="5.55921">
        <ele>374</ele>
        <time>2011-02-11T09:35:09Z</time>
      </trkpt>
      <trkpt lat="43.52795" lon="5.55905">
        <ele>373</ele>
        <time>2011-02-11T09:35:19Z</time>
      </trkpt>
      <trkpt lat="43.52793" lon="5.55889">
        <ele>371</ele>
        <time>2011-02-11T09:35:30Z</time>
      </trkpt>
      <trkpt lat="43.52792" lon="5.55872">
        <ele>370</ele>
        <time>2011-02-11T09:35:40Z</time>
      </trkpt>
      <trkpt lat="43.52791" lon="5.55857">
        <ele>370</ele>
        <time>2011-02-11T09:35:50Z</time>
      </trkpt>
      <trkpt lat="43.5279" lon="5.5584">
        <ele>369</ele>
        <time>2011-02-11T09:36:01Z</time>
      </trkpt>
      <trkpt lat="43.52788" lon="5.55826">
        <ele>369</ele>
        <time>2011-02-11T09:36:11Z</time>
      </trkpt>
      <trkpt lat="43.52785" lon="5.5581">
        <ele>368</ele>
        <time>2011-02-11T09:36:21Z</time>
      </trkpt>
      <trkpt lat="43.52782" lon="5.55794">
        <ele>367</ele>
        <time>2011-02-11T09:36:31Z</time>
      </trkpt>
      <trkpt lat="43.5278" lon="5.55778">
        <ele>366</ele>
        <time>2011-02-11T09:36:42Z</time>
      </trkpt>
      <trkpt lat="43.52779" lon="5.55762">
        <ele>366</ele>
        <time>2011-02-11T09:36:52Z</time>
      </trkpt>
      <trkpt lat="43.52776" lon="5.55746">
        <ele>366</ele>
        <time>2011-02-11T09:37:02Z</time>
      </trkpt>
      <trkpt lat="43.52773" lon="5.55731">
        <ele>365</ele>
        <time>2011-02-11T09:37:12Z</time>
      </trkpt>
      <trkpt lat="43.52771" lon="5.55716">
        <ele>365</ele>
        <time>2011-02-11T09:37:22Z</time>
      </trkpt>
      <trkpt lat="43.52778" lon="5.55707">
        <ele>364</ele>
        <time>2011-02-11T09:37:32Z</time>
      </trkpt>
      <trkpt lat="43.52787" lon="5.55718">
        <ele>364</ele>
        <time>2011-02-11T09:37:42Z</time>
      </trkpt>
      <trkpt lat="43.52791" lon="5.5573">
        <ele>364</ele>
        <time>2011-02-11T09:38:19Z</time>
      </trkpt>
      <trkpt lat="43.52794" lon="5.55742">
        <ele>363</ele>
        <time>2011-02-11T09:38:31Z</time>
      </trkpt>
      <trkpt lat="43.52795" lon="5.5575">
        <ele>362</ele>
        <time>2011-02-11T09:38:41Z</time>
      </trkpt>
      <trkpt lat="43.52798" lon="5.55765">
        <ele>362</ele>
        <time>2011-02-11T09:38:51Z</time>
      </trkpt>
      <trkpt lat="43.528" lon="5.55781">
        <ele>362</ele>
        <time>2011-02-11T09:39:01Z</time>
      </trkpt>
      <trkpt lat="43.52802" lon="5.55798">
        <ele>361</ele>
        <time>2011-02-11T09:39:11Z</time>
      </trkpt>
      <trkpt lat="43.52805" lon="5.55814">
        <ele>361</ele>
        <time>2011-02-11T09:39:21Z</time>
      </trkpt>
      <trkpt lat="43.52808" lon="5.55831">
        <ele>361</ele>
        <time>2011-02-11T09:39:31Z</time>
      </trkpt>
      <trkpt lat="43.52812" lon="5.55848">
        <ele>361</ele>
        <time>2011-02-11T09:39:41Z</time>
      </trkpt>
      <trkpt lat="43.52817" lon="5.55862">
        <ele>361</ele>
        <time>2011-02-11T09:39:51Z</time>
      </trkpt>
      <trkpt lat="43.52824" lon="5.55878">
        <ele>360</ele>
        <time>2011-02-11T09:40:02Z</time>
      </trkpt>
      <trkpt lat="43.5283" lon="5.55893">
        <ele>355</ele>
        <time>2011-02-11T09:40:13Z</time>
      </trkpt>
      <trkpt lat="43.52837" lon="5.55908">
        <ele>352</ele>
        <time>2011-02-11T09:40:24Z</time>
      </trkpt>
      <trkpt lat="43.52846" lon="5.55922">
        <ele>352</ele>
        <time>2011-02-11T09:40:35Z</time>
      </trkpt>
      <trkpt lat="43.52851" lon="5.55936">
        <ele>352</ele>
        <time>2011-02-11T09:40:45Z</time>
      </trkpt>
      <trkpt lat="43.52857" lon="5.55951">
        <ele>352</ele>
        <time>2011-02-11T09:40:55Z</time>
      </trkpt>
      <trkpt lat="43.52863" lon="5.55966">
        <ele>351</ele>
        <time>2011-02-11T09:41:05Z</time>
      </trkpt>
      <trkpt lat="43.52871" lon="5.55981">
        <ele>351</ele>
        <time>2011-02-11T09:41:16Z</time>
      </trkpt>
      <trkpt lat="43.52875" lon="5.55997">
        <ele>351</ele>
        <time>2011-02-11T09:41:26Z</time>
      </trkpt>
      <trkpt lat="43.52879" lon="5.56012">
        <ele>351</ele>
        <time>2011-02-11T09:41:36Z</time>
      </trkpt>
      <trkpt lat="43.5289" lon="5.56019">
        <ele>351</ele>
        <time>2011-02-11T09:41:47Z</time>
      </trkpt>
      <trkpt lat="43.52902" lon="5.56029">
        <ele>349</ele>
        <time>2011-02-11T09:41:58Z</time>
      </trkpt>
      <trkpt lat="43.52914" lon="5.56038">
        <ele>349</ele>
        <time>2011-02-11T09:42:09Z</time>
      </trkpt>
      <trkpt lat="43.52927" lon="5.5604">
        <ele>349</ele>
        <time>2011-02-11T09:42:19Z</time>
      </trkpt>
      <trkpt lat="43.52937" lon="5.56028">
        <ele>349</ele>
        <time>2011-02-11T09:42:30Z</time>
      </trkpt>
      <trkpt lat="43.52936" lon="5.56012">
        <ele>347</ele>
        <time>2011-02-11T09:42:40Z</time>
      </trkpt>
      <trkpt lat="43.52933" lon="5.55996">
        <ele>346</ele>
        <time>2011-02-11T09:42:50Z</time>
      </trkpt>
      <trkpt lat="43.52928" lon="5.55981">
        <ele>346</ele>
        <time>2011-02-11T09:43:00Z</time>
      </trkpt>
      <trkpt lat="43.52922" lon="5.55965">
        <ele>346</ele>
        <time>2011-02-11T09:43:11Z</time>
      </trkpt>
      <trkpt lat="43.52918" lon="5.55952">
        <ele>346</ele>
        <time>2011-02-11T09:43:21Z</time>
      </trkpt>
      <trkpt lat="43.52912" lon="5.55939">
        <ele>346</ele>
        <time>2011-02-11T09:43:31Z</time>
      </trkpt>
      <trkpt lat="43.52905" lon="5.55925">
        <ele>345</ele>
        <time>2011-02-11T09:43:41Z</time>
      </trkpt>
      <trkpt lat="43.52901" lon="5.5591">
        <ele>344</ele>
        <time>2011-02-11T09:43:51Z</time>
      </trkpt>
      <trkpt lat="43.52901" lon="5.55895">
        <ele>344</ele>
        <time>2011-02-11T09:44:01Z</time>
      </trkpt>
      <trkpt lat="43.529" lon="5.55879">
        <ele>344</ele>
        <time>2011-02-11T09:44:11Z</time>
      </trkpt>
      <trkpt lat="43.52899" lon="5.55864">
        <ele>339</ele>
        <time>2011-02-11T09:44:21Z</time>
      </trkpt>
      <trkpt lat="43.52898" lon="5.55846">
        <ele>336</ele>
        <time>2011-02-11T09:44:31Z</time>
      </trkpt>
      <trkpt lat="43.52895" lon="5.55831">
        <ele>332</ele>
        <time>2011-02-11T09:44:41Z</time>
      </trkpt>
      <trkpt lat="43.52893" lon="5.55816">
        <ele>328</ele>
        <time>2011-02-11T09:44:51Z</time>
      </trkpt>
      <trkpt lat="43.52892" lon="5.55801">
        <ele>326</ele>
        <time>2011-02-11T09:45:01Z</time>
      </trkpt>
      <trkpt lat="43.5289" lon="5.55781">
        <ele>325</ele>
        <time>2011-02-11T09:45:12Z</time>
      </trkpt>
      <trkpt lat="43.52888" lon="5.55764">
        <ele>325</ele>
        <time>2011-02-11T09:45:22Z</time>
      </trkpt>
      <trkpt lat="43.52885" lon="5.55748">
        <ele>325</ele>
        <time>2011-02-11T09:45:32Z</time>
      </trkpt>
      <trkpt lat="43.52884" lon="5.55732">
        <ele>324</ele>
        <time>2011-02-11T09:45:42Z</time>
      </trkpt>
      <trkpt lat="43.52881" lon="5.55716">
        <ele>323</ele>
        <time>2011-02-11T09:45:52Z</time>
      </trkpt>
      <trkpt lat="43.52879" lon="5.55701">
        <ele>322</ele>
        <time>2011-02-11T09:46:02Z</time>
      </trkpt>
      <trkpt lat="43.52876" lon="5.55685">
        <ele>321</ele>
        <time>2011-02-11T09:46:12Z</time>
      </trkpt>
      <trkpt lat="43.52874" lon="5.55669">
        <ele>321</ele>
        <time>2011-02-11T09:46:22Z</time>
      </trkpt>
      <trkpt lat="43.52872" lon="5.55654">
        <ele>318</ele>
        <time>2011-02-11T09:46:32Z</time>
      </trkpt>
      <trkpt lat="43.52872" lon="5.55644">
        <ele>317</ele>
        <time>2011-02-11T09:46:47Z</time>
      </trkpt>
      <trkpt lat="43.52871" lon="5.55639">
        <ele>318</ele>
        <time>2011-02-11T09:47:13Z</time>
      </trkpt>
      <trkpt lat="43.52869" lon="5.5564">
        <ele>319</ele>
        <time>2011-02-11T09:47:27Z</time>
      </trkpt>
      <trkpt lat="43.52867" lon="5.5564">
        <ele>321</ele>
        <time>2011-02-11T09:47:42Z</time>
      </trkpt>
      <trkpt lat="43.52865" lon="5.55635">
        <ele>321</ele>
        <time>2011-02-11T09:47:52Z</time>
      </trkpt>
      <trkpt lat="43.52862" lon="5.55625">
        <ele>321</ele>
        <time>2011-02-11T09:48:04Z</time>
      </trkpt>
      <trkpt lat="43.52859" lon="5.55615">
        <ele>321</ele>
        <time>2011-02-11T09:48:14Z</time>
      </trkpt>
      <trkpt lat="43.52858" lon="5.55603">
        <ele>321</ele>
        <time>2011-02-11T09:48:24Z</time>
      </trkpt>
      <trkpt lat="43.52861" lon="5.55589">
        <ele>319</ele>
        <time>2011-02-11T09:48:34Z</time>
      </trkpt>
      <trkpt lat="43.52863" lon="5.55574">
        <ele>316</ele>
        <time>2011-02-11T09:48:45Z</time>
      </trkpt>
      <trkpt lat="43.52863" lon="5.55558">
        <ele>316</ele>
        <time>2011-02-11T09:48:55Z</time>
      </trkpt>
      <trkpt lat="43.52864" lon="5.55542">
        <ele>315</ele>
        <time>2011-02-11T09:49:05Z</time>
      </trkpt>
      <trkpt lat="43.52867" lon="5.55528">
        <ele>315</ele>
        <time>2011-02-11T09:49:15Z</time>
      </trkpt>
      <trkpt lat="43.52869" lon="5.55512">
        <ele>315</ele>
        <time>2011-02-11T09:49:26Z</time>
      </trkpt>
      <trkpt lat="43.52869" lon="5.55493">
        <ele>315</ele>
        <time>2011-02-11T09:49:36Z</time>
      </trkpt>
      <trkpt lat="43.52869" lon="5.55477">
        <ele>315</ele>
        <time>2011-02-11T09:49:46Z</time>
      </trkpt>
      <trkpt lat="43.52868" lon="5.55462">
        <ele>315</ele>
        <time>2011-02-11T09:49:56Z</time>
      </trkpt>
      <trkpt lat="43.52866" lon="5.55446">
        <ele>315</ele>
        <time>2011-02-11T09:50:06Z</time>
      </trkpt>
      <trkpt lat="43.52864" lon="5.55431">
        <ele>315</ele>
        <time>2011-02-11T09:50:16Z</time>
      </trkpt>
      <trkpt lat="43.52861" lon="5.55416">
        <ele>315</ele>
        <time>2011-02-11T09:50:26Z</time>
      </trkpt>
      <trkpt lat="43.52857" lon="5.554">
        <ele>314</ele>
        <time>2011-02-11T09:50:36Z</time>
      </trkpt>
      <trkpt lat="43.52854" lon="5.55386">
        <ele>313</ele>
        <time>2011-02-11T09:50:46Z</time>
      </trkpt>
      <trkpt lat="43.52851" lon="5.55372">
        <ele>310</ele>
        <time>2011-02-11T09:50:56Z</time>
      </trkpt>
      <trkpt lat="43.52847" lon="5.55355">
        <ele>308</ele>
        <time>2011-02-11T09:51:07Z</time>
      </trkpt>
      <trkpt lat="43.52842" lon="5.55341">
        <ele>305</ele>
        <time>2011-02-11T09:51:17Z</time>
      </trkpt>
      <trkpt lat="43.52834" lon="5.55327">
        <ele>305</ele>
        <time>2011-02-11T09:51:27Z</time>
      </trkpt>
      <trkpt lat="43.52829" lon="5.55313">
        <ele>304</ele>
        <time>2011-02-11T09:51:37Z</time>
      </trkpt>
      <trkpt lat="43.52823" lon="5.55299">
        <ele>304</ele>
        <time>2011-02-11T09:51:47Z</time>
      </trkpt>
      <trkpt lat="43.52817" lon="5.55283">
        <ele>303</ele>
        <time>2011-02-11T09:51:58Z</time>
      </trkpt>
      <trkpt lat="43.52811" lon="5.55268">
        <ele>303</ele>
        <time>2011-02-11T09:52:09Z</time>
      </trkpt>
      <trkpt lat="43.52809" lon="5.55251">
        <ele>301</ele>
        <time>2011-02-11T09:52:20Z</time>
      </trkpt>
      <trkpt lat="43.52807" lon="5.55235">
        <ele>298</ele>
        <time>2011-02-11T09:52:30Z</time>
      </trkpt>
      <trkpt lat="43.52803" lon="5.55218">
        <ele>298</ele>
        <time>2011-02-11T09:52:41Z</time>
      </trkpt>
      <trkpt lat="43.52802" lon="5.55203">
        <ele>296</ele>
        <time>2011-02-11T09:52:51Z</time>
      </trkpt>
      <trkpt lat="43.52799" lon="5.55187">
        <ele>294</ele>
        <time>2011-02-11T09:53:02Z</time>
      </trkpt>
      <trkpt lat="43.52796" lon="5.55175">
        <ele>289</ele>
        <time>2011-02-11T09:53:12Z</time>
      </trkpt>
      <trkpt lat="43.52791" lon="5.55162">
        <ele>286</ele>
        <time>2011-02-11T09:53:22Z</time>
      </trkpt>
      <trkpt lat="43.52789" lon="5.55146">
        <ele>283</ele>
        <time>2011-02-11T09:53:32Z</time>
      </trkpt>
      <trkpt lat="43.52784" lon="5.55131">
        <ele>281</ele>
        <time>2011-02-11T09:53:42Z</time>
      </trkpt>
      <trkpt lat="43.52781" lon="5.55117">
        <ele>277</ele>
        <time>2011-02-11T09:53:52Z</time>
      </trkpt>
      <trkpt lat="43.52776" lon="5.55101">
        <ele>275</ele>
        <time>2011-02-11T09:54:02Z</time>
      </trkpt>
      <trkpt lat="43.52772" lon="5.55085">
        <ele>275</ele>
        <time>2011-02-11T09:54:13Z</time>
      </trkpt>
      <trkpt lat="43.52768" lon="5.55069">
        <ele>275</ele>
        <time>2011-02-11T09:54:24Z</time>
      </trkpt>
      <trkpt lat="43.52766" lon="5.55053">
        <ele>275</ele>
        <time>2011-02-11T09:54:34Z</time>
      </trkpt>
      <trkpt lat="43.52761" lon="5.55037">
        <ele>275</ele>
        <time>2011-02-11T09:54:45Z</time>
      </trkpt>
      <trkpt lat="43.52755" lon="5.55024">
        <ele>275</ele>
        <time>2011-02-11T09:54:56Z</time>
      </trkpt>
      <trkpt lat="43.5275" lon="5.55009">
        <ele>271</ele>
        <time>2011-02-11T09:55:06Z</time>
      </trkpt>
      <trkpt lat="43.52746" lon="5.54993">
        <ele>271</ele>
        <time>2011-02-11T09:55:16Z</time>
      </trkpt>
      <trkpt lat="43.52742" lon="5.54978">
        <ele>271</ele>
        <time>2011-02-11T09:55:26Z</time>
      </trkpt>
      <trkpt lat="43.52736" lon="5.54964">
        <ele>271</ele>
        <time>2011-02-11T09:55:36Z</time>
      </trkpt>
      <trkpt lat="43.52732" lon="5.54949">
        <ele>270</ele>
        <time>2011-02-11T09:55:46Z</time>
      </trkpt>
      <trkpt lat="43.5273" lon="5.54932">
        <ele>268</ele>
        <time>2011-02-11T09:55:57Z</time>
      </trkpt>
      <trkpt lat="43.52729" lon="5.54916">
        <ele>267</ele>
        <time>2011-02-11T09:56:08Z</time>
      </trkpt>
      <trkpt lat="43.52727" lon="5.54902">
        <ele>264</ele>
        <time>2011-02-11T09:56:19Z</time>
      </trkpt>
      <trkpt lat="43.52727" lon="5.54886">
        <ele>261</ele>
        <time>2011-02-11T09:56:30Z</time>
      </trkpt>
      <trkpt lat="43.52728" lon="5.54873">
        <ele>258</ele>
        <time>2011-02-11T09:56:40Z</time>
      </trkpt>
      <trkpt lat="43.52728" lon="5.54857">
        <ele>257</ele>
        <time>2011-02-11T09:56:51Z</time>
      </trkpt>
      <trkpt lat="43.52728" lon="5.54854">
        <ele>257</ele>
        <time>2011-02-11T09:57:04Z</time>
      </trkpt>
      <trkpt lat="43.52728" lon="5.54845">
        <ele>258</ele>
        <time>2011-02-11T09:57:14Z</time>
      </trkpt>
      <trkpt lat="43.5273" lon="5.54834">
        <ele>258</ele>
        <time>2011-02-11T09:57:25Z</time>
      </trkpt>
      <trkpt lat="43.52729" lon="5.54825">
        <ele>258</ele>
        <time>2011-02-11T09:57:35Z</time>
      </trkpt>
      <trkpt lat="43.52728" lon="5.54823">
        <ele>259</ele>
        <time>2011-02-11T09:58:00Z</time>
      </trkpt>
      <trkpt lat="43.52727" lon="5.54822">
        <ele>261</ele>
        <time>2011-02-11T09:58:39Z</time>
      </trkpt>
      <trkpt lat="43.52726" lon="5.54822">
        <ele>261</ele>
        <time>2011-02-11T09:58:51Z</time>
      </trkpt>
      <trkpt lat="43.52728" lon="5.5482">
        <ele>261</ele>
        <time>2011-02-11T09:59:38Z</time>
      </trkpt>
      <trkpt lat="43.52731" lon="5.54817">
        <ele>261</ele>
        <time>2011-02-11T09:59:59Z</time>
      </trkpt>
      <trkpt lat="43.52732" lon="5.54817">
        <ele>261</ele>
        <time>2011-02-11T10:00:16Z</time>
      </trkpt>
      <trkpt lat="43.52735" lon="5.54815">
        <ele>261</ele>
        <time>2011-02-11T10:00:31Z</time>
      </trkpt>
      <trkpt lat="43.52734" lon="5.54813">
        <ele>261</ele>
        <time>2011-02-11T10:00:55Z</time>
      </trkpt>
      <trkpt lat="43.52734" lon="5.54812">
        <ele>262</ele>
        <time>2011-02-11T10:01:06Z</time>
      </trkpt>
      <trkpt lat="43.52736" lon="5.54804">
        <ele>262</ele>
        <time>2011-02-11T10:01:16Z</time>
      </trkpt>
      <trkpt lat="43.52736" lon="5.54791">
        <ele>262</ele>
        <time>2011-02-11T10:01:27Z</time>
      </trkpt>
      <trkpt lat="43.52735" lon="5.54783">
        <ele>262</ele>
        <time>2011-02-11T10:01:40Z</time>
      </trkpt>
      <trkpt lat="43.52734" lon="5.54781">
        <ele>263</ele>
        <time>2011-02-11T10:01:50Z</time>
      </trkpt>
      <trkpt lat="43.52738" lon="5.54779">
        <ele>265</ele>
        <time>2011-02-11T10:02:00Z</time>
      </trkpt>
      <trkpt lat="43.52751" lon="5.54786">
        <ele>265</ele>
        <time>2011-02-11T10:02:10Z</time>
      </trkpt>
      <trkpt lat="43.52763" lon="5.54792">
        <ele>265</ele>
        <time>2011-02-11T10:02:20Z</time>
      </trkpt>
      <trkpt lat="43.52776" lon="5.54796">
        <ele>265</ele>
        <time>2011-02-11T10:02:30Z</time>
      </trkpt>
      <trkpt lat="43.52785" lon="5.54798">
        <ele>265</ele>
        <time>2011-02-11T10:02:40Z</time>
      </trkpt>
      <trkpt lat="43.5279" lon="5.54805">
        <ele>264</ele>
        <time>2011-02-11T10:02:50Z</time>
      </trkpt>
      <trkpt lat="43.528" lon="5.54807">
        <ele>264</ele>
        <time>2011-02-11T10:03:00Z</time>
      </trkpt>
      <trkpt lat="43.52811" lon="5.54816">
        <ele>264</ele>
        <time>2011-02-11T10:03:11Z</time>
      </trkpt>
      <trkpt lat="43.52818" lon="5.54827">
        <ele>264</ele>
        <time>2011-02-11T10:03:21Z</time>
      </trkpt>
      <trkpt lat="43.52818" lon="5.54835">
        <ele>264</ele>
        <time>2011-02-11T10:03:34Z</time>
      </trkpt>
      <trkpt lat="43.52818" lon="5.54841">
        <ele>264</ele>
        <time>2011-02-11T10:03:44Z</time>
      </trkpt>
      <trkpt lat="43.52818" lon="5.54844">
        <ele>264</ele>
        <time>2011-02-11T10:03:59Z</time>
      </trkpt>
      <trkpt lat="43.52819" lon="5.54843">
        <ele>264</ele>
        <time>2011-02-11T10:04:35Z</time>
      </trkpt>
      <trkpt lat="43.5282" lon="5.54842">
        <ele>264</ele>
        <time>2011-02-11T10:04:47Z</time>
      </trkpt>
      <trkpt lat="43.52829" lon="5.54843">
        <ele>264</ele>
        <time>2011-02-11T10:04:57Z</time>
      </trkpt>
      <trkpt lat="43.52837" lon="5.54858">
        <ele>264</ele>
        <time>2011-02-11T10:05:09Z</time>
      </trkpt>
      <trkpt lat="43.52848" lon="5.5487">
        <ele>264</ele>
        <time>2011-02-11T10:05:21Z</time>
      </trkpt>
      <trkpt lat="43.52857" lon="5.54882">
        <ele>264</ele>
        <time>2011-02-11T10:05:31Z</time>
      </trkpt>
      <trkpt lat="43.52868" lon="5.54895">
        <ele>264</ele>
        <time>2011-02-11T10:05:42Z</time>
      </trkpt>
      <trkpt lat="43.5288" lon="5.54905">
        <ele>265</ele>
        <time>2011-02-11T10:05:53Z</time>
      </trkpt>
      <trkpt lat="43.52889" lon="5.54916">
        <ele>266</ele>
        <time>2011-02-11T10:06:03Z</time>
      </trkpt>
      <trkpt lat="43.52899" lon="5.54927">
        <ele>266</ele>
        <time>2011-02-11T10:06:15Z</time>
      </trkpt>
      <trkpt lat="43.52909" lon="5.54936">
        <ele>266</ele>
        <time>2011-02-11T10:06:27Z</time>
      </trkpt>
      <trkpt lat="43.52917" lon="5.54944">
        <ele>266</ele>
        <time>2011-02-11T10:06:38Z</time>
      </trkpt>
      <trkpt lat="43.52926" lon="5.5495">
        <ele>266</ele>
        <time>2011-02-11T10:06:48Z</time>
      </trkpt>
      <trkpt lat="43.52934" lon="5.54962">
        <ele>266</ele>
        <time>2011-02-11T10:06:58Z</time>
      </trkpt>
      <trkpt lat="43.52946" lon="5.5496">
        <ele>266</ele>
        <time>2011-02-11T10:07:09Z</time>
      </trkpt>
      <trkpt lat="43.52957" lon="5.54948">
        <ele>266</ele>
        <time>2011-02-11T10:07:20Z</time>
      </trkpt>
      <trkpt lat="43.52965" lon="5.54946">
        <ele>266</ele>
        <time>2011-02-11T10:07:40Z</time>
      </trkpt>
      <trkpt lat="43.52976" lon="5.54944">
        <ele>266</ele>
        <time>2011-02-11T10:07:50Z</time>
      </trkpt>
      <trkpt lat="43.52985" lon="5.54947">
        <ele>266</ele>
        <time>2011-02-11T10:08:00Z</time>
      </trkpt>
      <trkpt lat="43.52986" lon="5.54947">
        <ele>266</ele>
        <time>2011-02-11T10:08:10Z</time>
      </trkpt>
      <trkpt lat="43.52998" lon="5.54943">
        <ele>266</ele>
        <time>2011-02-11T10:08:20Z</time>
      </trkpt>
      <trkpt lat="43.53008" lon="5.54936">
        <ele>266</ele>
        <time>2011-02-11T10:08:30Z</time>
      </trkpt>
      <trkpt lat="43.53009" lon="5.54937">
        <ele>266</ele>
        <time>2011-02-11T10:08:40Z</time>
      </trkpt>
      <trkpt lat="43.53011" lon="5.54941">
        <ele>266</ele>
        <time>2011-02-11T10:08:59Z</time>
      </trkpt>
      <trkpt lat="43.53009" lon="5.54937">
        <ele>270</ele>
        <time>2011-02-11T10:09:14Z</time>
      </trkpt>
      <trkpt lat="43.53008" lon="5.54928">
        <ele>271</ele>
        <time>2011-02-11T10:09:25Z</time>
      </trkpt>
      <trkpt lat="43.53011" lon="5.5491">
        <ele>271</ele>
        <time>2011-02-11T10:09:35Z</time>
      </trkpt>
      <trkpt lat="43.53016" lon="5.54895">
        <ele>271</ele>
        <time>2011-02-11T10:09:45Z</time>
      </trkpt>
      <trkpt lat="43.53027" lon="5.54884">
        <ele>271</ele>
        <time>2011-02-11T10:09:57Z</time>
      </trkpt>
      <trkpt lat="43.53033" lon="5.54873">
        <ele>271</ele>
        <time>2011-02-11T10:10:07Z</time>
      </trkpt>
      <trkpt lat="43.53041" lon="5.54863">
        <ele>274</ele>
        <time>2011-02-11T10:10:17Z</time>
      </trkpt>
      <trkpt lat="43.5305" lon="5.54854">
        <ele>275</ele>
        <time>2011-02-11T10:10:28Z</time>
      </trkpt>
      <trkpt lat="43.53056" lon="5.54845">
        <ele>275</ele>
        <time>2011-02-11T10:10:38Z</time>
      </trkpt>
      <trkpt lat="43.53062" lon="5.54834">
        <ele>278</ele>
        <time>2011-02-11T10:10:49Z</time>
      </trkpt>
      <trkpt lat="43.53069" lon="5.54826">
        <ele>281</ele>
        <time>2011-02-11T10:10:59Z</time>
      </trkpt>
      <trkpt lat="43.53078" lon="5.54822">
        <ele>282</ele>
        <time>2011-02-11T10:11:09Z</time>
      </trkpt>
      <trkpt lat="43.53088" lon="5.54823">
        <ele>283</ele>
        <time>2011-02-11T10:11:19Z</time>
      </trkpt>
      <trkpt lat="43.53099" lon="5.54821">
        <ele>283</ele>
        <time>2011-02-11T10:11:30Z</time>
      </trkpt>
      <trkpt lat="43.53109" lon="5.54819">
        <ele>283</ele>
        <time>2011-02-11T10:11:41Z</time>
      </trkpt>
      <trkpt lat="43.53116" lon="5.54814">
        <ele>284</ele>
        <time>2011-02-11T10:11:51Z</time>
      </trkpt>
      <trkpt lat="43.53124" lon="5.54811">
        <ele>285</ele>
        <time>2011-02-11T10:12:01Z</time>
      </trkpt>
      <trkpt lat="43.53132" lon="5.54809">
        <ele>286</ele>
        <time>2011-02-11T10:12:11Z</time>
      </trkpt>
      <trkpt lat="43.53139" lon="5.54807">
        <ele>288</ele>
        <time>2011-02-11T10:12:21Z</time>
      </trkpt>
      <trkpt lat="43.53146" lon="5.54804">
        <ele>290</ele>
        <time>2011-02-11T10:12:31Z</time>
      </trkpt>
      <trkpt lat="43.53154" lon="5.548">
        <ele>292</ele>
        <time>2011-02-11T10:12:41Z</time>
      </trkpt>
      <trkpt lat="43.53162" lon="5.54801">
        <ele>294</ele>
        <time>2011-02-11T10:12:51Z</time>
      </trkpt>
      <trkpt lat="43.5317" lon="5.54804">
        <ele>296</ele>
        <time>2011-02-11T10:13:01Z</time>
      </trkpt>
      <trkpt lat="43.53178" lon="5.54805">
        <ele>297</ele>
        <time>2011-02-11T10:13:11Z</time>
      </trkpt>
      <trkpt lat="43.53186" lon="5.54803">
        <ele>298</ele>
        <time>2011-02-11T10:13:21Z</time>
      </trkpt>
      <trkpt lat="43.53194" lon="5.54799">
        <ele>300</ele>
        <time>2011-02-11T10:13:32Z</time>
      </trkpt>
      <trkpt lat="43.53198" lon="5.5479">
        <ele>303</ele>
        <time>2011-02-11T10:13:43Z</time>
      </trkpt>
      <trkpt lat="43.53201" lon="5.54785">
        <ele>305</ele>
        <time>2011-02-11T10:13:55Z</time>
      </trkpt>
      <trkpt lat="43.53205" lon="5.54779">
        <ele>305</ele>
        <time>2011-02-11T10:14:05Z</time>
      </trkpt>
      <trkpt lat="43.53206" lon="5.54777">
        <ele>306</ele>
        <time>2011-02-11T10:14:19Z</time>
      </trkpt>
      <trkpt lat="43.53208" lon="5.54776">
        <ele>306</ele>
        <time>2011-02-11T10:14:39Z</time>
      </trkpt>
      <trkpt lat="43.5321" lon="5.54765">
        <ele>306</ele>
        <time>2011-02-11T10:14:49Z</time>
      </trkpt>
      <trkpt lat="43.53207" lon="5.54751">
        <ele>309</ele>
        <time>2011-02-11T10:14:59Z</time>
      </trkpt>
      <trkpt lat="43.53203" lon="5.54738">
        <ele>312</ele>
        <time>2011-02-11T10:15:09Z</time>
      </trkpt>
      <trkpt lat="43.53199" lon="5.54726">
        <ele>313</ele>
        <time>2011-02-11T10:15:19Z</time>
      </trkpt>
      <trkpt lat="43.53193" lon="5.54714">
        <ele>314</ele>
        <time>2011-02-11T10:15:29Z</time>
      </trkpt>
      <trkpt lat="43.53189" lon="5.54698">
        <ele>315</ele>
        <time>2011-02-11T10:15:40Z</time>
      </trkpt>
      <trkpt lat="43.53188" lon="5.54683">
        <ele>315</ele>
        <time>2011-02-11T10:15:51Z</time>
      </trkpt>
      <trkpt lat="43.53189" lon="5.54669">
        <ele>316</ele>
        <time>2011-02-11T10:16:01Z</time>
      </trkpt>
      <trkpt lat="43.53189" lon="5.54654">
        <ele>318</ele>
        <time>2011-02-11T10:16:11Z</time>
      </trkpt>
      <trkpt lat="43.53188" lon="5.54638">
        <ele>319</ele>
        <time>2011-02-11T10:16:22Z</time>
      </trkpt>
      <trkpt lat="43.53187" lon="5.54624">
        <ele>321</ele>
        <time>2011-02-11T10:16:33Z</time>
      </trkpt>
      <trkpt lat="43.53185" lon="5.54609">
        <ele>323</ele>
        <time>2011-02-11T10:16:44Z</time>
      </trkpt>
      <trkpt lat="43.53183" lon="5.54594">
        <ele>324</ele>
        <time>2011-02-11T10:16:55Z</time>
      </trkpt>
      <trkpt lat="43.53182" lon="5.5458">
        <ele>325</ele>
        <time>2011-02-11T10:17:05Z</time>
      </trkpt>
      <trkpt lat="43.53181" lon="5.54566">
        <ele>326</ele>
        <time>2011-02-11T10:17:15Z</time>
      </trkpt>
      <trkpt lat="43.53181" lon="5.54549">
        <ele>328</ele>
        <time>2011-02-11T10:17:25Z</time>
      </trkpt>
      <trkpt lat="43.5318" lon="5.54533">
        <ele>331</ele>
        <time>2011-02-11T10:17:36Z</time>
      </trkpt>
      <trkpt lat="43.53178" lon="5.54528">
        <ele>332</ele>
        <time>2011-02-11T10:17:46Z</time>
      </trkpt>
      <trkpt lat="43.5318" lon="5.54529">
        <ele>334</ele>
        <time>2011-02-11T10:19:23Z</time>
      </trkpt>
      <trkpt lat="43.53178" lon="5.54529">
        <ele>334</ele>
        <time>2011-02-11T10:20:29Z</time>
      </trkpt>
      <trkpt lat="43.53175" lon="5.54517">
        <ele>334</ele>
        <time>2011-02-11T10:20:40Z</time>
      </trkpt>
      <trkpt lat="43.53173" lon="5.54502">
        <ele>335</ele>
        <time>2011-02-11T10:20:51Z</time>
      </trkpt>
      <trkpt lat="43.53172" lon="5.54489">
        <ele>335</ele>
        <time>2011-02-11T10:21:01Z</time>
      </trkpt>
      <trkpt lat="43.53173" lon="5.54475">
        <ele>336</ele>
        <time>2011-02-11T10:21:11Z</time>
      </trkpt>
      <trkpt lat="43.53175" lon="5.54461">
        <ele>336</ele>
        <time>2011-02-11T10:21:21Z</time>
      </trkpt>
      <trkpt lat="43.53183" lon="5.5445">
        <ele>336</ele>
        <time>2011-02-11T10:21:31Z</time>
      </trkpt>
      <trkpt lat="43.53193" lon="5.54439">
        <ele>336</ele>
        <time>2011-02-11T10:21:41Z</time>
      </trkpt>
      <trkpt lat="43.53202" lon="5.54432">
        <ele>336</ele>
        <time>2011-02-11T10:21:51Z</time>
      </trkpt>
      <trkpt lat="43.5321" lon="5.54426">
        <ele>336</ele>
        <time>2011-02-11T10:22:01Z</time>
      </trkpt>
      <trkpt lat="43.53218" lon="5.54418">
        <ele>336</ele>
        <time>2011-02-11T10:22:11Z</time>
      </trkpt>
      <trkpt lat="43.53225" lon="5.54407">
        <ele>336</ele>
        <time>2011-02-11T10:22:21Z</time>
      </trkpt>
      <trkpt lat="43.53233" lon="5.54397">
        <ele>336</ele>
        <time>2011-02-11T10:22:31Z</time>
      </trkpt>
      <trkpt lat="43.53241" lon="5.54389">
        <ele>337</ele>
        <time>2011-02-11T10:22:41Z</time>
      </trkpt>
      <trkpt lat="43.53249" lon="5.5438">
        <ele>337</ele>
        <time>2011-02-11T10:22:51Z</time>
      </trkpt>
      <trkpt lat="43.53257" lon="5.54371">
        <ele>338</ele>
        <time>2011-02-11T10:23:01Z</time>
      </trkpt>
      <trkpt lat="43.53264" lon="5.54362">
        <ele>339</ele>
        <time>2011-02-11T10:23:11Z</time>
      </trkpt>
      <trkpt lat="43.5327" lon="5.54353">
        <ele>340</ele>
        <time>2011-02-11T10:23:21Z</time>
      </trkpt>
      <trkpt lat="43.53275" lon="5.54341">
        <ele>342</ele>
        <time>2011-02-11T10:23:32Z</time>
      </trkpt>
      <trkpt lat="43.53278" lon="5.54328">
        <ele>342</ele>
        <time>2011-02-11T10:23:42Z</time>
      </trkpt>
      <trkpt lat="43.53284" lon="5.5432">
        <ele>343</ele>
        <time>2011-02-11T10:23:52Z</time>
      </trkpt>
      <trkpt lat="43.53283" lon="5.54308">
        <ele>343</ele>
        <time>2011-02-11T10:24:03Z</time>
      </trkpt>
      <trkpt lat="43.53286" lon="5.54295">
        <ele>344</ele>
        <time>2011-02-11T10:24:14Z</time>
      </trkpt>
      <trkpt lat="43.53289" lon="5.54281">
        <ele>345</ele>
        <time>2011-02-11T10:24:24Z</time>
      </trkpt>
      <trkpt lat="43.53293" lon="5.5427">
        <ele>346</ele>
        <time>2011-02-11T10:24:34Z</time>
      </trkpt>
      <trkpt lat="43.53298" lon="5.5426">
        <ele>348</ele>
        <time>2011-02-11T10:24:44Z</time>
      </trkpt>
      <trkpt lat="43.53305" lon="5.54251">
        <ele>350</ele>
        <time>2011-02-11T10:24:54Z</time>
      </trkpt>
      <trkpt lat="43.53307" lon="5.54241">
        <ele>351</ele>
        <time>2011-02-11T10:25:04Z</time>
      </trkpt>
      <trkpt lat="43.53313" lon="5.54227">
        <ele>352</ele>
        <time>2011-02-11T10:25:14Z</time>
      </trkpt>
      <trkpt lat="43.53319" lon="5.54217">
        <ele>352</ele>
        <time>2011-02-11T10:25:24Z</time>
      </trkpt>
      <trkpt lat="43.53329" lon="5.54211">
        <ele>353</ele>
        <time>2011-02-11T10:25:35Z</time>
      </trkpt>
      <trkpt lat="43.53339" lon="5.54208">
        <ele>354</ele>
        <time>2011-02-11T10:25:45Z</time>
      </trkpt>
      <trkpt lat="43.53349" lon="5.542">
        <ele>355</ele>
        <time>2011-02-11T10:25:56Z</time>
      </trkpt>
      <trkpt lat="43.53354" lon="5.5419">
        <ele>357</ele>
        <time>2011-02-11T10:26:06Z</time>
      </trkpt>
      <trkpt lat="43.53354" lon="5.54178">
        <ele>359</ele>
        <time>2011-02-11T10:26:16Z</time>
      </trkpt>
      <trkpt lat="43.53351" lon="5.54166">
        <ele>359</ele>
        <time>2011-02-11T10:26:27Z</time>
      </trkpt>
      <trkpt lat="43.53348" lon="5.54152">
        <ele>359</ele>
        <time>2011-02-11T10:26:37Z</time>
      </trkpt>
      <trkpt lat="43.53347" lon="5.54139">
        <ele>361</ele>
        <time>2011-02-11T10:26:47Z</time>
      </trkpt>
      <trkpt lat="43.53349" lon="5.54126">
        <ele>363</ele>
        <time>2011-02-11T10:26:57Z</time>
      </trkpt>
      <trkpt lat="43.53355" lon="5.54112">
        <ele>364</ele>
        <time>2011-02-11T10:27:07Z</time>
      </trkpt>
      <trkpt lat="43.53364" lon="5.54102">
        <ele>365</ele>
        <time>2011-02-11T10:27:18Z</time>
      </trkpt>
      <trkpt lat="43.53374" lon="5.54094">
        <ele>365</ele>
        <time>2011-02-11T10:27:28Z</time>
      </trkpt>
      <trkpt lat="43.53386" lon="5.54091">
        <ele>366</ele>
        <time>2011-02-11T10:27:39Z</time>
      </trkpt>
      <trkpt lat="43.53395" lon="5.54088">
        <ele>368</ele>
        <time>2011-02-11T10:27:49Z</time>
      </trkpt>
      <trkpt lat="43.53405" lon="5.54084">
        <ele>369</ele>
        <time>2011-02-11T10:27:59Z</time>
      </trkpt>
      <trkpt lat="43.53415" lon="5.54079">
        <ele>371</ele>
        <time>2011-02-11T10:28:09Z</time>
      </trkpt>
      <trkpt lat="43.53425" lon="5.5407">
        <ele>372</ele>
        <time>2011-02-11T10:28:20Z</time>
      </trkpt>
      <trkpt lat="43.53432" lon="5.54059">
        <ele>373</ele>
        <time>2011-02-11T10:28:31Z</time>
      </trkpt>
      <trkpt lat="43.53439" lon="5.54045">
        <ele>374</ele>
        <time>2011-02-11T10:28:42Z</time>
      </trkpt>
      <trkpt lat="43.53442" lon="5.54033">
        <ele>374</ele>
        <time>2011-02-11T10:28:52Z</time>
      </trkpt>
      <trkpt lat="43.53445" lon="5.54017">
        <ele>374</ele>
        <time>2011-02-11T10:29:02Z</time>
      </trkpt>
      <trkpt lat="43.53453" lon="5.54005">
        <ele>374</ele>
        <time>2011-02-11T10:29:13Z</time>
      </trkpt>
      <trkpt lat="43.5346" lon="5.53992">
        <ele>374</ele>
        <time>2011-02-11T10:29:23Z</time>
      </trkpt>
      <trkpt lat="43.53466" lon="5.53981">
        <ele>374</ele>
        <time>2011-02-11T10:29:33Z</time>
      </trkpt>
      <trkpt lat="43.53474" lon="5.53969">
        <ele>374</ele>
        <time>2011-02-11T10:29:43Z</time>
      </trkpt>
      <trkpt lat="43.53483" lon="5.5396">
        <ele>374</ele>
        <time>2011-02-11T10:29:53Z</time>
      </trkpt>
      <trkpt lat="43.53493" lon="5.53953">
        <ele>374</ele>
        <time>2011-02-11T10:30:03Z</time>
      </trkpt>
      <trkpt lat="43.53504" lon="5.53947">
        <ele>374</ele>
        <time>2011-02-11T10:30:13Z</time>
      </trkpt>
      <trkpt lat="43.53515" lon="5.53937">
        <ele>374</ele>
        <time>2011-02-11T10:30:24Z</time>
      </trkpt>
      <trkpt lat="43.53527" lon="5.53929">
        <ele>374</ele>
        <time>2011-02-11T10:30:35Z</time>
      </trkpt>
      <trkpt lat="43.53539" lon="5.53929">
        <ele>374</ele>
        <time>2011-02-11T10:30:46Z</time>
      </trkpt>
      <trkpt lat="43.53551" lon="5.53927">
        <ele>374</ele>
        <time>2011-02-11T10:30:56Z</time>
      </trkpt>
      <trkpt lat="43.53562" lon="5.53923">
        <ele>374</ele>
        <time>2011-02-11T10:31:06Z</time>
      </trkpt>
      <trkpt lat="43.53573" lon="5.53919">
        <ele>374</ele>
        <time>2011-02-11T10:31:16Z</time>
      </trkpt>
      <trkpt lat="43.53584" lon="5.5391">
        <ele>374</ele>
        <time>2011-02-11T10:31:27Z</time>
      </trkpt>
      <trkpt lat="43.53594" lon="5.53903">
        <ele>374</ele>
        <time>2011-02-11T10:31:37Z</time>
      </trkpt>
      <trkpt lat="43.53606" lon="5.53902">
        <ele>374</ele>
        <time>2011-02-11T10:31:47Z</time>
      </trkpt>
      <trkpt lat="43.53619" lon="5.53903">
        <ele>374</ele>
        <time>2011-02-11T10:31:58Z</time>
      </trkpt>
      <trkpt lat="43.5363" lon="5.53905">
        <ele>374</ele>
        <time>2011-02-11T10:32:08Z</time>
      </trkpt>
      <trkpt lat="43.53642" lon="5.53904">
        <ele>374</ele>
        <time>2011-02-11T10:32:18Z</time>
      </trkpt>
      <trkpt lat="43.53654" lon="5.53903">
        <ele>374</ele>
        <time>2011-02-11T10:32:28Z</time>
      </trkpt>
      <trkpt lat="43.53667" lon="5.53903">
        <ele>374</ele>
        <time>2011-02-11T10:32:39Z</time>
      </trkpt>
      <trkpt lat="43.53678" lon="5.53903">
        <ele>374</ele>
        <time>2011-02-11T10:32:49Z</time>
      </trkpt>
      <trkpt lat="43.53691" lon="5.53901">
        <ele>374</ele>
        <time>2011-02-11T10:33:00Z</time>
      </trkpt>
      <trkpt lat="43.53702" lon="5.53897">
        <ele>374</ele>
        <time>2011-02-11T10:33:10Z</time>
      </trkpt>
      <trkpt lat="43.53714" lon="5.53897">
        <ele>374</ele>
        <time>2011-02-11T10:33:20Z</time>
      </trkpt>
      <trkpt lat="43.53725" lon="5.53901">
        <ele>374</ele>
        <time>2011-02-11T10:33:30Z</time>
      </trkpt>
      <trkpt lat="43.53737" lon="5.53902">
        <ele>374</ele>
        <time>2011-02-11T10:33:40Z</time>
      </trkpt>
      <trkpt lat="43.53749" lon="5.539">
        <ele>374</ele>
        <time>2011-02-11T10:33:50Z</time>
      </trkpt>
      <trkpt lat="43.53762" lon="5.53898">
        <ele>374</ele>
        <time>2011-02-11T10:34:01Z</time>
      </trkpt>
      <trkpt lat="43.5377" lon="5.53891">
        <ele>374</ele>
        <time>2011-02-11T10:34:11Z</time>
      </trkpt>
      <trkpt lat="43.53774" lon="5.53878">
        <ele>374</ele>
        <time>2011-02-11T10:34:21Z</time>
      </trkpt>
      <trkpt lat="43.53779" lon="5.53864">
        <ele>374</ele>
        <time>2011-02-11T10:34:31Z</time>
      </trkpt>
      <trkpt lat="43.53785" lon="5.53852">
        <ele>374</ele>
        <time>2011-02-11T10:34:42Z</time>
      </trkpt>
      <trkpt lat="43.53793" lon="5.53836">
        <ele>374</ele>
        <time>2011-02-11T10:34:53Z</time>
      </trkpt>
      <trkpt lat="43.53802" lon="5.53825">
        <ele>374</ele>
        <time>2011-02-11T10:35:03Z</time>
      </trkpt>
      <trkpt lat="43.5381" lon="5.53817">
        <ele>374</ele>
        <time>2011-02-11T10:35:13Z</time>
      </trkpt>
      <trkpt lat="43.53817" lon="5.53808">
        <ele>374</ele>
        <time>2011-02-11T10:35:23Z</time>
      </trkpt>
      <trkpt lat="43.53824" lon="5.53799">
        <ele>374</ele>
        <time>2011-02-11T10:35:34Z</time>
      </trkpt>
      <trkpt lat="43.53828" lon="5.5379">
        <ele>374</ele>
        <time>2011-02-11T10:35:45Z</time>
      </trkpt>
      <trkpt lat="43.53834" lon="5.53782">
        <ele>374</ele>
        <time>2011-02-11T10:35:56Z</time>
      </trkpt>
      <trkpt lat="43.53839" lon="5.53771">
        <ele>374</ele>
        <time>2011-02-11T10:36:06Z</time>
      </trkpt>
      <trkpt lat="43.53846" lon="5.53762">
        <ele>374</ele>
        <time>2011-02-11T10:36:16Z</time>
      </trkpt>
      <trkpt lat="43.53855" lon="5.53759">
        <ele>372</ele>
        <time>2011-02-11T10:36:26Z</time>
      </trkpt>
      <trkpt lat="43.53864" lon="5.53763">
        <ele>370</ele>
        <time>2011-02-11T10:36:36Z</time>
      </trkpt>
      <trkpt lat="43.53872" lon="5.53764">
        <ele>370</ele>
        <time>2011-02-11T10:36:46Z</time>
      </trkpt>
      <trkpt lat="43.53881" lon="5.53764">
        <ele>369</ele>
        <time>2011-02-11T10:36:56Z</time>
      </trkpt>
      <trkpt lat="43.53882" lon="5.53764">
        <ele>369</ele>
        <time>2011-02-11T10:37:06Z</time>
      </trkpt>
      <trkpt lat="43.53879" lon="5.5375">
        <ele>369</ele>
        <time>2011-02-11T10:37:16Z</time>
      </trkpt>
      <trkpt lat="43.5388" lon="5.53735">
        <ele>369</ele>
        <time>2011-02-11T10:37:26Z</time>
      </trkpt>
      <trkpt lat="43.53882" lon="5.53719">
        <ele>369</ele>
        <time>2011-02-11T10:37:36Z</time>
      </trkpt>
      <trkpt lat="43.53884" lon="5.53703">
        <ele>366</ele>
        <time>2011-02-11T10:37:46Z</time>
      </trkpt>
      <trkpt lat="43.53882" lon="5.53686">
        <ele>365</ele>
        <time>2011-02-11T10:37:57Z</time>
      </trkpt>
      <trkpt lat="43.53885" lon="5.53672">
        <ele>364</ele>
        <time>2011-02-11T10:38:08Z</time>
      </trkpt>
      <trkpt lat="43.53888" lon="5.53667">
        <ele>364</ele>
        <time>2011-02-11T10:38:19Z</time>
      </trkpt>
      <trkpt lat="43.53894" lon="5.53659">
        <ele>363</ele>
        <time>2011-02-11T10:38:30Z</time>
      </trkpt>
      <trkpt lat="43.539" lon="5.53645">
        <ele>362</ele>
        <time>2011-02-11T10:38:41Z</time>
      </trkpt>
      <trkpt lat="43.539" lon="5.5363">
        <ele>361</ele>
        <time>2011-02-11T10:38:51Z</time>
      </trkpt>
      <trkpt lat="43.53901" lon="5.53616">
        <ele>361</ele>
        <time>2011-02-11T10:39:02Z</time>
      </trkpt>
      <trkpt lat="43.53902" lon="5.53603">
        <ele>361</ele>
        <time>2011-02-11T10:39:12Z</time>
      </trkpt>
      <trkpt lat="43.53902" lon="5.53583">
        <ele>360</ele>
        <time>2011-02-11T10:39:22Z</time>
      </trkpt>
      <trkpt lat="43.53908" lon="5.53574">
        <ele>360</ele>
        <time>2011-02-11T10:39:32Z</time>
      </trkpt>
      <trkpt lat="43.53909" lon="5.53567">
        <ele>359</ele>
        <time>2011-02-11T10:39:44Z</time>
      </trkpt>
      <trkpt lat="43.53916" lon="5.53566">
        <ele>357</ele>
        <time>2011-02-11T10:39:55Z</time>
      </trkpt>
      <trkpt lat="43.53923" lon="5.53577">
        <ele>355</ele>
        <time>2011-02-11T10:40:05Z</time>
      </trkpt>
      <trkpt lat="43.53928" lon="5.53587">
        <ele>353</ele>
        <time>2011-02-11T10:40:15Z</time>
      </trkpt>
      <trkpt lat="43.53928" lon="5.5359">
        <ele>353</ele>
        <time>2011-02-11T10:40:30Z</time>
      </trkpt>
      <trkpt lat="43.53931" lon="5.53594">
        <ele>352</ele>
        <time>2011-02-11T10:40:40Z</time>
      </trkpt>
      <trkpt lat="43.53931" lon="5.53595">
        <ele>352</ele>
        <time>2011-02-11T10:40:54Z</time>
      </trkpt>
      <trkpt lat="43.53932" lon="5.53595">
        <ele>352</ele>
        <time>2011-02-11T10:41:17Z</time>
      </trkpt>
      <trkpt lat="43.53933" lon="5.53592">
        <ele>351</ele>
        <time>2011-02-11T10:41:36Z</time>
      </trkpt>
      <trkpt lat="43.53933" lon="5.53594">
        <ele>351</ele>
        <time>2011-02-11T10:41:55Z</time>
      </trkpt>
      <trkpt lat="43.53931" lon="5.53593">
        <ele>351</ele>
        <time>2011-02-11T10:42:21Z</time>
      </trkpt>
      <trkpt lat="43.53933" lon="5.53594">
        <ele>350</ele>
        <time>2011-02-11T10:42:40Z</time>
      </trkpt>
      <trkpt lat="43.53939" lon="5.53602">
        <ele>349</ele>
        <time>2011-02-11T10:42:51Z</time>
      </trkpt>
      <trkpt lat="43.53946" lon="5.53607">
        <ele>349</ele>
        <time>2011-02-11T10:43:01Z</time>
      </trkpt>
      <trkpt lat="43.53955" lon="5.53613">
        <ele>349</ele>
        <time>2011-02-11T10:43:11Z</time>
      </trkpt>
      <trkpt lat="43.53957" lon="5.53619">
        <ele>349</ele>
        <time>2011-02-11T10:43:21Z</time>
      </trkpt>
      <trkpt lat="43.53964" lon="5.53627">
        <ele>348</ele>
        <time>2011-02-11T10:43:31Z</time>
      </trkpt>
      <trkpt lat="43.53971" lon="5.53634">
        <ele>348</ele>
        <time>2011-02-11T10:43:41Z</time>
      </trkpt>
      <trkpt lat="43.53975" lon="5.53634">
        <ele>348</ele>
        <time>2011-02-11T10:43:51Z</time>
      </trkpt>
      <trkpt lat="43.5398" lon="5.53634">
        <ele>348</ele>
        <time>2011-02-11T10:44:04Z</time>
      </trkpt>
      <trkpt lat="43.53984" lon="5.53636">
        <ele>348</ele>
        <time>2011-02-11T10:44:21Z</time>
      </trkpt>
      <trkpt lat="43.53989" lon="5.53638">
        <ele>348</ele>
        <time>2011-02-11T10:44:32Z</time>
      </trkpt>
      <trkpt lat="43.53997" lon="5.53641">
        <ele>348</ele>
        <time>2011-02-11T10:44:43Z</time>
      </trkpt>
      <trkpt lat="43.54004" lon="5.53646">
        <ele>348</ele>
        <time>2011-02-11T10:44:53Z</time>
      </trkpt>
      <trkpt lat="43.54014" lon="5.53648">
        <ele>348</ele>
        <time>2011-02-11T10:45:03Z</time>
      </trkpt>
      <trkpt lat="43.54024" lon="5.5365">
        <ele>348</ele>
        <time>2011-02-11T10:45:13Z</time>
      </trkpt>
      <trkpt lat="43.54034" lon="5.5365">
        <ele>348</ele>
        <time>2011-02-11T10:45:23Z</time>
      </trkpt>
      <trkpt lat="43.54045" lon="5.5365">
        <ele>348</ele>
        <time>2011-02-11T10:45:34Z</time>
      </trkpt>
      <trkpt lat="43.54057" lon="5.53648">
        <ele>348</ele>
        <time>2011-02-11T10:45:45Z</time>
      </trkpt>
      <trkpt lat="43.54067" lon="5.53645">
        <ele>348</ele>
        <time>2011-02-11T10:45:56Z</time>
      </trkpt>
      <trkpt lat="43.54078" lon="5.53641">
        <ele>348</ele>
        <time>2011-02-11T10:46:07Z</time>
      </trkpt>
      <trkpt lat="43.54087" lon="5.53635">
        <ele>348</ele>
        <time>2011-02-11T10:46:17Z</time>
      </trkpt>
      <trkpt lat="43.54097" lon="5.53628">
        <ele>348</ele>
        <time>2011-02-11T10:46:27Z</time>
      </trkpt>
      <trkpt lat="43.54107" lon="5.53619">
        <ele>348</ele>
        <time>2011-02-11T10:46:38Z</time>
      </trkpt>
      <trkpt lat="43.54114" lon="5.53611">
        <ele>348</ele>
        <time>2011-02-11T10:46:48Z</time>
      </trkpt>
      <trkpt lat="43.54123" lon="5.536">
        <ele>348</ele>
        <time>2011-02-11T10:46:59Z</time>
      </trkpt>
      <trkpt lat="43.54129" lon="5.53589">
        <ele>348</ele>
        <time>2011-02-11T10:47:09Z</time>
      </trkpt>
      <trkpt lat="43.54137" lon="5.5358">
        <ele>348</ele>
        <time>2011-02-11T10:47:19Z</time>
      </trkpt>
      <trkpt lat="43.54144" lon="5.53567">
        <ele>348</ele>
        <time>2011-02-11T10:47:31Z</time>
      </trkpt>
      <trkpt lat="43.54147" lon="5.53556">
        <ele>348</ele>
        <time>2011-02-11T10:47:41Z</time>
      </trkpt>
      <trkpt lat="43.54149" lon="5.53543">
        <ele>348</ele>
        <time>2011-02-11T10:47:51Z</time>
      </trkpt>
      <trkpt lat="43.54148" lon="5.53531">
        <ele>348</ele>
        <time>2011-02-11T10:48:01Z</time>
      </trkpt>
      <trkpt lat="43.54145" lon="5.5352">
        <ele>348</ele>
        <time>2011-02-11T10:48:11Z</time>
      </trkpt>
      <trkpt lat="43.54142" lon="5.53508">
        <ele>348</ele>
        <time>2011-02-11T10:48:21Z</time>
      </trkpt>
      <trkpt lat="43.54139" lon="5.53493">
        <ele>348</ele>
        <time>2011-02-11T10:48:32Z</time>
      </trkpt>
      <trkpt lat="43.54136" lon="5.53479">
        <ele>348</ele>
        <time>2011-02-11T10:48:43Z</time>
      </trkpt>
      <trkpt lat="43.54134" lon="5.53465">
        <ele>348</ele>
        <time>2011-02-11T10:48:53Z</time>
      </trkpt>
      <trkpt lat="43.54132" lon="5.5345">
        <ele>348</ele>
        <time>2011-02-11T10:49:04Z</time>
      </trkpt>
      <trkpt lat="43.54133" lon="5.53447">
        <ele>348</ele>
        <time>2011-02-11T10:49:22Z</time>
      </trkpt>
      <trkpt lat="43.54136" lon="5.53436">
        <ele>348</ele>
        <time>2011-02-11T10:49:33Z</time>
      </trkpt>
      <trkpt lat="43.54142" lon="5.53426">
        <ele>348</ele>
        <time>2011-02-11T10:49:43Z</time>
      </trkpt>
      <trkpt lat="43.54148" lon="5.53416">
        <ele>348</ele>
        <time>2011-02-11T10:49:53Z</time>
      </trkpt>
      <trkpt lat="43.54153" lon="5.53404">
        <ele>348</ele>
        <time>2011-02-11T10:50:03Z</time>
      </trkpt>
      <trkpt lat="43.54158" lon="5.53392">
        <ele>348</ele>
        <time>2011-02-11T10:50:14Z</time>
      </trkpt>
      <trkpt lat="43.5416" lon="5.53379">
        <ele>348</ele>
        <time>2011-02-11T10:50:24Z</time>
      </trkpt>
      <trkpt lat="43.54163" lon="5.53368">
        <ele>348</ele>
        <time>2011-02-11T10:50:34Z</time>
      </trkpt>
      <trkpt lat="43.54164" lon="5.53354">
        <ele>349</ele>
        <time>2011-02-11T10:50:44Z</time>
      </trkpt>
      <trkpt lat="43.54164" lon="5.5334">
        <ele>350</ele>
        <time>2011-02-11T10:50:54Z</time>
      </trkpt>
      <trkpt lat="43.54165" lon="5.53325">
        <ele>350</ele>
        <time>2011-02-11T10:51:04Z</time>
      </trkpt>
      <trkpt lat="43.54165" lon="5.53309">
        <ele>350</ele>
        <time>2011-02-11T10:51:14Z</time>
      </trkpt>
      <trkpt lat="43.54164" lon="5.53301">
        <ele>350</ele>
        <time>2011-02-11T10:51:31Z</time>
      </trkpt>
      <trkpt lat="43.54164" lon="5.53303">
        <ele>352</ele>
        <time>2011-02-11T10:51:57Z</time>
      </trkpt>
      <trkpt lat="43.54165" lon="5.53304">
        <ele>353</ele>
        <time>2011-02-11T10:52:26Z</time>
      </trkpt>
      <trkpt lat="43.54168" lon="5.53304">
        <ele>353</ele>
        <time>2011-02-11T10:52:37Z</time>
      </trkpt>
      <trkpt lat="43.54167" lon="5.53303">
        <ele>353</ele>
        <time>2011-02-11T10:52:47Z</time>
      </trkpt>
      <trkpt lat="43.54166" lon="5.53303">
        <ele>353</ele>
        <time>2011-02-11T10:52:58Z</time>
      </trkpt>
      <trkpt lat="43.54163" lon="5.53293">
        <ele>353</ele>
        <time>2011-02-11T10:53:09Z</time>
      </trkpt>
      <trkpt lat="43.54159" lon="5.53278">
        <ele>353</ele>
        <time>2011-02-11T10:53:20Z</time>
      </trkpt>
      <trkpt lat="43.54155" lon="5.53263">
        <ele>353</ele>
        <time>2011-02-11T10:53:30Z</time>
      </trkpt>
      <trkpt lat="43.54146" lon="5.53252">
        <ele>353</ele>
        <time>2011-02-11T10:53:41Z</time>
      </trkpt>
      <trkpt lat="43.54135" lon="5.53239">
        <ele>353</ele>
        <time>2011-02-11T10:53:53Z</time>
      </trkpt>
      <trkpt lat="43.54127" lon="5.53226">
        <ele>353</ele>
        <time>2011-02-11T10:54:04Z</time>
      </trkpt>
      <trkpt lat="43.5412" lon="5.53213">
        <ele>353</ele>
        <time>2011-02-11T10:54:15Z</time>
      </trkpt>
      <trkpt lat="43.54113" lon="5.53199">
        <ele>353</ele>
        <time>2011-02-11T10:54:26Z</time>
      </trkpt>
      <trkpt lat="43.54105" lon="5.53184">
        <ele>353</ele>
        <time>2011-02-11T10:54:38Z</time>
      </trkpt>
      <trkpt lat="43.54098" lon="5.53171">
        <ele>353</ele>
        <time>2011-02-11T10:54:48Z</time>
      </trkpt>
      <trkpt lat="43.54092" lon="5.53157">
        <ele>353</ele>
        <time>2011-02-11T10:54:58Z</time>
      </trkpt>
      <trkpt lat="43.54089" lon="5.53141">
        <ele>353</ele>
        <time>2011-02-11T10:55:09Z</time>
      </trkpt>
      <trkpt lat="43.54086" lon="5.53126">
        <ele>353</ele>
        <time>2011-02-11T10:55:19Z</time>
      </trkpt>
      <trkpt lat="43.54084" lon="5.5311">
        <ele>353</ele>
        <time>2011-02-11T10:55:29Z</time>
      </trkpt>
      <trkpt lat="43.54085" lon="5.53094">
        <ele>353</ele>
        <time>2011-02-11T10:55:39Z</time>
      </trkpt>
      <trkpt lat="43.54087" lon="5.53079">
        <ele>353</ele>
        <time>2011-02-11T10:55:49Z</time>
      </trkpt>
      <trkpt lat="43.54093" lon="5.53065">
        <ele>353</ele>
        <time>2011-02-11T10:55:59Z</time>
      </trkpt>
      <trkpt lat="43.54101" lon="5.53053">
        <ele>353</ele>
        <time>2011-02-11T10:56:09Z</time>
      </trkpt>
      <trkpt lat="43.5411" lon="5.53043">
        <ele>353</ele>
        <time>2011-02-11T10:56:19Z</time>
      </trkpt>
      <trkpt lat="43.54119" lon="5.53034">
        <ele>352</ele>
        <time>2011-02-11T10:56:29Z</time>
      </trkpt>
      <trkpt lat="43.54124" lon="5.5303">
        <ele>352</ele>
        <time>2011-02-11T10:56:48Z</time>
      </trkpt>
      <trkpt lat="43.54125" lon="5.5303">
        <ele>351</ele>
        <time>2011-02-11T10:57:04Z</time>
      </trkpt>
      <trkpt lat="43.54124" lon="5.53033">
        <ele>352</ele>
        <time>2011-02-11T10:57:16Z</time>
      </trkpt>
      <trkpt lat="43.54124" lon="5.5303">
        <ele>353</ele>
        <time>2011-02-11T10:57:30Z</time>
      </trkpt>
      <trkpt lat="43.54123" lon="5.53029">
        <ele>350</ele>
        <time>2011-02-11T10:57:42Z</time>
      </trkpt>
      <trkpt lat="43.54124" lon="5.53029">
        <ele>350</ele>
        <time>2011-02-11T10:57:56Z</time>
      </trkpt>
      <trkpt lat="43.54124" lon="5.53031">
        <ele>350</ele>
        <time>2011-02-11T10:58:08Z</time>
      </trkpt>
      <trkpt lat="43.54126" lon="5.53033">
        <ele>350</ele>
        <time>2011-02-11T10:58:20Z</time>
      </trkpt>
      <trkpt lat="43.54126" lon="5.53031">
        <ele>350</ele>
        <time>2011-02-11T10:58:32Z</time>
      </trkpt>
      <trkpt lat="43.54125" lon="5.5303">
        <ele>350</ele>
        <time>2011-02-11T10:59:09Z</time>
      </trkpt>
      <trkpt lat="43.54124" lon="5.53029">
        <ele>350</ele>
        <time>2011-02-11T10:59:24Z</time>
      </trkpt>
      <trkpt lat="43.54123" lon="5.53031">
        <ele>352</ele>
        <time>2011-02-11T10:59:38Z</time>
      </trkpt>
      <trkpt lat="43.54122" lon="5.53029">
        <ele>352</ele>
        <time>2011-02-11T10:59:55Z</time>
      </trkpt>
      <trkpt lat="43.54125" lon="5.53019">
        <ele>352</ele>
        <time>2011-02-11T11:00:05Z</time>
      </trkpt>
      <trkpt lat="43.54132" lon="5.53004">
        <ele>352</ele>
        <time>2011-02-11T11:00:16Z</time>
      </trkpt>
      <trkpt lat="43.54132" lon="5.52989">
        <ele>352</ele>
        <time>2011-02-11T11:00:26Z</time>
      </trkpt>
      <trkpt lat="43.54125" lon="5.52976">
        <ele>352</ele>
        <time>2011-02-11T11:00:37Z</time>
      </trkpt>
      <trkpt lat="43.54115" lon="5.52968">
        <ele>352</ele>
        <time>2011-02-11T11:00:47Z</time>
      </trkpt>
      <trkpt lat="43.54103" lon="5.52958">
        <ele>352</ele>
        <time>2011-02-11T11:00:58Z</time>
      </trkpt>
      <trkpt lat="43.54096" lon="5.52947">
        <ele>352</ele>
        <time>2011-02-11T11:01:08Z</time>
      </trkpt>
      <trkpt lat="43.54089" lon="5.52933">
        <ele>351</ele>
        <time>2011-02-11T11:01:18Z</time>
      </trkpt>
      <trkpt lat="43.54081" lon="5.5292">
        <ele>350</ele>
        <time>2011-02-11T11:01:28Z</time>
      </trkpt>
      <trkpt lat="43.54075" lon="5.52905">
        <ele>349</ele>
        <time>2011-02-11T11:01:38Z</time>
      </trkpt>
      <trkpt lat="43.54069" lon="5.52889">
        <ele>348</ele>
        <time>2011-02-11T11:01:48Z</time>
      </trkpt>
      <trkpt lat="43.54064" lon="5.5288">
        <ele>348</ele>
        <time>2011-02-11T11:02:01Z</time>
      </trkpt>
      <trkpt lat="43.54065" lon="5.52879">
        <ele>348</ele>
        <time>2011-02-11T11:02:13Z</time>
      </trkpt>
      <trkpt lat="43.54055" lon="5.52871">
        <ele>348</ele>
        <time>2011-02-11T11:02:23Z</time>
      </trkpt>
      <trkpt lat="43.54047" lon="5.52867">
        <ele>348</ele>
        <time>2011-02-11T11:02:37Z</time>
      </trkpt>
      <trkpt lat="43.54038" lon="5.52856">
        <ele>348</ele>
        <time>2011-02-11T11:02:47Z</time>
      </trkpt>
      <trkpt lat="43.54029" lon="5.52843">
        <ele>348</ele>
        <time>2011-02-11T11:02:58Z</time>
      </trkpt>
      <trkpt lat="43.54019" lon="5.52834">
        <ele>348</ele>
        <time>2011-02-11T11:03:08Z</time>
      </trkpt>
      <trkpt lat="43.54008" lon="5.52825">
        <ele>348</ele>
        <time>2011-02-11T11:03:18Z</time>
      </trkpt>
      <trkpt lat="43.53997" lon="5.5282">
        <ele>348</ele>
        <time>2011-02-11T11:03:28Z</time>
      </trkpt>
      <trkpt lat="43.53988" lon="5.52808">
        <ele>348</ele>
        <time>2011-02-11T11:03:38Z</time>
      </trkpt>
      <trkpt lat="43.53988" lon="5.52791">
        <ele>348</ele>
        <time>2011-02-11T11:03:48Z</time>
      </trkpt>
      <trkpt lat="43.53986" lon="5.52774">
        <ele>348</ele>
        <time>2011-02-11T11:03:58Z</time>
      </trkpt>
      <trkpt lat="43.53988" lon="5.52758">
        <ele>348</ele>
        <time>2011-02-11T11:04:08Z</time>
      </trkpt>
      <trkpt lat="43.53988" lon="5.52742">
        <ele>347</ele>
        <time>2011-02-11T11:04:18Z</time>
      </trkpt>
      <trkpt lat="43.53987" lon="5.52725">
        <ele>345</ele>
        <time>2011-02-11T11:04:28Z</time>
      </trkpt>
      <trkpt lat="43.53984" lon="5.52708">
        <ele>345</ele>
        <time>2011-02-11T11:04:38Z</time>
      </trkpt>
      <trkpt lat="43.53979" lon="5.52691">
        <ele>344</ele>
        <time>2011-02-11T11:04:48Z</time>
      </trkpt>
      <trkpt lat="43.53973" lon="5.52676">
        <ele>344</ele>
        <time>2011-02-11T11:04:58Z</time>
      </trkpt>
      <trkpt lat="43.53968" lon="5.52661">
        <ele>343</ele>
        <time>2011-02-11T11:05:08Z</time>
      </trkpt>
      <trkpt lat="43.53967" lon="5.52643">
        <ele>343</ele>
        <time>2011-02-11T11:05:18Z</time>
      </trkpt>
      <trkpt lat="43.53968" lon="5.52625">
        <ele>342</ele>
        <time>2011-02-11T11:05:28Z</time>
      </trkpt>
      <trkpt lat="43.53965" lon="5.52611">
        <ele>342</ele>
        <time>2011-02-11T11:05:38Z</time>
      </trkpt>
      <trkpt lat="43.53958" lon="5.52598">
        <ele>342</ele>
        <time>2011-02-11T11:05:48Z</time>
      </trkpt>
      <trkpt lat="43.53955" lon="5.5258">
        <ele>342</ele>
        <time>2011-02-11T11:05:58Z</time>
      </trkpt>
      <trkpt lat="43.53951" lon="5.52563">
        <ele>342</ele>
        <time>2011-02-11T11:06:09Z</time>
      </trkpt>
      <trkpt lat="43.53948" lon="5.52548">
        <ele>342</ele>
        <time>2011-02-11T11:06:19Z</time>
      </trkpt>
      <trkpt lat="43.53953" lon="5.52531">
        <ele>342</ele>
        <time>2011-02-11T11:06:29Z</time>
      </trkpt>
      <trkpt lat="43.53952" lon="5.52515">
        <ele>342</ele>
        <time>2011-02-11T11:06:40Z</time>
      </trkpt>
      <trkpt lat="43.53949" lon="5.52502">
        <ele>342</ele>
        <time>2011-02-11T11:06:51Z</time>
      </trkpt>
      <trkpt lat="43.53942" lon="5.52492">
        <ele>342</ele>
        <time>2011-02-11T11:07:02Z</time>
      </trkpt>
      <trkpt lat="43.53939" lon="5.52492">
        <ele>342</ele>
        <time>2011-02-11T11:07:14Z</time>
      </trkpt>
      <trkpt lat="43.53933" lon="5.52493">
        <ele>342</ele>
        <time>2011-02-11T11:07:25Z</time>
      </trkpt>
      <trkpt lat="43.53927" lon="5.52491">
        <ele>342</ele>
        <time>2011-02-11T11:07:43Z</time>
      </trkpt>
      <trkpt lat="43.53924" lon="5.52491">
        <ele>342</ele>
        <time>2011-02-11T11:07:54Z</time>
      </trkpt>
      <trkpt lat="43.53925" lon="5.52493">
        <ele>342</ele>
        <time>2011-02-11T11:08:30Z</time>
      </trkpt>
      <trkpt lat="43.53927" lon="5.52493">
        <ele>342</ele>
        <time>2011-02-11T11:09:09Z</time>
      </trkpt>
      <trkpt lat="43.53928" lon="5.52493">
        <ele>342</ele>
        <time>2011-02-11T11:09:32Z</time>
      </trkpt>
      <trkpt lat="43.53931" lon="5.52493">
        <ele>342</ele>
        <time>2011-02-11T11:09:46Z</time>
      </trkpt>
      <trkpt lat="43.53933" lon="5.52496">
        <ele>342</ele>
        <time>2011-02-11T11:10:00Z</time>
      </trkpt>
      <trkpt lat="43.53935" lon="5.52498">
        <ele>342</ele>
        <time>2011-02-11T11:10:23Z</time>
      </trkpt>
      <trkpt lat="43.53933" lon="5.52498">
        <ele>342</ele>
        <time>2011-02-11T11:10:37Z</time>
      </trkpt>
      <trkpt lat="43.53931" lon="5.52499">
        <ele>342</ele>
        <time>2011-02-11T11:10:47Z</time>
      </trkpt>
      <trkpt lat="43.5393" lon="5.52498">
        <ele>342</ele>
        <time>2011-02-11T11:11:02Z</time>
      </trkpt>
      <trkpt lat="43.53929" lon="5.52497">
        <ele>342</ele>
        <time>2011-02-11T11:11:18Z</time>
      </trkpt>
      <trkpt lat="43.53931" lon="5.52494">
        <ele>342</ele>
        <time>2011-02-11T11:11:31Z</time>
      </trkpt>
      <trkpt lat="43.53926" lon="5.52494">
        <ele>342</ele>
        <time>2011-02-11T11:11:42Z</time>
      </trkpt>
      <trkpt lat="43.53924" lon="5.5249">
        <ele>342</ele>
        <time>2011-02-11T11:12:49Z</time>
      </trkpt>
      <trkpt lat="43.53925" lon="5.5249">
        <ele>342</ele>
        <time>2011-02-11T11:14:20Z</time>
      </trkpt>
      <trkpt lat="43.53924" lon="5.52489">
        <ele>342</ele>
        <time>2011-02-11T11:15:27Z</time>
      </trkpt>
      <trkpt lat="43.53924" lon="5.5249">
        <ele>342</ele>
        <time>2011-02-11T11:15:44Z</time>
      </trkpt>
      <trkpt lat="43.53923" lon="5.52492">
        <ele>342</ele>
        <time>2011-02-11T11:16:00Z</time>
      </trkpt>
      <trkpt lat="43.53924" lon="5.52493">
        <ele>342</ele>
        <time>2011-02-11T11:17:28Z</time>
      </trkpt>
      <trkpt lat="43.53925" lon="5.52492">
        <ele>342</ele>
        <time>2011-02-11T11:18:44Z</time>
      </trkpt>
      <trkpt lat="43.53926" lon="5.52492">
        <ele>342</ele>
        <time>2011-02-11T11:21:22Z</time>
      </trkpt>
      <trkpt lat="43.53925" lon="5.52492">
        <ele>342</ele>
        <time>2011-02-11T11:22:16Z</time>
      </trkpt>
      <trkpt lat="43.53925" lon="5.52491">
        <ele>342</ele>
        <time>2011-02-11T11:22:36Z</time>
      </trkpt>
      <trkpt lat="43.53925" lon="5.52489">
        <ele>342</ele>
        <time>2011-02-11T11:24:09Z</time>
      </trkpt>
      <trkpt lat="43.53925" lon="5.52491">
        <ele>342</ele>
        <time>2011-02-11T11:24:26Z</time>
      </trkpt>
      <trkpt lat="43.53923" lon="5.52491">
        <ele>342</ele>
        <time>2011-02-11T11:24:49Z</time>
      </trkpt>
      <trkpt lat="43.53924" lon="5.52492">
        <ele>342</ele>
        <time>2011-02-11T11:25:39Z</time>
      </trkpt>
      <trkpt lat="43.53925" lon="5.52492">
        <ele>342</ele>
        <time>2011-02-11T11:27:49Z</time>
      </trkpt>
      <trkpt lat="43.53925" lon="5.52493">
        <ele>342</ele>
        <time>2011-02-11T11:28:15Z</time>
      </trkpt>
      <trkpt lat="43.53925" lon="5.52492">
        <ele>342</ele>
        <time>2011-02-11T11:29:09Z</time>
      </trkpt>
      <trkpt lat="43.53924" lon="5.52493">
        <ele>342</ele>
        <time>2011-02-11T11:29:24Z</time>
      </trkpt>
      <trkpt lat="43.53923" lon="5.52494">
        <ele>342</ele>
        <time>2011-02-11T11:29:37Z</time>
      </trkpt>
      <trkpt lat="43.53925" lon="5.52495">
        <ele>342</ele>
        <time>2011-02-11T11:30:01Z</time>
      </trkpt>
      <trkpt lat="43.53925" lon="5.52493">
        <ele>342</ele>
        <time>2011-02-11T11:31:13Z</time>
      </trkpt>
      <trkpt lat="43.53924" lon="5.52495">
        <ele>342</ele>
        <time>2011-02-11T11:31:46Z</time>
      </trkpt>
      <trkpt lat="43.53924" lon="5.52493">
        <ele>343</ele>
        <time>2011-02-11T11:32:35Z</time>
      </trkpt>
      <trkpt lat="43.53925" lon="5.52492">
        <ele>343</ele>
        <time>2011-02-11T11:33:18Z</time>
      </trkpt>
      <trkpt lat="43.53923" lon="5.52494">
        <ele>343</ele>
        <time>2011-02-11T11:35:04Z</time>
      </trkpt>
      <trkpt lat="43.53922" lon="5.52496">
        <ele>344</ele>
        <time>2011-02-11T11:35:29Z</time>
      </trkpt>
      <trkpt lat="43.53923" lon="5.52494">
        <ele>344</ele>
        <time>2011-02-11T11:35:46Z</time>
      </trkpt>
      <trkpt lat="43.53923" lon="5.52493">
        <ele>344</ele>
        <time>2011-02-11T11:36:10Z</time>
      </trkpt>
      <trkpt lat="43.53924" lon="5.52491">
        <ele>344</ele>
        <time>2011-02-11T11:36:25Z</time>
      </trkpt>
      <trkpt lat="43.53925" lon="5.52492">
        <ele>344</ele>
        <time>2011-02-11T11:37:14Z</time>
      </trkpt>
      <trkpt lat="43.53926" lon="5.52492">
        <ele>344</ele>
        <time>2011-02-11T11:38:18Z</time>
      </trkpt>
      <trkpt lat="43.53925" lon="5.52492">
        <ele>344</ele>
        <time>2011-02-11T11:38:42Z</time>
      </trkpt>
      <trkpt lat="43.53924" lon="5.52492">
        <ele>343</ele>
        <time>2011-02-11T11:42:11Z</time>
      </trkpt>
      <trkpt lat="43.53925" lon="5.52491">
        <ele>343</ele>
        <time>2011-02-11T11:42:34Z</time>
      </trkpt>
      <trkpt lat="43.53926" lon="5.52491">
        <ele>342</ele>
        <time>2011-02-11T11:43:34Z</time>
      </trkpt>
      <trkpt lat="43.53927" lon="5.52491">
        <ele>342</ele>
        <time>2011-02-11T11:43:48Z</time>
      </trkpt>
      <trkpt lat="43.53925" lon="5.5249">
        <ele>342</ele>
        <time>2011-02-11T11:44:03Z</time>
      </trkpt>
      <trkpt lat="43.53929" lon="5.52481">
        <ele>342</ele>
        <time>2011-02-11T11:44:15Z</time>
      </trkpt>
      <trkpt lat="43.53929" lon="5.52477">
        <ele>342</ele>
        <time>2011-02-11T11:44:30Z</time>
      </trkpt>
      <trkpt lat="43.5393" lon="5.52478">
        <ele>342</ele>
        <time>2011-02-11T11:45:03Z</time>
      </trkpt>
      <trkpt lat="43.53925" lon="5.52485">
        <ele>342</ele>
        <time>2011-02-11T11:45:13Z</time>
      </trkpt>
      <trkpt lat="43.53925" lon="5.5249">
        <ele>342</ele>
        <time>2011-02-11T11:45:33Z</time>
      </trkpt>
      <trkpt lat="43.53924" lon="5.52489">
        <ele>342</ele>
        <time>2011-02-11T11:45:57Z</time>
      </trkpt>
      <trkpt lat="43.53924" lon="5.52488">
        <ele>342</ele>
        <time>2011-02-11T11:46:43Z</time>
      </trkpt>
      <trkpt lat="43.53921" lon="5.52482">
        <ele>342</ele>
        <time>2011-02-11T11:46:53Z</time>
      </trkpt>
      <trkpt lat="43.53917" lon="5.52476">
        <ele>342</ele>
        <time>2011-02-11T11:47:03Z</time>
      </trkpt>
      <trkpt lat="43.5391" lon="5.52468">
        <ele>342</ele>
        <time>2011-02-11T11:47:13Z</time>
      </trkpt>
      <trkpt lat="43.53904" lon="5.52457">
        <ele>342</ele>
        <time>2011-02-11T11:47:23Z</time>
      </trkpt>
      <trkpt lat="43.53899" lon="5.52447">
        <ele>342</ele>
        <time>2011-02-11T11:47:33Z</time>
      </trkpt>
      <trkpt lat="43.53897" lon="5.52434">
        <ele>342</ele>
        <time>2011-02-11T11:47:43Z</time>
      </trkpt>
      <trkpt lat="43.53895" lon="5.52421">
        <ele>342</ele>
        <time>2011-02-11T11:47:54Z</time>
      </trkpt>
      <trkpt lat="43.53891" lon="5.52408">
        <ele>342</ele>
        <time>2011-02-11T11:48:04Z</time>
      </trkpt>
      <trkpt lat="43.5389" lon="5.52394">
        <ele>342</ele>
        <time>2011-02-11T11:48:14Z</time>
      </trkpt>
      <trkpt lat="43.53889" lon="5.52381">
        <ele>342</ele>
        <time>2011-02-11T11:48:24Z</time>
      </trkpt>
      <trkpt lat="43.53889" lon="5.52367">
        <ele>342</ele>
        <time>2011-02-11T11:48:34Z</time>
      </trkpt>
      <trkpt lat="43.53887" lon="5.52352">
        <ele>342</ele>
        <time>2011-02-11T11:48:45Z</time>
      </trkpt>
      <trkpt lat="43.5388" lon="5.52342">
        <ele>342</ele>
        <time>2011-02-11T11:48:55Z</time>
      </trkpt>
      <trkpt lat="43.53878" lon="5.52326">
        <ele>342</ele>
        <time>2011-02-11T11:49:05Z</time>
      </trkpt>
      <trkpt lat="43.53875" lon="5.52312">
        <ele>342</ele>
        <time>2011-02-11T11:49:15Z</time>
      </trkpt>
      <trkpt lat="43.53873" lon="5.52298">
        <ele>342</ele>
        <time>2011-02-11T11:49:25Z</time>
      </trkpt>
      <trkpt lat="43.53867" lon="5.52285">
        <ele>342</ele>
        <time>2011-02-11T11:49:35Z</time>
      </trkpt>
      <trkpt lat="43.5386" lon="5.52275">
        <ele>342</ele>
        <time>2011-02-11T11:49:45Z</time>
      </trkpt>
      <trkpt lat="43.53853" lon="5.52264">
        <ele>342</ele>
        <time>2011-02-11T11:49:55Z</time>
      </trkpt>
      <trkpt lat="43.53846" lon="5.52253">
        <ele>342</ele>
        <time>2011-02-11T11:50:05Z</time>
      </trkpt>
      <trkpt lat="43.53839" lon="5.52243">
        <ele>342</ele>
        <time>2011-02-11T11:50:15Z</time>
      </trkpt>
      <trkpt lat="43.5383" lon="5.52236">
        <ele>342</ele>
        <time>2011-02-11T11:50:25Z</time>
      </trkpt>
      <trkpt lat="43.53821" lon="5.52228">
        <ele>342</ele>
        <time>2011-02-11T11:50:35Z</time>
      </trkpt>
      <trkpt lat="43.53811" lon="5.52222">
        <ele>341</ele>
        <time>2011-02-11T11:50:46Z</time>
      </trkpt>
      <trkpt lat="43.53809" lon="5.52218">
        <ele>341</ele>
        <time>2011-02-11T11:50:59Z</time>
      </trkpt>
      <trkpt lat="43.53809" lon="5.52216">
        <ele>341</ele>
        <time>2011-02-11T11:51:13Z</time>
      </trkpt>
      <trkpt lat="43.53807" lon="5.52206">
        <ele>341</ele>
        <time>2011-02-11T11:51:24Z</time>
      </trkpt>
      <trkpt lat="43.53804" lon="5.52197">
        <ele>341</ele>
        <time>2011-02-11T11:51:34Z</time>
      </trkpt>
      <trkpt lat="43.53801" lon="5.52185">
        <ele>341</ele>
        <time>2011-02-11T11:51:44Z</time>
      </trkpt>
      <trkpt lat="43.53799" lon="5.52175">
        <ele>340</ele>
        <time>2011-02-11T11:51:54Z</time>
      </trkpt>
      <trkpt lat="43.53801" lon="5.52162">
        <ele>339</ele>
        <time>2011-02-11T11:52:05Z</time>
      </trkpt>
      <trkpt lat="43.53808" lon="5.52152">
        <ele>338</ele>
        <time>2011-02-11T11:52:15Z</time>
      </trkpt>
      <trkpt lat="43.53817" lon="5.52151">
        <ele>337</ele>
        <time>2011-02-11T11:52:25Z</time>
      </trkpt>
      <trkpt lat="43.53828" lon="5.52147">
        <ele>337</ele>
        <time>2011-02-11T11:52:35Z</time>
      </trkpt>
      <trkpt lat="43.53837" lon="5.52149">
        <ele>337</ele>
        <time>2011-02-11T11:52:45Z</time>
      </trkpt>
      <trkpt lat="43.53849" lon="5.52155">
        <ele>337</ele>
        <time>2011-02-11T11:52:56Z</time>
      </trkpt>
      <trkpt lat="43.53859" lon="5.52166">
        <ele>337</ele>
        <time>2011-02-11T11:53:07Z</time>
      </trkpt>
      <trkpt lat="43.53871" lon="5.52174">
        <ele>337</ele>
        <time>2011-02-11T11:53:18Z</time>
      </trkpt>
      <trkpt lat="43.53883" lon="5.52178">
        <ele>337</ele>
        <time>2011-02-11T11:53:28Z</time>
      </trkpt>
      <trkpt lat="43.53895" lon="5.52175">
        <ele>336</ele>
        <time>2011-02-11T11:53:38Z</time>
      </trkpt>
      <trkpt lat="43.53907" lon="5.52168">
        <ele>335</ele>
        <time>2011-02-11T11:53:48Z</time>
      </trkpt>
      <trkpt lat="43.53919" lon="5.52163">
        <ele>335</ele>
        <time>2011-02-11T11:53:59Z</time>
      </trkpt>
      <trkpt lat="43.5393" lon="5.52158">
        <ele>335</ele>
        <time>2011-02-11T11:54:09Z</time>
      </trkpt>
      <trkpt lat="43.53941" lon="5.52151">
        <ele>334</ele>
        <time>2011-02-11T11:54:20Z</time>
      </trkpt>
      <trkpt lat="43.53952" lon="5.52141">
        <ele>333</ele>
        <time>2011-02-11T11:54:30Z</time>
      </trkpt>
      <trkpt lat="43.53962" lon="5.52134">
        <ele>332</ele>
        <time>2011-02-11T11:54:40Z</time>
      </trkpt>
      <trkpt lat="43.53969" lon="5.52121">
        <ele>332</ele>
        <time>2011-02-11T11:54:50Z</time>
      </trkpt>
      <trkpt lat="43.53976" lon="5.52109">
        <ele>332</ele>
        <time>2011-02-11T11:55:00Z</time>
      </trkpt>
      <trkpt lat="43.53975" lon="5.52093">
        <ele>332</ele>
        <time>2011-02-11T11:55:11Z</time>
      </trkpt>
      <trkpt lat="43.53964" lon="5.52083">
        <ele>333</ele>
        <time>2011-02-11T11:55:22Z</time>
      </trkpt>
      <trkpt lat="43.53954" lon="5.52073">
        <ele>336</ele>
        <time>2011-02-11T11:55:32Z</time>
      </trkpt>
      <trkpt lat="43.53949" lon="5.52058">
        <ele>337</ele>
        <time>2011-02-11T11:55:43Z</time>
      </trkpt>
      <trkpt lat="43.53941" lon="5.52045">
        <ele>338</ele>
        <time>2011-02-11T11:55:53Z</time>
      </trkpt>
      <trkpt lat="43.53931" lon="5.52034">
        <ele>339</ele>
        <time>2011-02-11T11:56:03Z</time>
      </trkpt>
      <trkpt lat="43.53925" lon="5.52021">
        <ele>339</ele>
        <time>2011-02-11T11:56:13Z</time>
      </trkpt>
      <trkpt lat="43.53927" lon="5.52004">
        <ele>339</ele>
        <time>2011-02-11T11:56:23Z</time>
      </trkpt>
      <trkpt lat="43.53937" lon="5.51991">
        <ele>338</ele>
        <time>2011-02-11T11:56:33Z</time>
      </trkpt>
      <trkpt lat="43.5395" lon="5.51983">
        <ele>335</ele>
        <time>2011-02-11T11:56:44Z</time>
      </trkpt>
      <trkpt lat="43.5396" lon="5.51974">
        <ele>333</ele>
        <time>2011-02-11T11:56:54Z</time>
      </trkpt>
      <trkpt lat="43.53972" lon="5.51968">
        <ele>331</ele>
        <time>2011-02-11T11:57:04Z</time>
      </trkpt>
      <trkpt lat="43.53984" lon="5.51964">
        <ele>330</ele>
        <time>2011-02-11T11:57:14Z</time>
      </trkpt>
      <trkpt lat="43.53996" lon="5.5196">
        <ele>330</ele>
        <time>2011-02-11T11:57:25Z</time>
      </trkpt>
      <trkpt lat="43.54006" lon="5.51951">
        <ele>328</ele>
        <time>2011-02-11T11:57:35Z</time>
      </trkpt>
      <trkpt lat="43.54015" lon="5.51942">
        <ele>326</ele>
        <time>2011-02-11T11:57:45Z</time>
      </trkpt>
      <trkpt lat="43.54026" lon="5.51934">
        <ele>320</ele>
        <time>2011-02-11T11:57:55Z</time>
      </trkpt>
      <trkpt lat="43.54034" lon="5.51921">
        <ele>314</ele>
        <time>2011-02-11T11:58:05Z</time>
      </trkpt>
      <trkpt lat="43.54041" lon="5.51906">
        <ele>314</ele>
        <time>2011-02-11T11:58:16Z</time>
      </trkpt>
      <trkpt lat="43.54047" lon="5.51892">
        <ele>313</ele>
        <time>2011-02-11T11:58:27Z</time>
      </trkpt>
      <trkpt lat="43.54047" lon="5.51877">
        <ele>312</ele>
        <time>2011-02-11T11:58:38Z</time>
      </trkpt>
      <trkpt lat="43.54041" lon="5.51861">
        <ele>313</ele>
        <time>2011-02-11T11:58:48Z</time>
      </trkpt>
      <trkpt lat="43.54032" lon="5.51849">
        <ele>318</ele>
        <time>2011-02-11T11:58:58Z</time>
      </trkpt>
      <trkpt lat="43.5402" lon="5.51847">
        <ele>318</ele>
        <time>2011-02-11T11:59:08Z</time>
      </trkpt>
      <trkpt lat="43.54008" lon="5.51845">
        <ele>319</ele>
        <time>2011-02-11T11:59:19Z</time>
      </trkpt>
      <trkpt lat="43.53998" lon="5.51844">
        <ele>321</ele>
        <time>2011-02-11T11:59:29Z</time>
      </trkpt>
      <trkpt lat="43.53986" lon="5.5184">
        <ele>321</ele>
        <time>2011-02-11T11:59:39Z</time>
      </trkpt>
      <trkpt lat="43.53975" lon="5.51832">
        <ele>321</ele>
        <time>2011-02-11T11:59:49Z</time>
      </trkpt>
      <trkpt lat="43.53965" lon="5.51825">
        <ele>321</ele>
        <time>2011-02-11T11:59:59Z</time>
      </trkpt>
      <trkpt lat="43.5396" lon="5.5181">
        <ele>321</ele>
        <time>2011-02-11T12:00:09Z</time>
      </trkpt>
      <trkpt lat="43.53956" lon="5.51793">
        <ele>321</ele>
        <time>2011-02-11T12:00:19Z</time>
      </trkpt>
      <trkpt lat="43.53951" lon="5.51776">
        <ele>321</ele>
        <time>2011-02-11T12:00:29Z</time>
      </trkpt>
      <trkpt lat="43.53945" lon="5.5176">
        <ele>321</ele>
        <time>2011-02-11T12:00:39Z</time>
      </trkpt>
      <trkpt lat="43.53936" lon="5.51746">
        <ele>321</ele>
        <time>2011-02-11T12:00:50Z</time>
      </trkpt>
      <trkpt lat="43.53929" lon="5.51731">
        <ele>321</ele>
        <time>2011-02-11T12:01:00Z</time>
      </trkpt>
      <trkpt lat="43.5392" lon="5.51719">
        <ele>321</ele>
        <time>2011-02-11T12:01:10Z</time>
      </trkpt>
      <trkpt lat="43.5391" lon="5.51711">
        <ele>323</ele>
        <time>2011-02-11T12:01:20Z</time>
      </trkpt>
      <trkpt lat="43.53897" lon="5.51706">
        <ele>323</ele>
        <time>2011-02-11T12:01:30Z</time>
      </trkpt>
      <trkpt lat="43.53884" lon="5.51706">
        <ele>323</ele>
        <time>2011-02-11T12:01:40Z</time>
      </trkpt>
      <trkpt lat="43.53873" lon="5.51698">
        <ele>323</ele>
        <time>2011-02-11T12:01:50Z</time>
      </trkpt>
      <trkpt lat="43.53862" lon="5.51691">
        <ele>323</ele>
        <time>2011-02-11T12:02:01Z</time>
      </trkpt>
      <trkpt lat="43.53851" lon="5.51683">
        <ele>323</ele>
        <time>2011-02-11T12:02:11Z</time>
      </trkpt>
      <trkpt lat="43.53839" lon="5.51678">
        <ele>323</ele>
        <time>2011-02-11T12:02:21Z</time>
      </trkpt>
      <trkpt lat="43.53827" lon="5.51672">
        <ele>323</ele>
        <time>2011-02-11T12:02:31Z</time>
      </trkpt>
      <trkpt lat="43.53814" lon="5.5167">
        <ele>323</ele>
        <time>2011-02-11T12:02:41Z</time>
      </trkpt>
      <trkpt lat="43.53803" lon="5.51661">
        <ele>323</ele>
        <time>2011-02-11T12:02:51Z</time>
      </trkpt>
      <trkpt lat="43.538" lon="5.51646">
        <ele>323</ele>
        <time>2011-02-11T12:03:01Z</time>
      </trkpt>
      <trkpt lat="43.53799" lon="5.51629">
        <ele>323</ele>
        <time>2011-02-11T12:03:11Z</time>
      </trkpt>
      <trkpt lat="43.53794" lon="5.51613">
        <ele>322</ele>
        <time>2011-02-11T12:03:21Z</time>
      </trkpt>
      <trkpt lat="43.53789" lon="5.51596">
        <ele>321</ele>
        <time>2011-02-11T12:03:31Z</time>
      </trkpt>
      <trkpt lat="43.53783" lon="5.51579">
        <ele>321</ele>
        <time>2011-02-11T12:03:42Z</time>
      </trkpt>
      <trkpt lat="43.5377" lon="5.51568">
        <ele>321</ele>
        <time>2011-02-11T12:03:53Z</time>
      </trkpt>
      <trkpt lat="43.5376" lon="5.51557">
        <ele>321</ele>
        <time>2011-02-11T12:04:03Z</time>
      </trkpt>
      <trkpt lat="43.53753" lon="5.51545">
        <ele>321</ele>
        <time>2011-02-11T12:04:13Z</time>
      </trkpt>
      <trkpt lat="43.53745" lon="5.51529">
        <ele>321</ele>
        <time>2011-02-11T12:04:23Z</time>
      </trkpt>
      <trkpt lat="43.53738" lon="5.51516">
        <ele>321</ele>
        <time>2011-02-11T12:04:34Z</time>
      </trkpt>
      <trkpt lat="43.53732" lon="5.515">
        <ele>321</ele>
        <time>2011-02-11T12:04:45Z</time>
      </trkpt>
      <trkpt lat="43.53724" lon="5.51484">
        <ele>321</ele>
        <time>2011-02-11T12:04:55Z</time>
      </trkpt>
      <trkpt lat="43.53718" lon="5.51469">
        <ele>321</ele>
        <time>2011-02-11T12:05:05Z</time>
      </trkpt>
      <trkpt lat="43.53714" lon="5.51453">
        <ele>321</ele>
        <time>2011-02-11T12:05:15Z</time>
      </trkpt>
      <trkpt lat="43.53719" lon="5.5144">
        <ele>321</ele>
        <time>2011-02-11T12:05:25Z</time>
      </trkpt>
      <trkpt lat="43.53727" lon="5.51428">
        <ele>317</ele>
        <time>2011-02-11T12:05:36Z</time>
      </trkpt>
      <trkpt lat="43.53737" lon="5.5142">
        <ele>317</ele>
        <time>2011-02-11T12:05:46Z</time>
      </trkpt>
      <trkpt lat="43.53743" lon="5.51406">
        <ele>317</ele>
        <time>2011-02-11T12:05:56Z</time>
      </trkpt>
      <trkpt lat="43.53737" lon="5.51387">
        <ele>317</ele>
        <time>2011-02-11T12:06:08Z</time>
      </trkpt>
      <trkpt lat="43.53726" lon="5.51379">
        <ele>317</ele>
        <time>2011-02-11T12:06:19Z</time>
      </trkpt>
      <trkpt lat="43.53715" lon="5.51369">
        <ele>317</ele>
        <time>2011-02-11T12:06:29Z</time>
      </trkpt>
      <trkpt lat="43.53703" lon="5.51359">
        <ele>319</ele>
        <time>2011-02-11T12:06:40Z</time>
      </trkpt>
      <trkpt lat="43.53693" lon="5.51348">
        <ele>319</ele>
        <time>2011-02-11T12:06:51Z</time>
      </trkpt>
      <trkpt lat="43.53683" lon="5.51338">
        <ele>319</ele>
        <time>2011-02-11T12:07:02Z</time>
      </trkpt>
      <trkpt lat="43.53679" lon="5.51321">
        <ele>319</ele>
        <time>2011-02-11T12:07:12Z</time>
      </trkpt>
      <trkpt lat="43.53674" lon="5.51305">
        <ele>319</ele>
        <time>2011-02-11T12:07:22Z</time>
      </trkpt>
      <trkpt lat="43.53674" lon="5.51288">
        <ele>319</ele>
        <time>2011-02-11T12:07:32Z</time>
      </trkpt>
      <trkpt lat="43.53675" lon="5.51272">
        <ele>319</ele>
        <time>2011-02-11T12:07:42Z</time>
      </trkpt>
      <trkpt lat="43.53676" lon="5.51257">
        <ele>319</ele>
        <time>2011-02-11T12:07:52Z</time>
      </trkpt>
      <trkpt lat="43.53679" lon="5.5124">
        <ele>319</ele>
        <time>2011-02-11T12:08:02Z</time>
      </trkpt>
      <trkpt lat="43.53682" lon="5.51225">
        <ele>319</ele>
        <time>2011-02-11T12:08:12Z</time>
      </trkpt>
      <trkpt lat="43.53686" lon="5.51209">
        <ele>319</ele>
        <time>2011-02-11T12:08:23Z</time>
      </trkpt>
      <trkpt lat="43.53691" lon="5.51201">
        <ele>319</ele>
        <time>2011-02-11T12:08:34Z</time>
      </trkpt>
      <trkpt lat="43.53699" lon="5.51194">
        <ele>319</ele>
        <time>2011-02-11T12:08:45Z</time>
      </trkpt>
      <trkpt lat="43.53706" lon="5.51188">
        <ele>319</ele>
        <time>2011-02-11T12:08:55Z</time>
      </trkpt>
      <trkpt lat="43.53716" lon="5.51186">
        <ele>315</ele>
        <time>2011-02-11T12:09:05Z</time>
      </trkpt>
      <trkpt lat="43.53725" lon="5.5118">
        <ele>315</ele>
        <time>2011-02-11T12:09:15Z</time>
      </trkpt>
      <trkpt lat="43.53737" lon="5.51174">
        <ele>315</ele>
        <time>2011-02-11T12:09:25Z</time>
      </trkpt>
      <trkpt lat="43.53745" lon="5.51159">
        <ele>315</ele>
        <time>2011-02-11T12:09:35Z</time>
      </trkpt>
      <trkpt lat="43.53749" lon="5.51145">
        <ele>313</ele>
        <time>2011-02-11T12:09:45Z</time>
      </trkpt>
      <trkpt lat="43.5374" lon="5.51135">
        <ele>312</ele>
        <time>2011-02-11T12:09:56Z</time>
      </trkpt>
      <trkpt lat="43.53728" lon="5.51126">
        <ele>312</ele>
        <time>2011-02-11T12:10:06Z</time>
      </trkpt>
      <trkpt lat="43.53718" lon="5.51114">
        <ele>314</ele>
        <time>2011-02-11T12:10:16Z</time>
      </trkpt>
      <trkpt lat="43.53711" lon="5.51101">
        <ele>314</ele>
        <time>2011-02-11T12:10:26Z</time>
      </trkpt>
      <trkpt lat="43.53703" lon="5.5109">
        <ele>314</ele>
        <time>2011-02-11T12:10:36Z</time>
      </trkpt>
      <trkpt lat="43.53693" lon="5.51084">
        <ele>314</ele>
        <time>2011-02-11T12:10:46Z</time>
      </trkpt>
      <trkpt lat="43.53681" lon="5.51081">
        <ele>314</ele>
        <time>2011-02-11T12:10:58Z</time>
      </trkpt>
      <trkpt lat="43.53672" lon="5.51072">
        <ele>314</ele>
        <time>2011-02-11T12:11:09Z</time>
      </trkpt>
      <trkpt lat="43.53663" lon="5.51069">
        <ele>314</ele>
        <time>2011-02-11T12:11:20Z</time>
      </trkpt>
      <trkpt lat="43.53654" lon="5.51065">
        <ele>314</ele>
        <time>2011-02-11T12:11:31Z</time>
      </trkpt>
      <trkpt lat="43.53645" lon="5.51058">
        <ele>312</ele>
        <time>2011-02-11T12:11:42Z</time>
      </trkpt>
      <trkpt lat="43.53637" lon="5.51056">
        <ele>309</ele>
        <time>2011-02-11T12:11:53Z</time>
      </trkpt>
      <trkpt lat="43.5363" lon="5.51056">
        <ele>307</ele>
        <time>2011-02-11T12:12:03Z</time>
      </trkpt>
      <trkpt lat="43.5362" lon="5.51061">
        <ele>306</ele>
        <time>2011-02-11T12:12:14Z</time>
      </trkpt>
      <trkpt lat="43.5361" lon="5.51066">
        <ele>306</ele>
        <time>2011-02-11T12:12:26Z</time>
      </trkpt>
      <trkpt lat="43.53599" lon="5.51069">
        <ele>303</ele>
        <time>2011-02-11T12:12:38Z</time>
      </trkpt>
      <trkpt lat="43.53588" lon="5.51076">
        <ele>301</ele>
        <time>2011-02-11T12:12:50Z</time>
      </trkpt>
      <trkpt lat="43.53582" lon="5.51082">
        <ele>299</ele>
        <time>2011-02-11T12:13:00Z</time>
      </trkpt>
      <trkpt lat="43.53576" lon="5.51091">
        <ele>297</ele>
        <time>2011-02-11T12:13:12Z</time>
      </trkpt>
      <trkpt lat="43.53566" lon="5.511">
        <ele>296</ele>
        <time>2011-02-11T12:13:24Z</time>
      </trkpt>
      <trkpt lat="43.5356" lon="5.51108">
        <ele>295</ele>
        <time>2011-02-11T12:13:35Z</time>
      </trkpt>
      <trkpt lat="43.53554" lon="5.51119">
        <ele>293</ele>
        <time>2011-02-11T12:13:46Z</time>
      </trkpt>
      <trkpt lat="43.53546" lon="5.51134">
        <ele>291</ele>
        <time>2011-02-11T12:13:58Z</time>
      </trkpt>
      <trkpt lat="43.53537" lon="5.51149">
        <ele>290</ele>
        <time>2011-02-11T12:14:10Z</time>
      </trkpt>
      <trkpt lat="43.53531" lon="5.51161">
        <ele>289</ele>
        <time>2011-02-11T12:14:20Z</time>
      </trkpt>
      <trkpt lat="43.53525" lon="5.51174">
        <ele>288</ele>
        <time>2011-02-11T12:14:30Z</time>
      </trkpt>
      <trkpt lat="43.53519" lon="5.51188">
        <ele>287</ele>
        <time>2011-02-11T12:14:41Z</time>
      </trkpt>
      <trkpt lat="43.5351" lon="5.51198">
        <ele>286</ele>
        <time>2011-02-11T12:14:52Z</time>
      </trkpt>
      <trkpt lat="43.53502" lon="5.51208">
        <ele>284</ele>
        <time>2011-02-11T12:15:02Z</time>
      </trkpt>
      <trkpt lat="43.53504" lon="5.51222">
        <ele>282</ele>
        <time>2011-02-11T12:15:12Z</time>
      </trkpt>
      <trkpt lat="43.53511" lon="5.51236">
        <ele>280</ele>
        <time>2011-02-11T12:15:23Z</time>
      </trkpt>
      <trkpt lat="43.53513" lon="5.5125">
        <ele>277</ele>
        <time>2011-02-11T12:15:33Z</time>
      </trkpt>
      <trkpt lat="43.53509" lon="5.51265">
        <ele>276</ele>
        <time>2011-02-11T12:15:43Z</time>
      </trkpt>
      <trkpt lat="43.53502" lon="5.51277">
        <ele>276</ele>
        <time>2011-02-11T12:15:53Z</time>
      </trkpt>
      <trkpt lat="43.5349" lon="5.51287">
        <ele>275</ele>
        <time>2011-02-11T12:16:05Z</time>
      </trkpt>
      <trkpt lat="43.53477" lon="5.51286">
        <ele>274</ele>
        <time>2011-02-11T12:16:17Z</time>
      </trkpt>
      <trkpt lat="43.53466" lon="5.51281">
        <ele>272</ele>
        <time>2011-02-11T12:16:28Z</time>
      </trkpt>
      <trkpt lat="43.53456" lon="5.5127">
        <ele>271</ele>
        <time>2011-02-11T12:16:40Z</time>
      </trkpt>
      <trkpt lat="43.53446" lon="5.51257">
        <ele>271</ele>
        <time>2011-02-11T12:16:51Z</time>
      </trkpt>
      <trkpt lat="43.53438" lon="5.51241">
        <ele>271</ele>
        <time>2011-02-11T12:17:02Z</time>
      </trkpt>
      <trkpt lat="43.53427" lon="5.51232">
        <ele>270</ele>
        <time>2011-02-11T12:17:14Z</time>
      </trkpt>
      <trkpt lat="43.53417" lon="5.51243">
        <ele>269</ele>
        <time>2011-02-11T12:17:26Z</time>
      </trkpt>
      <trkpt lat="43.5341" lon="5.51256">
        <ele>269</ele>
        <time>2011-02-11T12:17:36Z</time>
      </trkpt>
      <trkpt lat="43.53404" lon="5.51269">
        <ele>268</ele>
        <time>2011-02-11T12:17:47Z</time>
      </trkpt>
      <trkpt lat="43.53399" lon="5.51283">
        <ele>266</ele>
        <time>2011-02-11T12:17:57Z</time>
      </trkpt>
      <trkpt lat="43.53391" lon="5.51291">
        <ele>263</ele>
        <time>2011-02-11T12:18:07Z</time>
      </trkpt>
      <trkpt lat="43.53378" lon="5.51293">
        <ele>262</ele>
        <time>2011-02-11T12:18:18Z</time>
      </trkpt>
      <trkpt lat="43.53366" lon="5.51295">
        <ele>262</ele>
        <time>2011-02-11T12:18:29Z</time>
      </trkpt>
      <trkpt lat="43.53355" lon="5.51298">
        <ele>262</ele>
        <time>2011-02-11T12:18:39Z</time>
      </trkpt>
      <trkpt lat="43.53343" lon="5.51302">
        <ele>262</ele>
        <time>2011-02-11T12:18:49Z</time>
      </trkpt>
      <trkpt lat="43.5333" lon="5.51302">
        <ele>261</ele>
        <time>2011-02-11T12:19:00Z</time>
      </trkpt>
      <trkpt lat="43.53318" lon="5.51302">
        <ele>261</ele>
        <time>2011-02-11T12:19:10Z</time>
      </trkpt>
      <trkpt lat="43.53307" lon="5.51301">
        <ele>260</ele>
        <time>2011-02-11T12:19:20Z</time>
      </trkpt>
      <trkpt lat="43.53295" lon="5.51299">
        <ele>260</ele>
        <time>2011-02-11T12:19:31Z</time>
      </trkpt>
      <trkpt lat="43.53289" lon="5.51286">
        <ele>260</ele>
        <time>2011-02-11T12:19:42Z</time>
      </trkpt>
      <trkpt lat="43.53284" lon="5.51272">
        <ele>260</ele>
        <time>2011-02-11T12:19:54Z</time>
      </trkpt>
      <trkpt lat="43.53278" lon="5.51262">
        <ele>259</ele>
        <time>2011-02-11T12:20:06Z</time>
      </trkpt>
      <trkpt lat="43.53277" lon="5.51255">
        <ele>258</ele>
        <time>2011-02-11T12:20:16Z</time>
      </trkpt>
      <trkpt lat="43.53276" lon="5.51242">
        <ele>256</ele>
        <time>2011-02-11T12:20:27Z</time>
      </trkpt>
      <trkpt lat="43.53276" lon="5.51232">
        <ele>256</ele>
        <time>2011-02-11T12:20:37Z</time>
      </trkpt>
      <trkpt lat="43.53272" lon="5.51219">
        <ele>253</ele>
        <time>2011-02-11T12:20:49Z</time>
      </trkpt>
      <trkpt lat="43.53264" lon="5.51219">
        <ele>252</ele>
        <time>2011-02-11T12:20:59Z</time>
      </trkpt>
      <trkpt lat="43.53262" lon="5.5122">
        <ele>252</ele>
        <time>2011-02-11T12:21:15Z</time>
      </trkpt>
      <trkpt lat="43.53261" lon="5.5122">
        <ele>252</ele>
        <time>2011-02-11T12:21:30Z</time>
      </trkpt>
      <trkpt lat="43.53262" lon="5.51221">
        <ele>252</ele>
        <time>2011-02-11T12:21:53Z</time>
      </trkpt>
      <trkpt lat="43.53262" lon="5.51223">
        <ele>252</ele>
        <time>2011-02-11T12:22:04Z</time>
      </trkpt>
      <trkpt lat="43.53262" lon="5.51229">
        <ele>252</ele>
        <time>2011-02-11T12:22:14Z</time>
      </trkpt>
      <trkpt lat="43.53262" lon="5.51227">
        <ele>252</ele>
        <time>2011-02-11T12:22:26Z</time>
      </trkpt>
      <trkpt lat="43.53263" lon="5.51226">
        <ele>252</ele>
        <time>2011-02-11T12:22:46Z</time>
      </trkpt>
      <trkpt lat="43.53263" lon="5.51224">
        <ele>252</ele>
        <time>2011-02-11T12:23:17Z</time>
      </trkpt>
      <trkpt lat="43.53262" lon="5.51223">
        <ele>252</ele>
        <time>2011-02-11T12:23:41Z</time>
      </trkpt>
      <trkpt lat="43.53262" lon="5.51217">
        <ele>253</ele>
        <time>2011-02-11T12:23:58Z</time>
      </trkpt>
      <trkpt lat="43.53262" lon="5.51216">
        <ele>253</ele>
        <time>2011-02-11T12:24:08Z</time>
      </trkpt>
      <trkpt lat="43.53264" lon="5.51217">
        <ele>253</ele>
        <time>2011-02-11T12:24:22Z</time>
      </trkpt>
      <trkpt lat="43.53264" lon="5.51218">
        <ele>253</ele>
        <time>2011-02-11T12:24:32Z</time>
      </trkpt>
      <trkpt lat="43.53265" lon="5.51219">
        <ele>253</ele>
        <time>2011-02-11T12:25:06Z</time>
      </trkpt>
      <trkpt lat="43.53265" lon="5.51212">
        <ele>253</ele>
        <time>2011-02-11T12:25:17Z</time>
      </trkpt>
      <trkpt lat="43.53264" lon="5.51201">
        <ele>253</ele>
        <time>2011-02-11T12:25:27Z</time>
      </trkpt>
      <trkpt lat="43.53267" lon="5.51194">
        <ele>252</ele>
        <time>2011-02-11T12:25:37Z</time>
      </trkpt>
      <trkpt lat="43.5327" lon="5.51188">
        <ele>250</ele>
        <time>2011-02-11T12:25:49Z</time>
      </trkpt>
      <trkpt lat="43.53273" lon="5.51182">
        <ele>249</ele>
        <time>2011-02-11T12:26:02Z</time>
      </trkpt>
      <trkpt lat="43.53277" lon="5.51178">
        <ele>247</ele>
        <time>2011-02-11T12:26:12Z</time>
      </trkpt>
      <trkpt lat="43.53282" lon="5.51172">
        <ele>246</ele>
        <time>2011-02-11T12:26:25Z</time>
      </trkpt>
      <trkpt lat="43.53283" lon="5.51179">
        <ele>243</ele>
        <time>2011-02-11T12:26:51Z</time>
      </trkpt>
      <trkpt lat="43.53283" lon="5.5118">
        <ele>243</ele>
        <time>2011-02-11T12:27:02Z</time>
      </trkpt>
      <trkpt lat="43.53282" lon="5.51182">
        <ele>243</ele>
        <time>2011-02-11T12:27:16Z</time>
      </trkpt>
      <trkpt lat="43.53281" lon="5.5118">
        <ele>243</ele>
        <time>2011-02-11T12:27:46Z</time>
      </trkpt>
      <trkpt lat="43.53276" lon="5.51168">
        <ele>243</ele>
        <time>2011-02-11T12:27:57Z</time>
      </trkpt>
      <trkpt lat="43.53267" lon="5.51157">
        <ele>242</ele>
        <time>2011-02-11T12:28:09Z</time>
      </trkpt>
      <trkpt lat="43.53257" lon="5.5115">
        <ele>241</ele>
        <time>2011-02-11T12:28:21Z</time>
      </trkpt>
      <trkpt lat="43.53257" lon="5.51149">
        <ele>240</ele>
        <time>2011-02-11T12:28:42Z</time>
      </trkpt>
      <trkpt lat="43.53257" lon="5.51138">
        <ele>239</ele>
        <time>2011-02-11T12:28:52Z</time>
      </trkpt>
      <trkpt lat="43.53248" lon="5.51135">
        <ele>239</ele>
        <time>2011-02-11T12:29:09Z</time>
      </trkpt>
      <trkpt lat="43.53241" lon="5.5114">
        <ele>239</ele>
        <time>2011-02-11T12:29:24Z</time>
      </trkpt>
      <trkpt lat="43.53242" lon="5.51139">
        <ele>239</ele>
        <time>2011-02-11T12:29:37Z</time>
      </trkpt>
      <trkpt lat="43.53242" lon="5.5114">
        <ele>239</ele>
        <time>2011-02-11T12:29:53Z</time>
      </trkpt>
      <trkpt lat="43.53241" lon="5.51141">
        <ele>239</ele>
        <time>2011-02-11T12:30:05Z</time>
      </trkpt>
      <trkpt lat="43.53239" lon="5.51142">
        <ele>239</ele>
        <time>2011-02-11T12:30:19Z</time>
      </trkpt>
      <trkpt lat="43.53239" lon="5.51141">
        <ele>239</ele>
        <time>2011-02-11T12:31:14Z</time>
      </trkpt>
      <trkpt lat="43.53242" lon="5.51139">
        <ele>239</ele>
        <time>2011-02-11T12:31:27Z</time>
      </trkpt>
      <trkpt lat="43.53238" lon="5.51137">
        <ele>239</ele>
        <time>2011-02-11T12:31:39Z</time>
      </trkpt>
      <trkpt lat="43.53239" lon="5.51138">
        <ele>239</ele>
        <time>2011-02-11T12:32:14Z</time>
      </trkpt>
      <trkpt lat="43.53237" lon="5.51139">
        <ele>239</ele>
        <time>2011-02-11T12:32:25Z</time>
      </trkpt>
      <trkpt lat="43.53236" lon="5.51139">
        <ele>239</ele>
        <time>2011-02-11T12:32:42Z</time>
      </trkpt>
      <trkpt lat="43.53243" lon="5.51141">
        <ele>239</ele>
        <time>2011-02-11T12:32:52Z</time>
      </trkpt>
      <trkpt lat="43.53242" lon="5.51139">
        <ele>239</ele>
        <time>2011-02-11T12:33:23Z</time>
      </trkpt>
      <trkpt lat="43.53247" lon="5.51135">
        <ele>239</ele>
        <time>2011-02-11T12:33:34Z</time>
      </trkpt>
      <trkpt lat="43.53254" lon="5.51134">
        <ele>239</ele>
        <time>2011-02-11T12:33:44Z</time>
      </trkpt>
      <trkpt lat="43.5326" lon="5.51139">
        <ele>239</ele>
        <time>2011-02-11T12:33:54Z</time>
      </trkpt>
      <trkpt lat="43.53268" lon="5.51149">
        <ele>239</ele>
        <time>2011-02-11T12:34:06Z</time>
      </trkpt>
      <trkpt lat="43.53274" lon="5.51161">
        <ele>239</ele>
        <time>2011-02-11T12:34:18Z</time>
      </trkpt>
      <trkpt lat="43.53281" lon="5.51171">
        <ele>239</ele>
        <time>2011-02-11T12:34:31Z</time>
      </trkpt>
      <trkpt lat="43.5329" lon="5.51181">
        <ele>240</ele>
        <time>2011-02-11T12:34:43Z</time>
      </trkpt>
      <trkpt lat="43.533" lon="5.51182">
        <ele>241</ele>
        <time>2011-02-11T12:34:54Z</time>
      </trkpt>
      <trkpt lat="43.53309" lon="5.51177">
        <ele>241</ele>
        <time>2011-02-11T12:35:04Z</time>
      </trkpt>
      <trkpt lat="43.53313" lon="5.51165">
        <ele>241</ele>
        <time>2011-02-11T12:35:14Z</time>
      </trkpt>
      <trkpt lat="43.53313" lon="5.51151">
        <ele>241</ele>
        <time>2011-02-11T12:35:26Z</time>
      </trkpt>
      <trkpt lat="43.53311" lon="5.51136">
        <ele>241</ele>
        <time>2011-02-11T12:35:37Z</time>
      </trkpt>
      <trkpt lat="43.5331" lon="5.51122">
        <ele>239</ele>
        <time>2011-02-11T12:35:47Z</time>
      </trkpt>
      <trkpt lat="43.53307" lon="5.51108">
        <ele>237</ele>
        <time>2011-02-11T12:35:57Z</time>
      </trkpt>
      <trkpt lat="43.53306" lon="5.51094">
        <ele>233</ele>
        <time>2011-02-11T12:36:07Z</time>
      </trkpt>
      <trkpt lat="43.53311" lon="5.51083">
        <ele>230</ele>
        <time>2011-02-11T12:36:18Z</time>
      </trkpt>
      <trkpt lat="43.53322" lon="5.51073">
        <ele>229</ele>
        <time>2011-02-11T12:36:29Z</time>
      </trkpt>
      <trkpt lat="43.53326" lon="5.51059">
        <ele>228</ele>
        <time>2011-02-11T12:36:39Z</time>
      </trkpt>
      <trkpt lat="43.53328" lon="5.51043">
        <ele>228</ele>
        <time>2011-02-11T12:36:49Z</time>
      </trkpt>
      <trkpt lat="43.53325" lon="5.51028">
        <ele>226</ele>
        <time>2011-02-11T12:36:59Z</time>
      </trkpt>
      <trkpt lat="43.5332" lon="5.51013">
        <ele>224</ele>
        <time>2011-02-11T12:37:09Z</time>
      </trkpt>
      <trkpt lat="43.5332" lon="5.50998">
        <ele>220</ele>
        <time>2011-02-11T12:37:19Z</time>
      </trkpt>
      <trkpt lat="43.53319" lon="5.50983">
        <ele>217</ele>
        <time>2011-02-11T12:37:29Z</time>
      </trkpt>
      <trkpt lat="43.53317" lon="5.50965">
        <ele>217</ele>
        <time>2011-02-11T12:37:40Z</time>
      </trkpt>
      <trkpt lat="43.53315" lon="5.5095">
        <ele>215</ele>
        <time>2011-02-11T12:37:50Z</time>
      </trkpt>
      <trkpt lat="43.53312" lon="5.50935">
        <ele>211</ele>
        <time>2011-02-11T12:38:00Z</time>
      </trkpt>
      <trkpt lat="43.53308" lon="5.50919">
        <ele>211</ele>
        <time>2011-02-11T12:38:10Z</time>
      </trkpt>
      <trkpt lat="43.53303" lon="5.50904">
        <ele>209</ele>
        <time>2011-02-11T12:38:20Z</time>
      </trkpt>
      <trkpt lat="43.53298" lon="5.5089">
        <ele>208</ele>
        <time>2011-02-11T12:38:30Z</time>
      </trkpt>
      <trkpt lat="43.53292" lon="5.50876">
        <ele>208</ele>
        <time>2011-02-11T12:38:40Z</time>
      </trkpt>
      <trkpt lat="43.53282" lon="5.50866">
        <ele>208</ele>
        <time>2011-02-11T12:38:51Z</time>
      </trkpt>
      <trkpt lat="43.53275" lon="5.50862">
        <ele>206</ele>
        <time>2011-02-11T12:39:07Z</time>
      </trkpt>
      <trkpt lat="43.53274" lon="5.50861">
        <ele>206</ele>
        <time>2011-02-11T12:39:18Z</time>
      </trkpt>
      <trkpt lat="43.53274" lon="5.50855">
        <ele>206</ele>
        <time>2011-02-11T12:39:40Z</time>
      </trkpt>
      <trkpt lat="43.5327" lon="5.50852">
        <ele>206</ele>
        <time>2011-02-11T12:39:55Z</time>
      </trkpt>
      <trkpt lat="43.53268" lon="5.50854">
        <ele>206</ele>
        <time>2011-02-11T12:40:09Z</time>
      </trkpt>
      <trkpt lat="43.53265" lon="5.50854">
        <ele>212</ele>
        <time>2011-02-11T12:40:25Z</time>
      </trkpt>
      <trkpt lat="43.53263" lon="5.50855">
        <ele>213</ele>
        <time>2011-02-11T12:40:41Z</time>
      </trkpt>
      <trkpt lat="43.53255" lon="5.50861">
        <ele>214</ele>
        <time>2011-02-11T12:40:52Z</time>
      </trkpt>
      <trkpt lat="43.53245" lon="5.50862">
        <ele>214</ele>
        <time>2011-02-11T12:41:02Z</time>
      </trkpt>
      <trkpt lat="43.53235" lon="5.50863">
        <ele>214</ele>
        <time>2011-02-11T12:41:12Z</time>
      </trkpt>
      <trkpt lat="43.53224" lon="5.50863">
        <ele>216</ele>
        <time>2011-02-11T12:41:22Z</time>
      </trkpt>
      <trkpt lat="43.53213" lon="5.50862">
        <ele>218</ele>
        <time>2011-02-11T12:41:32Z</time>
      </trkpt>
      <trkpt lat="43.53204" lon="5.50861">
        <ele>219</ele>
        <time>2011-02-11T12:41:42Z</time>
      </trkpt>
      <trkpt lat="43.53194" lon="5.50862">
        <ele>221</ele>
        <time>2011-02-11T12:41:52Z</time>
      </trkpt>
      <trkpt lat="43.53185" lon="5.50863">
        <ele>223</ele>
        <time>2011-02-11T12:42:02Z</time>
      </trkpt>
      <trkpt lat="43.53175" lon="5.50862">
        <ele>225</ele>
        <time>2011-02-11T12:42:12Z</time>
      </trkpt>
      <trkpt lat="43.53166" lon="5.50858">
        <ele>227</ele>
        <time>2011-02-11T12:42:22Z</time>
      </trkpt>
      <trkpt lat="43.53156" lon="5.50853">
        <ele>228</ele>
        <time>2011-02-11T12:42:32Z</time>
      </trkpt>
      <trkpt lat="43.53147" lon="5.50846">
        <ele>231</ele>
        <time>2011-02-11T12:42:42Z</time>
      </trkpt>
      <trkpt lat="43.53138" lon="5.50838">
        <ele>232</ele>
        <time>2011-02-11T12:42:52Z</time>
      </trkpt>
      <trkpt lat="43.53129" lon="5.50831">
        <ele>233</ele>
        <time>2011-02-11T12:43:02Z</time>
      </trkpt>
      <trkpt lat="43.5312" lon="5.50825">
        <ele>235</ele>
        <time>2011-02-11T12:43:12Z</time>
      </trkpt>
      <trkpt lat="43.53111" lon="5.50818">
        <ele>236</ele>
        <time>2011-02-11T12:43:22Z</time>
      </trkpt>
      <trkpt lat="43.53101" lon="5.50811">
        <ele>238</ele>
        <time>2011-02-11T12:43:32Z</time>
      </trkpt>
      <trkpt lat="43.53094" lon="5.50802">
        <ele>240</ele>
        <time>2011-02-11T12:43:42Z</time>
      </trkpt>
      <trkpt lat="43.53087" lon="5.50793">
        <ele>242</ele>
        <time>2011-02-11T12:43:52Z</time>
      </trkpt>
      <trkpt lat="43.5308" lon="5.50784">
        <ele>244</ele>
        <time>2011-02-11T12:44:02Z</time>
      </trkpt>
      <trkpt lat="43.53075" lon="5.50775">
        <ele>245</ele>
        <time>2011-02-11T12:44:12Z</time>
      </trkpt>
      <trkpt lat="43.53068" lon="5.50764">
        <ele>247</ele>
        <time>2011-02-11T12:44:22Z</time>
      </trkpt>
      <trkpt lat="43.53059" lon="5.50755">
        <ele>249</ele>
        <time>2011-02-11T12:44:32Z</time>
      </trkpt>
      <trkpt lat="43.53051" lon="5.50746">
        <ele>251</ele>
        <time>2011-02-11T12:44:42Z</time>
      </trkpt>
      <trkpt lat="43.53039" lon="5.50742">
        <ele>254</ele>
        <time>2011-02-11T12:44:52Z</time>
      </trkpt>
      <trkpt lat="43.53026" lon="5.50741">
        <ele>255</ele>
        <time>2011-02-11T12:45:02Z</time>
      </trkpt>
      <trkpt lat="43.53012" lon="5.50739">
        <ele>258</ele>
        <time>2011-02-11T12:45:12Z</time>
      </trkpt>
      <trkpt lat="43.52998" lon="5.50736">
        <ele>261</ele>
        <time>2011-02-11T12:45:23Z</time>
      </trkpt>
      <trkpt lat="43.52985" lon="5.50728">
        <ele>262</ele>
        <time>2011-02-11T12:45:33Z</time>
      </trkpt>
      <trkpt lat="43.52975" lon="5.50721">
        <ele>263</ele>
        <time>2011-02-11T12:45:43Z</time>
      </trkpt>
      <trkpt lat="43.52963" lon="5.50721">
        <ele>267</ele>
        <time>2011-02-11T12:45:53Z</time>
      </trkpt>
      <trkpt lat="43.52954" lon="5.50729">
        <ele>270</ele>
        <time>2011-02-11T12:46:03Z</time>
      </trkpt>
      <trkpt lat="43.52943" lon="5.50742">
        <ele>270</ele>
        <time>2011-02-11T12:46:13Z</time>
      </trkpt>
      <trkpt lat="43.52931" lon="5.50741">
        <ele>271</ele>
        <time>2011-02-11T12:46:23Z</time>
      </trkpt>
      <trkpt lat="43.52922" lon="5.50725">
        <ele>272</ele>
        <time>2011-02-11T12:46:33Z</time>
      </trkpt>
      <trkpt lat="43.52913" lon="5.50708">
        <ele>273</ele>
        <time>2011-02-11T12:46:43Z</time>
      </trkpt>
      <trkpt lat="43.52902" lon="5.50692">
        <ele>273</ele>
        <time>2011-02-11T12:46:53Z</time>
      </trkpt>
      <trkpt lat="43.52891" lon="5.50678">
        <ele>274</ele>
        <time>2011-02-11T12:47:03Z</time>
      </trkpt>
      <trkpt lat="43.52881" lon="5.50663">
        <ele>277</ele>
        <time>2011-02-11T12:47:13Z</time>
      </trkpt>
      <trkpt lat="43.5288" lon="5.50643">
        <ele>277</ele>
        <time>2011-02-11T12:47:23Z</time>
      </trkpt>
      <trkpt lat="43.52879" lon="5.50625">
        <ele>277</ele>
        <time>2011-02-11T12:47:34Z</time>
      </trkpt>
      <trkpt lat="43.52875" lon="5.50617">
        <ele>278</ele>
        <time>2011-02-11T12:48:01Z</time>
      </trkpt>
      <trkpt lat="43.52871" lon="5.50616">
        <ele>278</ele>
        <time>2011-02-11T12:48:15Z</time>
      </trkpt>
      <trkpt lat="43.52866" lon="5.50606">
        <ele>278</ele>
        <time>2011-02-11T12:48:25Z</time>
      </trkpt>
      <trkpt lat="43.52856" lon="5.50597">
        <ele>278</ele>
        <time>2011-02-11T12:48:35Z</time>
      </trkpt>
      <trkpt lat="43.52845" lon="5.50585">
        <ele>278</ele>
        <time>2011-02-11T12:48:46Z</time>
      </trkpt>
      <trkpt lat="43.52836" lon="5.50575">
        <ele>276</ele>
        <time>2011-02-11T12:48:56Z</time>
      </trkpt>
      <trkpt lat="43.52828" lon="5.50562">
        <ele>274</ele>
        <time>2011-02-11T12:49:07Z</time>
      </trkpt>
      <trkpt lat="43.52821" lon="5.50549">
        <ele>272</ele>
        <time>2011-02-11T12:49:17Z</time>
      </trkpt>
      <trkpt lat="43.52813" lon="5.50536">
        <ele>271</ele>
        <time>2011-02-11T12:49:30Z</time>
      </trkpt>
      <trkpt lat="43.52806" lon="5.50524">
        <ele>270</ele>
        <time>2011-02-11T12:49:40Z</time>
      </trkpt>
      <trkpt lat="43.528" lon="5.50513">
        <ele>269</ele>
        <time>2011-02-11T12:49:50Z</time>
      </trkpt>
      <trkpt lat="43.52795" lon="5.50498">
        <ele>268</ele>
        <time>2011-02-11T12:50:01Z</time>
      </trkpt>
      <trkpt lat="43.52789" lon="5.50485">
        <ele>267</ele>
        <time>2011-02-11T12:50:11Z</time>
      </trkpt>
      <trkpt lat="43.52783" lon="5.50469">
        <ele>266</ele>
        <time>2011-02-11T12:50:22Z</time>
      </trkpt>
      <trkpt lat="43.52782" lon="5.50454">
        <ele>266</ele>
        <time>2011-02-11T12:50:32Z</time>
      </trkpt>
      <trkpt lat="43.52782" lon="5.50438">
        <ele>264</ele>
        <time>2011-02-11T12:50:42Z</time>
      </trkpt>
      <trkpt lat="43.52781" lon="5.50423">
        <ele>262</ele>
        <time>2011-02-11T12:50:52Z</time>
      </trkpt>
      <trkpt lat="43.52777" lon="5.50409">
        <ele>261</ele>
        <time>2011-02-11T12:51:03Z</time>
      </trkpt>
      <trkpt lat="43.52765" lon="5.50409">
        <ele>258</ele>
        <time>2011-02-11T12:51:14Z</time>
      </trkpt>
      <trkpt lat="43.52755" lon="5.50414">
        <ele>255</ele>
        <time>2011-02-11T12:51:24Z</time>
      </trkpt>
      <trkpt lat="43.52746" lon="5.5042">
        <ele>253</ele>
        <time>2011-02-11T12:51:34Z</time>
      </trkpt>
      <trkpt lat="43.52737" lon="5.5043">
        <ele>252</ele>
        <time>2011-02-11T12:51:44Z</time>
      </trkpt>
      <trkpt lat="43.5273" lon="5.50443">
        <ele>251</ele>
        <time>2011-02-11T12:51:55Z</time>
      </trkpt>
      <trkpt lat="43.52723" lon="5.50453">
        <ele>250</ele>
        <time>2011-02-11T12:52:05Z</time>
      </trkpt>
      <trkpt lat="43.52714" lon="5.50458">
        <ele>249</ele>
        <time>2011-02-11T12:52:15Z</time>
      </trkpt>
      <trkpt lat="43.52706" lon="5.5045">
        <ele>246</ele>
        <time>2011-02-11T12:52:25Z</time>
      </trkpt>
      <trkpt lat="43.52697" lon="5.50436">
        <ele>244</ele>
        <time>2011-02-11T12:52:36Z</time>
      </trkpt>
      <trkpt lat="43.52689" lon="5.50425">
        <ele>243</ele>
        <time>2011-02-11T12:52:46Z</time>
      </trkpt>
      <trkpt lat="43.52676" lon="5.50427">
        <ele>241</ele>
        <time>2011-02-11T12:52:57Z</time>
      </trkpt>
      <trkpt lat="43.52673" lon="5.50425">
        <ele>241</ele>
        <time>2011-02-11T12:53:07Z</time>
      </trkpt>
      <trkpt lat="43.52665" lon="5.50422">
        <ele>241</ele>
        <time>2011-02-11T12:53:17Z</time>
      </trkpt>
      <trkpt lat="43.52662" lon="5.5042">
        <ele>241</ele>
        <time>2011-02-11T12:53:51Z</time>
      </trkpt>
      <trkpt lat="43.52662" lon="5.50421">
        <ele>241</ele>
        <time>2011-02-11T12:54:48Z</time>
      </trkpt>
      <trkpt lat="43.52669" lon="5.50428">
        <ele>241</ele>
        <time>2011-02-11T12:54:59Z</time>
      </trkpt>
      <trkpt lat="43.52661" lon="5.50433">
        <ele>241</ele>
        <time>2011-02-11T12:55:09Z</time>
      </trkpt>
      <trkpt lat="43.52651" lon="5.50431">
        <ele>238</ele>
        <time>2011-02-11T12:55:19Z</time>
      </trkpt>
      <trkpt lat="43.52642" lon="5.50431">
        <ele>236</ele>
        <time>2011-02-11T12:55:29Z</time>
      </trkpt>
      <trkpt lat="43.52632" lon="5.50432">
        <ele>234</ele>
        <time>2011-02-11T12:55:40Z</time>
      </trkpt>
      <trkpt lat="43.52623" lon="5.50432">
        <ele>230</ele>
        <time>2011-02-11T12:55:50Z</time>
      </trkpt>
      <trkpt lat="43.52613" lon="5.50432">
        <ele>230</ele>
        <time>2011-02-11T12:56:00Z</time>
      </trkpt>
      <trkpt lat="43.52603" lon="5.50431">
        <ele>229</ele>
        <time>2011-02-11T12:56:10Z</time>
      </trkpt>
      <trkpt lat="43.52593" lon="5.50429">
        <ele>228</ele>
        <time>2011-02-11T12:56:20Z</time>
      </trkpt>
      <trkpt lat="43.52581" lon="5.50428">
        <ele>227</ele>
        <time>2011-02-11T12:56:31Z</time>
      </trkpt>
      <trkpt lat="43.52571" lon="5.50426">
        <ele>225</ele>
        <time>2011-02-11T12:56:41Z</time>
      </trkpt>
      <trkpt lat="43.52559" lon="5.50421">
        <ele>223</ele>
        <time>2011-02-11T12:56:52Z</time>
      </trkpt>
      <trkpt lat="43.52548" lon="5.50418">
        <ele>221</ele>
        <time>2011-02-11T12:57:03Z</time>
      </trkpt>
      <trkpt lat="43.52536" lon="5.50418">
        <ele>219</ele>
        <time>2011-02-11T12:57:14Z</time>
      </trkpt>
      <trkpt lat="43.52526" lon="5.50417">
        <ele>217</ele>
        <time>2011-02-11T12:57:24Z</time>
      </trkpt>
      <trkpt lat="43.52515" lon="5.50419">
        <ele>214</ele>
        <time>2011-02-11T12:57:35Z</time>
      </trkpt>
      <trkpt lat="43.52505" lon="5.50416">
        <ele>212</ele>
        <time>2011-02-11T12:57:45Z</time>
      </trkpt>
      <trkpt lat="43.52493" lon="5.50407">
        <ele>210</ele>
        <time>2011-02-11T12:57:56Z</time>
      </trkpt>
      <trkpt lat="43.52483" lon="5.50401">
        <ele>207</ele>
        <time>2011-02-11T12:58:06Z</time>
      </trkpt>
      <trkpt lat="43.52474" lon="5.50405">
        <ele>206</ele>
        <time>2011-02-11T12:58:16Z</time>
      </trkpt>
      <trkpt lat="43.52462" lon="5.50409">
        <ele>205</ele>
        <time>2011-02-11T12:58:27Z</time>
      </trkpt>
      <trkpt lat="43.52451" lon="5.50415">
        <ele>204</ele>
        <time>2011-02-11T12:58:37Z</time>
      </trkpt>
      <trkpt lat="43.52446" lon="5.50428">
        <ele>204</ele>
        <time>2011-02-11T12:58:47Z</time>
      </trkpt>
      <trkpt lat="43.52444" lon="5.50439">
        <ele>204</ele>
        <time>2011-02-11T12:58:57Z</time>
      </trkpt>
      <trkpt lat="43.52442" lon="5.50452">
        <ele>201</ele>
        <time>2011-02-11T12:59:07Z</time>
      </trkpt>
      <trkpt lat="43.52437" lon="5.50464">
        <ele>199</ele>
        <time>2011-02-11T12:59:17Z</time>
      </trkpt>
      <trkpt lat="43.52428" lon="5.5047">
        <ele>198</ele>
        <time>2011-02-11T12:59:27Z</time>
      </trkpt>
      <trkpt lat="43.52418" lon="5.50482">
        <ele>198</ele>
        <time>2011-02-11T12:59:37Z</time>
      </trkpt>
      <trkpt lat="43.52411" lon="5.50496">
        <ele>198</ele>
        <time>2011-02-11T12:59:47Z</time>
      </trkpt>
      <trkpt lat="43.52407" lon="5.50513">
        <ele>198</ele>
        <time>2011-02-11T12:59:57Z</time>
      </trkpt>
      <trkpt lat="43.52406" lon="5.50531">
        <ele>198</ele>
        <time>2011-02-11T13:00:07Z</time>
      </trkpt>
      <trkpt lat="43.52404" lon="5.50548">
        <ele>198</ele>
        <time>2011-02-11T13:00:17Z</time>
      </trkpt>
      <trkpt lat="43.52401" lon="5.50564">
        <ele>198</ele>
        <time>2011-02-11T13:00:27Z</time>
      </trkpt>
      <trkpt lat="43.52398" lon="5.50579">
        <ele>198</ele>
        <time>2011-02-11T13:00:37Z</time>
      </trkpt>
      <trkpt lat="43.52394" lon="5.50596">
        <ele>198</ele>
        <time>2011-02-11T13:00:47Z</time>
      </trkpt>
      <trkpt lat="43.52393" lon="5.50614">
        <ele>198</ele>
        <time>2011-02-11T13:00:58Z</time>
      </trkpt>
      <trkpt lat="43.52391" lon="5.50629">
        <ele>197</ele>
        <time>2011-02-11T13:01:08Z</time>
      </trkpt>
      <trkpt lat="43.52391" lon="5.50639">
        <ele>197</ele>
        <time>2011-02-11T13:01:19Z</time>
      </trkpt>
      <trkpt lat="43.52388" lon="5.50649">
        <ele>197</ele>
        <time>2011-02-11T13:01:29Z</time>
      </trkpt>
      <trkpt lat="43.52383" lon="5.50663">
        <ele>197</ele>
        <time>2011-02-11T13:01:39Z</time>
      </trkpt>
      <trkpt lat="43.52376" lon="5.50676">
        <ele>195</ele>
        <time>2011-02-11T13:01:50Z</time>
      </trkpt>
      <trkpt lat="43.52365" lon="5.50679">
        <ele>192</ele>
        <time>2011-02-11T13:02:00Z</time>
      </trkpt>
      <trkpt lat="43.52354" lon="5.5067">
        <ele>190</ele>
        <time>2011-02-11T13:02:11Z</time>
      </trkpt>
      <trkpt lat="43.52343" lon="5.50662">
        <ele>188</ele>
        <time>2011-02-11T13:02:21Z</time>
      </trkpt>
      <trkpt lat="43.52333" lon="5.50655">
        <ele>184</ele>
        <time>2011-02-11T13:02:31Z</time>
      </trkpt>
      <trkpt lat="43.52321" lon="5.50646">
        <ele>184</ele>
        <time>2011-02-11T13:02:42Z</time>
      </trkpt>
      <trkpt lat="43.5231" lon="5.50637">
        <ele>184</ele>
        <time>2011-02-11T13:02:53Z</time>
      </trkpt>
      <trkpt lat="43.52298" lon="5.50629">
        <ele>183</ele>
        <time>2011-02-11T13:03:03Z</time>
      </trkpt>
      <trkpt lat="43.52287" lon="5.50622">
        <ele>180</ele>
        <time>2011-02-11T13:03:13Z</time>
      </trkpt>
      <trkpt lat="43.52276" lon="5.50614">
        <ele>176</ele>
        <time>2011-02-11T13:03:23Z</time>
      </trkpt>
      <trkpt lat="43.52263" lon="5.50608">
        <ele>176</ele>
        <time>2011-02-11T13:03:33Z</time>
      </trkpt>
      <trkpt lat="43.52251" lon="5.50605">
        <ele>175</ele>
        <time>2011-02-11T13:03:43Z</time>
      </trkpt>
      <trkpt lat="43.5224" lon="5.50606">
        <ele>174</ele>
        <time>2011-02-11T13:03:53Z</time>
      </trkpt>
      <trkpt lat="43.52229" lon="5.50607">
        <ele>174</ele>
        <time>2011-02-11T13:04:03Z</time>
      </trkpt>
      <trkpt lat="43.52221" lon="5.50615">
        <ele>173</ele>
        <time>2011-02-11T13:04:13Z</time>
      </trkpt>
      <trkpt lat="43.5222" lon="5.50629">
        <ele>173</ele>
        <time>2011-02-11T13:04:23Z</time>
      </trkpt>
      <trkpt lat="43.52218" lon="5.50643">
        <ele>173</ele>
        <time>2011-02-11T13:04:34Z</time>
      </trkpt>
      <trkpt lat="43.52218" lon="5.50655">
        <ele>172</ele>
        <time>2011-02-11T13:04:44Z</time>
      </trkpt>
      <trkpt lat="43.52217" lon="5.5067">
        <ele>171</ele>
        <time>2011-02-11T13:04:55Z</time>
      </trkpt>
      <trkpt lat="43.52218" lon="5.50688">
        <ele>171</ele>
        <time>2011-02-11T13:05:05Z</time>
      </trkpt>
      <trkpt lat="43.5222" lon="5.50706">
        <ele>171</ele>
        <time>2011-02-11T13:05:15Z</time>
      </trkpt>
      <trkpt lat="43.52224" lon="5.50722">
        <ele>171</ele>
        <time>2011-02-11T13:05:25Z</time>
      </trkpt>
      <trkpt lat="43.52229" lon="5.50738">
        <ele>171</ele>
        <time>2011-02-11T13:05:36Z</time>
      </trkpt>
      <trkpt lat="43.52233" lon="5.50754">
        <ele>171</ele>
        <time>2011-02-11T13:05:46Z</time>
      </trkpt>
      <trkpt lat="43.52237" lon="5.5077">
        <ele>171</ele>
        <time>2011-02-11T13:05:56Z</time>
      </trkpt>
      <trkpt lat="43.52242" lon="5.50784">
        <ele>171</ele>
        <time>2011-02-11T13:06:07Z</time>
      </trkpt>
      <trkpt lat="43.52243" lon="5.50796">
        <ele>171</ele>
        <time>2011-02-11T13:06:17Z</time>
      </trkpt>
      <trkpt lat="43.52249" lon="5.50808">
        <ele>171</ele>
        <time>2011-02-11T13:06:31Z</time>
      </trkpt>
      <trkpt lat="43.52252" lon="5.50816">
        <ele>171</ele>
        <time>2011-02-11T13:06:41Z</time>
      </trkpt>
      <trkpt lat="43.52256" lon="5.50831">
        <ele>171</ele>
        <time>2011-02-11T13:06:52Z</time>
      </trkpt>
      <trkpt lat="43.52258" lon="5.50844">
        <ele>171</ele>
        <time>2011-02-11T13:07:03Z</time>
      </trkpt>
      <trkpt lat="43.52263" lon="5.5086">
        <ele>171</ele>
        <time>2011-02-11T13:07:13Z</time>
      </trkpt>
      <trkpt lat="43.52268" lon="5.50876">
        <ele>171</ele>
        <time>2011-02-11T13:07:23Z</time>
      </trkpt>
      <trkpt lat="43.52273" lon="5.50885">
        <ele>171</ele>
        <time>2011-02-11T13:07:33Z</time>
      </trkpt>
      <trkpt lat="43.52282" lon="5.50885">
        <ele>171</ele>
        <time>2011-02-11T13:07:43Z</time>
      </trkpt>
      <trkpt lat="43.52283" lon="5.50887">
        <ele>176</ele>
        <time>2011-02-11T13:07:53Z</time>
      </trkpt>
      <trkpt lat="43.52283" lon="5.50884">
        <ele>179</ele>
        <time>2011-02-11T13:08:04Z</time>
      </trkpt>
      <trkpt lat="43.52281" lon="5.50888">
        <ele>180</ele>
        <time>2011-02-11T13:08:20Z</time>
      </trkpt>
      <trkpt lat="43.52283" lon="5.50894">
        <ele>186</ele>
        <time>2011-02-11T13:08:30Z</time>
      </trkpt>
      <trkpt lat="43.52287" lon="5.50901">
        <ele>186</ele>
        <time>2011-02-11T13:08:40Z</time>
      </trkpt>
      <trkpt lat="43.52284" lon="5.50905">
        <ele>181</ele>
        <time>2011-02-11T13:08:51Z</time>
      </trkpt>
      <trkpt lat="43.52283" lon="5.50916">
        <ele>179</ele>
        <time>2011-02-11T13:09:07Z</time>
      </trkpt>
      <trkpt lat="43.52284" lon="5.50911">
        <ele>179</ele>
        <time>2011-02-11T13:09:20Z</time>
      </trkpt>
      <trkpt lat="43.52287" lon="5.50908">
        <ele>179</ele>
        <time>2011-02-11T13:09:33Z</time>
      </trkpt>
      <trkpt lat="43.52285" lon="5.50911">
        <ele>179</ele>
        <time>2011-02-11T13:09:48Z</time>
      </trkpt>
      <trkpt lat="43.52286" lon="5.50912">
        <ele>179</ele>
        <time>2011-02-11T13:09:58Z</time>
      </trkpt>
      <trkpt lat="43.52284" lon="5.50912">
        <ele>179</ele>
        <time>2011-02-11T13:10:17Z</time>
      </trkpt>
      <trkpt lat="43.52284" lon="5.5091">
        <ele>179</ele>
        <time>2011-02-11T13:10:27Z</time>
      </trkpt>
      <trkpt lat="43.52286" lon="5.50923">
        <ele>177</ele>
        <time>2011-02-11T13:10:41Z</time>
      </trkpt>
      <trkpt lat="43.52287" lon="5.50909">
        <ele>176</ele>
        <time>2011-02-11T13:10:51Z</time>
      </trkpt>
      <trkpt lat="43.52298" lon="5.509">
        <ele>175</ele>
        <time>2011-02-11T13:11:01Z</time>
      </trkpt>
      <trkpt lat="43.52309" lon="5.50888">
        <ele>174</ele>
        <time>2011-02-11T13:11:11Z</time>
      </trkpt>
      <trkpt lat="43.52318" lon="5.50876">
        <ele>171</ele>
        <time>2011-02-11T13:11:21Z</time>
      </trkpt>
      <trkpt lat="43.52316" lon="5.50878">
        <ele>171</ele>
        <time>2011-02-11T13:11:32Z</time>
      </trkpt>
      <trkpt lat="43.52301" lon="5.50891">
        <ele>171</ele>
        <time>2011-02-11T13:11:42Z</time>
      </trkpt>
      <trkpt lat="43.52286" lon="5.50901">
        <ele>170</ele>
        <time>2011-02-11T13:11:52Z</time>
      </trkpt>
      <trkpt lat="43.52278" lon="5.5092">
        <ele>169</ele>
        <time>2011-02-11T13:12:02Z</time>
      </trkpt>
      <trkpt lat="43.52274" lon="5.50937">
        <ele>169</ele>
        <time>2011-02-11T13:12:12Z</time>
      </trkpt>
      <trkpt lat="43.52263" lon="5.50955">
        <ele>169</ele>
        <time>2011-02-11T13:12:22Z</time>
      </trkpt>
      <trkpt lat="43.52258" lon="5.50965">
        <ele>171</ele>
        <time>2011-02-11T13:12:32Z</time>
      </trkpt>
      <trkpt lat="43.52251" lon="5.50974">
        <ele>175</ele>
        <time>2011-02-11T13:12:43Z</time>
      </trkpt>
      <trkpt lat="43.52242" lon="5.50992">
        <ele>180</ele>
        <time>2011-02-11T13:12:53Z</time>
      </trkpt>
      <trkpt lat="43.5223" lon="5.51013">
        <ele>191</ele>
        <time>2011-02-11T13:13:04Z</time>
      </trkpt>
      <trkpt lat="43.52235" lon="5.51027">
        <ele>192</ele>
        <time>2011-02-11T13:13:15Z</time>
      </trkpt>
      <trkpt lat="43.52236" lon="5.51039">
        <ele>183</ele>
        <time>2011-02-11T13:13:25Z</time>
      </trkpt>
      <trkpt lat="43.52233" lon="5.51052">
        <ele>180</ele>
        <time>2011-02-11T13:13:35Z</time>
      </trkpt>
      <trkpt lat="43.52229" lon="5.51065">
        <ele>178</ele>
        <time>2011-02-11T13:13:45Z</time>
      </trkpt>
      <trkpt lat="43.52223" lon="5.51079">
        <ele>175</ele>
        <time>2011-02-11T13:13:56Z</time>
      </trkpt>
      <trkpt lat="43.52218" lon="5.51094">
        <ele>174</ele>
        <time>2011-02-11T13:14:07Z</time>
      </trkpt>
      <trkpt lat="43.52212" lon="5.51108">
        <ele>172</ele>
        <time>2011-02-11T13:14:18Z</time>
      </trkpt>
      <trkpt lat="43.52207" lon="5.51119">
        <ele>172</ele>
        <time>2011-02-11T13:14:28Z</time>
      </trkpt>
      <trkpt lat="43.522" lon="5.51133">
        <ele>172</ele>
        <time>2011-02-11T13:14:39Z</time>
      </trkpt>
      <trkpt lat="43.52195" lon="5.5115">
        <ele>172</ele>
        <time>2011-02-11T13:14:50Z</time>
      </trkpt>
      <trkpt lat="43.52192" lon="5.51162">
        <ele>172</ele>
        <time>2011-02-11T13:15:00Z</time>
      </trkpt>
      <trkpt lat="43.52187" lon="5.51176">
        <ele>172</ele>
        <time>2011-02-11T13:15:10Z</time>
      </trkpt>
      <trkpt lat="43.52184" lon="5.51188">
        <ele>172</ele>
        <time>2011-02-11T13:15:20Z</time>
      </trkpt>
      <trkpt lat="43.52182" lon="5.51202">
        <ele>173</ele>
        <time>2011-02-11T13:15:30Z</time>
      </trkpt>
      <trkpt lat="43.52183" lon="5.51216">
        <ele>174</ele>
        <time>2011-02-11T13:15:41Z</time>
      </trkpt>
      <trkpt lat="43.52184" lon="5.51229">
        <ele>176</ele>
        <time>2011-02-11T13:15:51Z</time>
      </trkpt>
      <trkpt lat="43.52184" lon="5.51244">
        <ele>178</ele>
        <time>2011-02-11T13:16:01Z</time>
      </trkpt>
      <trkpt lat="43.52184" lon="5.51261">
        <ele>180</ele>
        <time>2011-02-11T13:16:11Z</time>
      </trkpt>
      <trkpt lat="43.52187" lon="5.51274">
        <ele>180</ele>
        <time>2011-02-11T13:16:21Z</time>
      </trkpt>
      <trkpt lat="43.52191" lon="5.5129">
        <ele>180</ele>
        <time>2011-02-11T13:16:32Z</time>
      </trkpt>
      <trkpt lat="43.52198" lon="5.51304">
        <ele>181</ele>
        <time>2011-02-11T13:16:43Z</time>
      </trkpt>
      <trkpt lat="43.52204" lon="5.51315">
        <ele>181</ele>
        <time>2011-02-11T13:16:53Z</time>
      </trkpt>
      <trkpt lat="43.52211" lon="5.51329">
        <ele>181</ele>
        <time>2011-02-11T13:17:04Z</time>
      </trkpt>
      <trkpt lat="43.52216" lon="5.51343">
        <ele>181</ele>
        <time>2011-02-11T13:17:14Z</time>
      </trkpt>
      <trkpt lat="43.52218" lon="5.5136">
        <ele>182</ele>
        <time>2011-02-11T13:17:24Z</time>
      </trkpt>
      <trkpt lat="43.52219" lon="5.51374">
        <ele>182</ele>
        <time>2011-02-11T13:17:34Z</time>
      </trkpt>
      <trkpt lat="43.52221" lon="5.5139">
        <ele>182</ele>
        <time>2011-02-11T13:17:44Z</time>
      </trkpt>
      <trkpt lat="43.52221" lon="5.51404">
        <ele>182</ele>
        <time>2011-02-11T13:17:54Z</time>
      </trkpt>
      <trkpt lat="43.52219" lon="5.5142">
        <ele>186</ele>
        <time>2011-02-11T13:18:05Z</time>
      </trkpt>
      <trkpt lat="43.52224" lon="5.51434">
        <ele>188</ele>
        <time>2011-02-11T13:18:16Z</time>
      </trkpt>
      <trkpt lat="43.52233" lon="5.51435">
        <ele>195</ele>
        <time>2011-02-11T13:18:27Z</time>
      </trkpt>
      <trkpt lat="43.52243" lon="5.51437">
        <ele>196</ele>
        <time>2011-02-11T13:18:38Z</time>
      </trkpt>
      <trkpt lat="43.52252" lon="5.51442">
        <ele>196</ele>
        <time>2011-02-11T13:18:48Z</time>
      </trkpt>
      <trkpt lat="43.52262" lon="5.51444">
        <ele>196</ele>
        <time>2011-02-11T13:18:58Z</time>
      </trkpt>
      <trkpt lat="43.52273" lon="5.51446">
        <ele>196</ele>
        <time>2011-02-11T13:19:09Z</time>
      </trkpt>
      <trkpt lat="43.52283" lon="5.51448">
        <ele>196</ele>
        <time>2011-02-11T13:19:20Z</time>
      </trkpt>
      <trkpt lat="43.52294" lon="5.5145">
        <ele>196</ele>
        <time>2011-02-11T13:19:31Z</time>
      </trkpt>
      <trkpt lat="43.52304" lon="5.51453">
        <ele>196</ele>
        <time>2011-02-11T13:19:41Z</time>
      </trkpt>
      <trkpt lat="43.52313" lon="5.51455">
        <ele>196</ele>
        <time>2011-02-11T13:19:51Z</time>
      </trkpt>
      <trkpt lat="43.52322" lon="5.51456">
        <ele>196</ele>
        <time>2011-02-11T13:20:01Z</time>
      </trkpt>
      <trkpt lat="43.52334" lon="5.51459">
        <ele>196</ele>
        <time>2011-02-11T13:20:12Z</time>
      </trkpt>
      <trkpt lat="43.52345" lon="5.51462">
        <ele>197</ele>
        <time>2011-02-11T13:20:22Z</time>
      </trkpt>
      <trkpt lat="43.52352" lon="5.51463">
        <ele>197</ele>
        <time>2011-02-11T13:20:32Z</time>
      </trkpt>
      <trkpt lat="43.52364" lon="5.51467">
        <ele>198</ele>
        <time>2011-02-11T13:20:42Z</time>
      </trkpt>
      <trkpt lat="43.5237" lon="5.51476">
        <ele>201</ele>
        <time>2011-02-11T13:20:52Z</time>
      </trkpt>
      <trkpt lat="43.52378" lon="5.51483">
        <ele>202</ele>
        <time>2011-02-11T13:21:02Z</time>
      </trkpt>
      <trkpt lat="43.52386" lon="5.51493">
        <ele>204</ele>
        <time>2011-02-11T13:21:13Z</time>
      </trkpt>
      <trkpt lat="43.52396" lon="5.51501">
        <ele>207</ele>
        <time>2011-02-11T13:21:24Z</time>
      </trkpt>
      <trkpt lat="43.52403" lon="5.51509">
        <ele>207</ele>
        <time>2011-02-11T13:21:35Z</time>
      </trkpt>
      <trkpt lat="43.52412" lon="5.51515">
        <ele>207</ele>
        <time>2011-02-11T13:21:45Z</time>
      </trkpt>
      <trkpt lat="43.52421" lon="5.51524">
        <ele>207</ele>
        <time>2011-02-11T13:21:56Z</time>
      </trkpt>
      <trkpt lat="43.5243" lon="5.51526">
        <ele>209</ele>
        <time>2011-02-11T13:22:06Z</time>
      </trkpt>
      <trkpt lat="43.52439" lon="5.51527">
        <ele>210</ele>
        <time>2011-02-11T13:22:16Z</time>
      </trkpt>
      <trkpt lat="43.52443" lon="5.51527">
        <ele>210</ele>
        <time>2011-02-11T13:22:26Z</time>
      </trkpt>
      <trkpt lat="43.52441" lon="5.51522">
        <ele>213</ele>
        <time>2011-02-11T13:22:37Z</time>
      </trkpt>
      <trkpt lat="43.52441" lon="5.5152">
        <ele>218</ele>
        <time>2011-02-11T13:22:47Z</time>
      </trkpt>
      <trkpt lat="43.52442" lon="5.51523">
        <ele>218</ele>
        <time>2011-02-11T13:22:57Z</time>
      </trkpt>
      <trkpt lat="43.52446" lon="5.51522">
        <ele>218</ele>
        <time>2011-02-11T13:23:12Z</time>
      </trkpt>
      <trkpt lat="43.52455" lon="5.51515">
        <ele>218</ele>
        <time>2011-02-11T13:23:22Z</time>
      </trkpt>
      <trkpt lat="43.52462" lon="5.51501">
        <ele>218</ele>
        <time>2011-02-11T13:23:32Z</time>
      </trkpt>
      <trkpt lat="43.5247" lon="5.5149">
        <ele>218</ele>
        <time>2011-02-11T13:23:42Z</time>
      </trkpt>
      <trkpt lat="43.52478" lon="5.51495">
        <ele>218</ele>
        <time>2011-02-11T13:23:53Z</time>
      </trkpt>
      <trkpt lat="43.52479" lon="5.51509">
        <ele>223</ele>
        <time>2011-02-11T13:24:04Z</time>
      </trkpt>
      <trkpt lat="43.5248" lon="5.51521">
        <ele>225</ele>
        <time>2011-02-11T13:24:14Z</time>
      </trkpt>
      <trkpt lat="43.52481" lon="5.51534">
        <ele>226</ele>
        <time>2011-02-11T13:24:25Z</time>
      </trkpt>
      <trkpt lat="43.52482" lon="5.51548">
        <ele>227</ele>
        <time>2011-02-11T13:24:36Z</time>
      </trkpt>
      <trkpt lat="43.5248" lon="5.51561">
        <ele>228</ele>
        <time>2011-02-11T13:24:46Z</time>
      </trkpt>
      <trkpt lat="43.5248" lon="5.51575">
        <ele>230</ele>
        <time>2011-02-11T13:24:56Z</time>
      </trkpt>
      <trkpt lat="43.52479" lon="5.51588">
        <ele>230</ele>
        <time>2011-02-11T13:25:06Z</time>
      </trkpt>
      <trkpt lat="43.52479" lon="5.51602">
        <ele>230</ele>
        <time>2011-02-11T13:25:16Z</time>
      </trkpt>
      <trkpt lat="43.5248" lon="5.51617">
        <ele>231</ele>
        <time>2011-02-11T13:25:27Z</time>
      </trkpt>
      <trkpt lat="43.52478" lon="5.5163">
        <ele>232</ele>
        <time>2011-02-11T13:25:37Z</time>
      </trkpt>
      <trkpt lat="43.52475" lon="5.51645">
        <ele>235</ele>
        <time>2011-02-11T13:25:48Z</time>
      </trkpt>
      <trkpt lat="43.52476" lon="5.51661">
        <ele>236</ele>
        <time>2011-02-11T13:25:58Z</time>
      </trkpt>
      <trkpt lat="43.52477" lon="5.51676">
        <ele>236</ele>
        <time>2011-02-11T13:26:08Z</time>
      </trkpt>
      <trkpt lat="43.52478" lon="5.51693">
        <ele>236</ele>
        <time>2011-02-11T13:26:18Z</time>
      </trkpt>
      <trkpt lat="43.52476" lon="5.51708">
        <ele>236</ele>
        <time>2011-02-11T13:26:29Z</time>
      </trkpt>
      <trkpt lat="43.52477" lon="5.51726">
        <ele>236</ele>
        <time>2011-02-11T13:26:39Z</time>
      </trkpt>
      <trkpt lat="43.52476" lon="5.5174">
        <ele>236</ele>
        <time>2011-02-11T13:26:50Z</time>
      </trkpt>
      <trkpt lat="43.52478" lon="5.51753">
        <ele>237</ele>
        <time>2011-02-11T13:27:00Z</time>
      </trkpt>
      <trkpt lat="43.52479" lon="5.51768">
        <ele>239</ele>
        <time>2011-02-11T13:27:10Z</time>
      </trkpt>
      <trkpt lat="43.52482" lon="5.51782">
        <ele>239</ele>
        <time>2011-02-11T13:27:20Z</time>
      </trkpt>
      <trkpt lat="43.52484" lon="5.51796">
        <ele>239</ele>
        <time>2011-02-11T13:27:30Z</time>
      </trkpt>
      <trkpt lat="43.52481" lon="5.51812">
        <ele>239</ele>
        <time>2011-02-11T13:27:41Z</time>
      </trkpt>
      <trkpt lat="43.5248" lon="5.51825">
        <ele>239</ele>
        <time>2011-02-11T13:27:51Z</time>
      </trkpt>
      <trkpt lat="43.52477" lon="5.51841">
        <ele>239</ele>
        <time>2011-02-11T13:28:01Z</time>
      </trkpt>
      <trkpt lat="43.52473" lon="5.51855">
        <ele>239</ele>
        <time>2011-02-11T13:28:11Z</time>
      </trkpt>
      <trkpt lat="43.52468" lon="5.5187">
        <ele>238</ele>
        <time>2011-02-11T13:28:21Z</time>
      </trkpt>
      <trkpt lat="43.52468" lon="5.51885">
        <ele>238</ele>
        <time>2011-02-11T13:28:31Z</time>
      </trkpt>
      <trkpt lat="43.52463" lon="5.51899">
        <ele>238</ele>
        <time>2011-02-11T13:28:41Z</time>
      </trkpt>
      <trkpt lat="43.52459" lon="5.51913">
        <ele>238</ele>
        <time>2011-02-11T13:28:51Z</time>
      </trkpt>
      <trkpt lat="43.5246" lon="5.51931">
        <ele>238</ele>
        <time>2011-02-11T13:29:01Z</time>
      </trkpt>
      <trkpt lat="43.52457" lon="5.51945">
        <ele>238</ele>
        <time>2011-02-11T13:29:11Z</time>
      </trkpt>
      <trkpt lat="43.52448" lon="5.51959">
        <ele>238</ele>
        <time>2011-02-11T13:29:22Z</time>
      </trkpt>
      <trkpt lat="43.52439" lon="5.5197">
        <ele>238</ele>
        <time>2011-02-11T13:29:32Z</time>
      </trkpt>
      <trkpt lat="43.52435" lon="5.51985">
        <ele>238</ele>
        <time>2011-02-11T13:29:42Z</time>
      </trkpt>
      <trkpt lat="43.52433" lon="5.52001">
        <ele>238</ele>
        <time>2011-02-11T13:29:52Z</time>
      </trkpt>
      <trkpt lat="43.52431" lon="5.52017">
        <ele>238</ele>
        <time>2011-02-11T13:30:02Z</time>
      </trkpt>
      <trkpt lat="43.52428" lon="5.52033">
        <ele>237</ele>
        <time>2011-02-11T13:30:12Z</time>
      </trkpt>
      <trkpt lat="43.5243" lon="5.52049">
        <ele>237</ele>
        <time>2011-02-11T13:30:22Z</time>
      </trkpt>
      <trkpt lat="43.52435" lon="5.52059">
        <ele>237</ele>
        <time>2011-02-11T13:30:33Z</time>
      </trkpt>
      <trkpt lat="43.52441" lon="5.52065">
        <ele>237</ele>
        <time>2011-02-11T13:30:44Z</time>
      </trkpt>
      <trkpt lat="43.52448" lon="5.52074">
        <ele>239</ele>
        <time>2011-02-11T13:30:54Z</time>
      </trkpt>
      <trkpt lat="43.52454" lon="5.52086">
        <ele>240</ele>
        <time>2011-02-11T13:31:04Z</time>
      </trkpt>
      <trkpt lat="43.52453" lon="5.52098">
        <ele>242</ele>
        <time>2011-02-11T13:31:14Z</time>
      </trkpt>
      <trkpt lat="43.5245" lon="5.52109">
        <ele>245</ele>
        <time>2011-02-11T13:31:25Z</time>
      </trkpt>
      <trkpt lat="43.5245" lon="5.52124">
        <ele>246</ele>
        <time>2011-02-11T13:31:36Z</time>
      </trkpt>
      <trkpt lat="43.52452" lon="5.52136">
        <ele>246</ele>
        <time>2011-02-11T13:31:46Z</time>
      </trkpt>
      <trkpt lat="43.52452" lon="5.52149">
        <ele>246</ele>
        <time>2011-02-11T13:31:56Z</time>
      </trkpt>
      <trkpt lat="43.52452" lon="5.52164">
        <ele>246</ele>
        <time>2011-02-11T13:32:06Z</time>
      </trkpt>
      <trkpt lat="43.52451" lon="5.5218">
        <ele>246</ele>
        <time>2011-02-11T13:32:16Z</time>
      </trkpt>
      <trkpt lat="43.52448" lon="5.52193">
        <ele>248</ele>
        <time>2011-02-11T13:32:27Z</time>
      </trkpt>
      <trkpt lat="43.52447" lon="5.52205">
        <ele>250</ele>
        <time>2011-02-11T13:32:38Z</time>
      </trkpt>
      <trkpt lat="43.52449" lon="5.52215">
        <ele>252</ele>
        <time>2011-02-11T13:32:48Z</time>
      </trkpt>
      <trkpt lat="43.52454" lon="5.52223">
        <ele>253</ele>
        <time>2011-02-11T13:32:59Z</time>
      </trkpt>
      <trkpt lat="43.52455" lon="5.52232">
        <ele>255</ele>
        <time>2011-02-11T13:33:11Z</time>
      </trkpt>
      <trkpt lat="43.52455" lon="5.52241">
        <ele>257</ele>
        <time>2011-02-11T13:33:21Z</time>
      </trkpt>
      <trkpt lat="43.52452" lon="5.52252">
        <ele>258</ele>
        <time>2011-02-11T13:33:31Z</time>
      </trkpt>
      <trkpt lat="43.52449" lon="5.52262">
        <ele>259</ele>
        <time>2011-02-11T13:33:41Z</time>
      </trkpt>
      <trkpt lat="43.52447" lon="5.5227">
        <ele>261</ele>
        <time>2011-02-11T13:33:51Z</time>
      </trkpt>
      <trkpt lat="43.52444" lon="5.5228">
        <ele>262</ele>
        <time>2011-02-11T13:34:01Z</time>
      </trkpt>
      <trkpt lat="43.52441" lon="5.5229">
        <ele>264</ele>
        <time>2011-02-11T13:34:11Z</time>
      </trkpt>
      <trkpt lat="43.52439" lon="5.523">
        <ele>265</ele>
        <time>2011-02-11T13:34:21Z</time>
      </trkpt>
      <trkpt lat="43.52438" lon="5.5231">
        <ele>266</ele>
        <time>2011-02-11T13:34:31Z</time>
      </trkpt>
      <trkpt lat="43.52438" lon="5.52321">
        <ele>268</ele>
        <time>2011-02-11T13:34:42Z</time>
      </trkpt>
      <trkpt lat="43.52435" lon="5.52328">
        <ele>270</ele>
        <time>2011-02-11T13:34:53Z</time>
      </trkpt>
      <trkpt lat="43.52433" lon="5.52337">
        <ele>273</ele>
        <time>2011-02-11T13:35:04Z</time>
      </trkpt>
      <trkpt lat="43.52437" lon="5.52347">
        <ele>275</ele>
        <time>2011-02-11T13:35:14Z</time>
      </trkpt>
      <trkpt lat="43.52436" lon="5.52359">
        <ele>275</ele>
        <time>2011-02-11T13:35:25Z</time>
      </trkpt>
      <trkpt lat="43.52429" lon="5.52364">
        <ele>275</ele>
        <time>2011-02-11T13:35:36Z</time>
      </trkpt>
      <trkpt lat="43.52425" lon="5.52369">
        <ele>275</ele>
        <time>2011-02-11T13:35:47Z</time>
      </trkpt>
      <trkpt lat="43.52427" lon="5.52368">
        <ele>276</ele>
        <time>2011-02-11T13:36:01Z</time>
      </trkpt>
      <trkpt lat="43.52426" lon="5.52368">
        <ele>276</ele>
        <time>2011-02-11T13:36:12Z</time>
      </trkpt>
      <trkpt lat="43.52427" lon="5.52368">
        <ele>277</ele>
        <time>2011-02-11T13:36:23Z</time>
      </trkpt>
      <trkpt lat="43.52431" lon="5.52373">
        <ele>277</ele>
        <time>2011-02-11T13:36:34Z</time>
      </trkpt>
      <trkpt lat="43.52427" lon="5.52386">
        <ele>277</ele>
        <time>2011-02-11T13:36:45Z</time>
      </trkpt>
      <trkpt lat="43.52427" lon="5.52393">
        <ele>277</ele>
        <time>2011-02-11T13:36:59Z</time>
      </trkpt>
      <trkpt lat="43.52426" lon="5.52396">
        <ele>278</ele>
        <time>2011-02-11T13:37:09Z</time>
      </trkpt>
      <trkpt lat="43.52424" lon="5.52394">
        <ele>281</ele>
        <time>2011-02-11T13:37:23Z</time>
      </trkpt>
      <trkpt lat="43.52422" lon="5.52394">
        <ele>281</ele>
        <time>2011-02-11T13:37:33Z</time>
      </trkpt>
      <trkpt lat="43.52423" lon="5.52395">
        <ele>283</ele>
        <time>2011-02-11T13:37:44Z</time>
      </trkpt>
      <trkpt lat="43.52427" lon="5.52397">
        <ele>285</ele>
        <time>2011-02-11T13:37:55Z</time>
      </trkpt>
      <trkpt lat="43.52431" lon="5.52397">
        <ele>286</ele>
        <time>2011-02-11T13:38:07Z</time>
      </trkpt>
      <trkpt lat="43.52434" lon="5.52394">
        <ele>286</ele>
        <time>2011-02-11T13:38:18Z</time>
      </trkpt>
      <trkpt lat="43.52433" lon="5.52387">
        <ele>286</ele>
        <time>2011-02-11T13:38:32Z</time>
      </trkpt>
      <trkpt lat="43.52436" lon="5.52385">
        <ele>282</ele>
        <time>2011-02-11T13:38:42Z</time>
      </trkpt>
      <trkpt lat="43.52442" lon="5.52387">
        <ele>280</ele>
        <time>2011-02-11T13:38:53Z</time>
      </trkpt>
      <trkpt lat="43.52452" lon="5.52389">
        <ele>279</ele>
        <time>2011-02-11T13:39:03Z</time>
      </trkpt>
      <trkpt lat="43.52462" lon="5.52391">
        <ele>275</ele>
        <time>2011-02-11T13:39:14Z</time>
      </trkpt>
      <trkpt lat="43.52469" lon="5.52394">
        <ele>274</ele>
        <time>2011-02-11T13:39:24Z</time>
      </trkpt>
      <trkpt lat="43.5248" lon="5.52392">
        <ele>273</ele>
        <time>2011-02-11T13:39:34Z</time>
      </trkpt>
      <trkpt lat="43.5249" lon="5.52395">
        <ele>272</ele>
        <time>2011-02-11T13:39:44Z</time>
      </trkpt>
      <trkpt lat="43.52504" lon="5.52395">
        <ele>269</ele>
        <time>2011-02-11T13:39:55Z</time>
      </trkpt>
      <trkpt lat="43.52516" lon="5.52396">
        <ele>268</ele>
        <time>2011-02-11T13:40:05Z</time>
      </trkpt>
      <trkpt lat="43.52529" lon="5.52396">
        <ele>268</ele>
        <time>2011-02-11T13:40:16Z</time>
      </trkpt>
      <trkpt lat="43.52539" lon="5.524">
        <ele>268</ele>
        <time>2011-02-11T13:40:26Z</time>
      </trkpt>
      <trkpt lat="43.52549" lon="5.52403">
        <ele>268</ele>
        <time>2011-02-11T13:40:41Z</time>
      </trkpt>
      <trkpt lat="43.52547" lon="5.52401">
        <ele>268</ele>
        <time>2011-02-11T13:41:18Z</time>
      </trkpt>
      <trkpt lat="43.52552" lon="5.524">
        <ele>268</ele>
        <time>2011-02-11T13:41:28Z</time>
      </trkpt>
      <trkpt lat="43.52559" lon="5.52394">
        <ele>268</ele>
        <time>2011-02-11T13:41:41Z</time>
      </trkpt>
      <trkpt lat="43.52569" lon="5.52391">
        <ele>269</ele>
        <time>2011-02-11T13:41:52Z</time>
      </trkpt>
      <trkpt lat="43.52582" lon="5.52389">
        <ele>269</ele>
        <time>2011-02-11T13:42:03Z</time>
      </trkpt>
      <trkpt lat="43.52594" lon="5.52387">
        <ele>269</ele>
        <time>2011-02-11T13:42:13Z</time>
      </trkpt>
      <trkpt lat="43.52605" lon="5.52385">
        <ele>269</ele>
        <time>2011-02-11T13:42:24Z</time>
      </trkpt>
      <trkpt lat="43.52614" lon="5.52379">
        <ele>275</ele>
        <time>2011-02-11T13:42:35Z</time>
      </trkpt>
      <trkpt lat="43.52625" lon="5.52376">
        <ele>275</ele>
        <time>2011-02-11T13:42:45Z</time>
      </trkpt>
      <trkpt lat="43.52637" lon="5.52377">
        <ele>275</ele>
        <time>2011-02-11T13:42:55Z</time>
      </trkpt>
      <trkpt lat="43.52649" lon="5.5238">
        <ele>275</ele>
        <time>2011-02-11T13:43:05Z</time>
      </trkpt>
      <trkpt lat="43.52659" lon="5.52386">
        <ele>275</ele>
        <time>2011-02-11T13:43:16Z</time>
      </trkpt>
      <trkpt lat="43.52662" lon="5.52388">
        <ele>276</ele>
        <time>2011-02-11T13:43:29Z</time>
      </trkpt>
      <trkpt lat="43.52667" lon="5.52383">
        <ele>281</ele>
        <time>2011-02-11T13:43:52Z</time>
      </trkpt>
      <trkpt lat="43.52678" lon="5.52378">
        <ele>282</ele>
        <time>2011-02-11T13:44:02Z</time>
      </trkpt>
      <trkpt lat="43.52689" lon="5.52378">
        <ele>282</ele>
        <time>2011-02-11T13:44:13Z</time>
      </trkpt>
      <trkpt lat="43.52698" lon="5.52378">
        <ele>282</ele>
        <time>2011-02-11T13:44:24Z</time>
      </trkpt>
      <trkpt lat="43.52707" lon="5.52374">
        <ele>282</ele>
        <time>2011-02-11T13:44:35Z</time>
      </trkpt>
      <trkpt lat="43.52716" lon="5.52371">
        <ele>282</ele>
        <time>2011-02-11T13:44:45Z</time>
      </trkpt>
      <trkpt lat="43.52726" lon="5.52372">
        <ele>282</ele>
        <time>2011-02-11T13:44:56Z</time>
      </trkpt>
      <trkpt lat="43.52739" lon="5.52377">
        <ele>282</ele>
        <time>2011-02-11T13:45:07Z</time>
      </trkpt>
      <trkpt lat="43.52749" lon="5.52386">
        <ele>283</ele>
        <time>2011-02-11T13:45:19Z</time>
      </trkpt>
      <trkpt lat="43.52758" lon="5.52396">
        <ele>285</ele>
        <time>2011-02-11T13:45:31Z</time>
      </trkpt>
      <trkpt lat="43.52766" lon="5.52404">
        <ele>289</ele>
        <time>2011-02-11T13:45:43Z</time>
      </trkpt>
      <trkpt lat="43.52775" lon="5.52413">
        <ele>291</ele>
        <time>2011-02-11T13:45:55Z</time>
      </trkpt>
      <trkpt lat="43.52783" lon="5.52421">
        <ele>293</ele>
        <time>2011-02-11T13:46:07Z</time>
      </trkpt>
      <trkpt lat="43.52791" lon="5.52428">
        <ele>294</ele>
        <time>2011-02-11T13:46:17Z</time>
      </trkpt>
      <trkpt lat="43.52798" lon="5.52435">
        <ele>295</ele>
        <time>2011-02-11T13:46:27Z</time>
      </trkpt>
      <trkpt lat="43.52806" lon="5.52441">
        <ele>299</ele>
        <time>2011-02-11T13:46:37Z</time>
      </trkpt>
      <trkpt lat="43.52813" lon="5.52448">
        <ele>301</ele>
        <time>2011-02-11T13:46:47Z</time>
      </trkpt>
      <trkpt lat="43.52819" lon="5.52455">
        <ele>302</ele>
        <time>2011-02-11T13:46:57Z</time>
      </trkpt>
      <trkpt lat="43.52826" lon="5.5246">
        <ele>304</ele>
        <time>2011-02-11T13:47:07Z</time>
      </trkpt>
      <trkpt lat="43.52833" lon="5.52467">
        <ele>306</ele>
        <time>2011-02-11T13:47:18Z</time>
      </trkpt>
      <trkpt lat="43.5284" lon="5.52473">
        <ele>307</ele>
        <time>2011-02-11T13:47:28Z</time>
      </trkpt>
      <trkpt lat="43.52848" lon="5.52477">
        <ele>308</ele>
        <time>2011-02-11T13:47:38Z</time>
      </trkpt>
      <trkpt lat="43.52856" lon="5.52484">
        <ele>310</ele>
        <time>2011-02-11T13:47:48Z</time>
      </trkpt>
      <trkpt lat="43.52865" lon="5.52493">
        <ele>310</ele>
        <time>2011-02-11T13:47:58Z</time>
      </trkpt>
      <trkpt lat="43.52874" lon="5.52505">
        <ele>310</ele>
        <time>2011-02-11T13:48:08Z</time>
      </trkpt>
      <trkpt lat="43.52882" lon="5.52517">
        <ele>310</ele>
        <time>2011-02-11T13:48:18Z</time>
      </trkpt>
      <trkpt lat="43.5289" lon="5.52528">
        <ele>310</ele>
        <time>2011-02-11T13:48:28Z</time>
      </trkpt>
      <trkpt lat="43.52898" lon="5.5254">
        <ele>310</ele>
        <time>2011-02-11T13:48:38Z</time>
      </trkpt>
      <trkpt lat="43.52905" lon="5.52554">
        <ele>310</ele>
        <time>2011-02-11T13:48:49Z</time>
      </trkpt>
      <trkpt lat="43.52913" lon="5.52566">
        <ele>311</ele>
        <time>2011-02-11T13:49:00Z</time>
      </trkpt>
      <trkpt lat="43.5292" lon="5.52576">
        <ele>312</ele>
        <time>2011-02-11T13:49:10Z</time>
      </trkpt>
      <trkpt lat="43.52927" lon="5.52585">
        <ele>314</ele>
        <time>2011-02-11T13:49:20Z</time>
      </trkpt>
      <trkpt lat="43.52936" lon="5.52591">
        <ele>315</ele>
        <time>2011-02-11T13:49:30Z</time>
      </trkpt>
      <trkpt lat="43.52945" lon="5.52596">
        <ele>317</ele>
        <time>2011-02-11T13:49:40Z</time>
      </trkpt>
      <trkpt lat="43.52955" lon="5.52603">
        <ele>318</ele>
        <time>2011-02-11T13:49:50Z</time>
      </trkpt>
      <trkpt lat="43.52964" lon="5.5261">
        <ele>319</ele>
        <time>2011-02-11T13:50:00Z</time>
      </trkpt>
      <trkpt lat="43.52974" lon="5.52615">
        <ele>320</ele>
        <time>2011-02-11T13:50:11Z</time>
      </trkpt>
      <trkpt lat="43.52984" lon="5.52618">
        <ele>321</ele>
        <time>2011-02-11T13:50:21Z</time>
      </trkpt>
      <trkpt lat="43.52992" lon="5.52626">
        <ele>323</ele>
        <time>2011-02-11T13:50:31Z</time>
      </trkpt>
      <trkpt lat="43.52997" lon="5.52639">
        <ele>324</ele>
        <time>2011-02-11T13:50:42Z</time>
      </trkpt>
      <trkpt lat="43.53" lon="5.52648">
        <ele>327</ele>
        <time>2011-02-11T13:50:52Z</time>
      </trkpt>
      <trkpt lat="43.52998" lon="5.52661">
        <ele>330</ele>
        <time>2011-02-11T13:51:04Z</time>
      </trkpt>
      <trkpt lat="43.52991" lon="5.52669">
        <ele>333</ele>
        <time>2011-02-11T13:51:14Z</time>
      </trkpt>
      <trkpt lat="43.52985" lon="5.52679">
        <ele>334</ele>
        <time>2011-02-11T13:51:24Z</time>
      </trkpt>
      <trkpt lat="43.52979" lon="5.52691">
        <ele>337</ele>
        <time>2011-02-11T13:51:34Z</time>
      </trkpt>
      <trkpt lat="43.52974" lon="5.52704">
        <ele>340</ele>
        <time>2011-02-11T13:51:45Z</time>
      </trkpt>
      <trkpt lat="43.52968" lon="5.52717">
        <ele>342</ele>
        <time>2011-02-11T13:51:56Z</time>
      </trkpt>
      <trkpt lat="43.52962" lon="5.52731">
        <ele>343</ele>
        <time>2011-02-11T13:52:06Z</time>
      </trkpt>
      <trkpt lat="43.52958" lon="5.52745">
        <ele>346</ele>
        <time>2011-02-11T13:52:16Z</time>
      </trkpt>
      <trkpt lat="43.52952" lon="5.52759">
        <ele>349</ele>
        <time>2011-02-11T13:52:27Z</time>
      </trkpt>
      <trkpt lat="43.52951" lon="5.52774">
        <ele>350</ele>
        <time>2011-02-11T13:52:37Z</time>
      </trkpt>
      <trkpt lat="43.52955" lon="5.52789">
        <ele>352</ele>
        <time>2011-02-11T13:52:47Z</time>
      </trkpt>
      <trkpt lat="43.52958" lon="5.52806">
        <ele>353</ele>
        <time>2011-02-11T13:52:57Z</time>
      </trkpt>
      <trkpt lat="43.52958" lon="5.52823">
        <ele>354</ele>
        <time>2011-02-11T13:53:07Z</time>
      </trkpt>
      <trkpt lat="43.52953" lon="5.52839">
        <ele>354</ele>
        <time>2011-02-11T13:53:17Z</time>
      </trkpt>
      <trkpt lat="43.52945" lon="5.52853">
        <ele>354</ele>
        <time>2011-02-11T13:53:28Z</time>
      </trkpt>
      <trkpt lat="43.52936" lon="5.52867">
        <ele>354</ele>
        <time>2011-02-11T13:53:40Z</time>
      </trkpt>
      <trkpt lat="43.52927" lon="5.52876">
        <ele>354</ele>
        <time>2011-02-11T13:53:51Z</time>
      </trkpt>
      <trkpt lat="43.52922" lon="5.52888">
        <ele>355</ele>
        <time>2011-02-11T13:54:01Z</time>
      </trkpt>
      <trkpt lat="43.52914" lon="5.52902">
        <ele>355</ele>
        <time>2011-02-11T13:54:12Z</time>
      </trkpt>
      <trkpt lat="43.52908" lon="5.52913">
        <ele>356</ele>
        <time>2011-02-11T13:54:22Z</time>
      </trkpt>
      <trkpt lat="43.52905" lon="5.52917">
        <ele>356</ele>
        <time>2011-02-11T13:54:36Z</time>
      </trkpt>
      <trkpt lat="43.52902" lon="5.52919">
        <ele>356</ele>
        <time>2011-02-11T13:55:11Z</time>
      </trkpt>
      <trkpt lat="43.52901" lon="5.5292">
        <ele>356</ele>
        <time>2011-02-11T13:55:54Z</time>
      </trkpt>
      <trkpt lat="43.52899" lon="5.52922">
        <ele>356</ele>
        <time>2011-02-11T13:56:06Z</time>
      </trkpt>
      <trkpt lat="43.52895" lon="5.52931">
        <ele>356</ele>
        <time>2011-02-11T13:56:16Z</time>
      </trkpt>
      <trkpt lat="43.52887" lon="5.52943">
        <ele>357</ele>
        <time>2011-02-11T13:56:27Z</time>
      </trkpt>
      <trkpt lat="43.52879" lon="5.52958">
        <ele>357</ele>
        <time>2011-02-11T13:56:38Z</time>
      </trkpt>
      <trkpt lat="43.52869" lon="5.52972">
        <ele>357</ele>
        <time>2011-02-11T13:56:49Z</time>
      </trkpt>
      <trkpt lat="43.52861" lon="5.52987">
        <ele>357</ele>
        <time>2011-02-11T13:57:00Z</time>
      </trkpt>
      <trkpt lat="43.52854" lon="5.53004">
        <ele>357</ele>
        <time>2011-02-11T13:57:11Z</time>
      </trkpt>
      <trkpt lat="43.52849" lon="5.5302">
        <ele>357</ele>
        <time>2011-02-11T13:57:21Z</time>
      </trkpt>
      <trkpt lat="43.52845" lon="5.53037">
        <ele>357</ele>
        <time>2011-02-11T13:57:31Z</time>
      </trkpt>
      <trkpt lat="43.52842" lon="5.53053">
        <ele>357</ele>
        <time>2011-02-11T13:57:41Z</time>
      </trkpt>
      <trkpt lat="43.52839" lon="5.5307">
        <ele>357</ele>
        <time>2011-02-11T13:57:51Z</time>
      </trkpt>
      <trkpt lat="43.52837" lon="5.53088">
        <ele>357</ele>
        <time>2011-02-11T13:58:01Z</time>
      </trkpt>
      <trkpt lat="43.52831" lon="5.53104">
        <ele>357</ele>
        <time>2011-02-11T13:58:11Z</time>
      </trkpt>
      <trkpt lat="43.52825" lon="5.53119">
        <ele>357</ele>
        <time>2011-02-11T13:58:21Z</time>
      </trkpt>
      <trkpt lat="43.5282" lon="5.53135">
        <ele>357</ele>
        <time>2011-02-11T13:58:31Z</time>
      </trkpt>
      <trkpt lat="43.52816" lon="5.53152">
        <ele>357</ele>
        <time>2011-02-11T13:58:41Z</time>
      </trkpt>
      <trkpt lat="43.5281" lon="5.53169">
        <ele>357</ele>
        <time>2011-02-11T13:58:51Z</time>
      </trkpt>
      <trkpt lat="43.52803" lon="5.53184">
        <ele>357</ele>
        <time>2011-02-11T13:59:01Z</time>
      </trkpt>
      <trkpt lat="43.5279" lon="5.53195">
        <ele>357</ele>
        <time>2011-02-11T13:59:12Z</time>
      </trkpt>
      <trkpt lat="43.52777" lon="5.53199">
        <ele>357</ele>
        <time>2011-02-11T13:59:22Z</time>
      </trkpt>
      <trkpt lat="43.52764" lon="5.53204">
        <ele>357</ele>
        <time>2011-02-11T13:59:32Z</time>
      </trkpt>
      <trkpt lat="43.52752" lon="5.53208">
        <ele>357</ele>
        <time>2011-02-11T13:59:42Z</time>
      </trkpt>
      <trkpt lat="43.52739" lon="5.53214">
        <ele>357</ele>
        <time>2011-02-11T13:59:52Z</time>
      </trkpt>
      <trkpt lat="43.52727" lon="5.53221">
        <ele>357</ele>
        <time>2011-02-11T14:00:02Z</time>
      </trkpt>
      <trkpt lat="43.52716" lon="5.53234">
        <ele>357</ele>
        <time>2011-02-11T14:00:13Z</time>
      </trkpt>
      <trkpt lat="43.52708" lon="5.5325">
        <ele>357</ele>
        <time>2011-02-11T14:00:23Z</time>
      </trkpt>
      <trkpt lat="43.52704" lon="5.53268">
        <ele>356</ele>
        <time>2011-02-11T14:00:33Z</time>
      </trkpt>
      <trkpt lat="43.52701" lon="5.53287">
        <ele>356</ele>
        <time>2011-02-11T14:00:43Z</time>
      </trkpt>
      <trkpt lat="43.52698" lon="5.53305">
        <ele>355</ele>
        <time>2011-02-11T14:00:53Z</time>
      </trkpt>
      <trkpt lat="43.52695" lon="5.53326">
        <ele>354</ele>
        <time>2011-02-11T14:01:03Z</time>
      </trkpt>
      <trkpt lat="43.52692" lon="5.53344">
        <ele>352</ele>
        <time>2011-02-11T14:01:13Z</time>
      </trkpt>
      <trkpt lat="43.5269" lon="5.53366">
        <ele>351</ele>
        <time>2011-02-11T14:01:24Z</time>
      </trkpt>
      <trkpt lat="43.52689" lon="5.53384">
        <ele>351</ele>
        <time>2011-02-11T14:01:34Z</time>
      </trkpt>
      <trkpt lat="43.5269" lon="5.53402">
        <ele>350</ele>
        <time>2011-02-11T14:01:44Z</time>
      </trkpt>
      <trkpt lat="43.52692" lon="5.53421">
        <ele>349</ele>
        <time>2011-02-11T14:01:54Z</time>
      </trkpt>
      <trkpt lat="43.52692" lon="5.53441">
        <ele>347</ele>
        <time>2011-02-11T14:02:04Z</time>
      </trkpt>
      <trkpt lat="43.52693" lon="5.53459">
        <ele>346</ele>
        <time>2011-02-11T14:02:14Z</time>
      </trkpt>
      <trkpt lat="43.52694" lon="5.53477">
        <ele>344</ele>
        <time>2011-02-11T14:02:24Z</time>
      </trkpt>
      <trkpt lat="43.52695" lon="5.53496">
        <ele>342</ele>
        <time>2011-02-11T14:02:34Z</time>
      </trkpt>
      <trkpt lat="43.52695" lon="5.53515">
        <ele>340</ele>
        <time>2011-02-11T14:02:44Z</time>
      </trkpt>
      <trkpt lat="43.52694" lon="5.53534">
        <ele>338</ele>
        <time>2011-02-11T14:02:54Z</time>
      </trkpt>
      <trkpt lat="43.52692" lon="5.53552">
        <ele>337</ele>
        <time>2011-02-11T14:03:04Z</time>
      </trkpt>
      <trkpt lat="43.5269" lon="5.5357">
        <ele>335</ele>
        <time>2011-02-11T14:03:14Z</time>
      </trkpt>
      <trkpt lat="43.52687" lon="5.53588">
        <ele>334</ele>
        <time>2011-02-11T14:03:24Z</time>
      </trkpt>
      <trkpt lat="43.52684" lon="5.53606">
        <ele>332</ele>
        <time>2011-02-11T14:03:34Z</time>
      </trkpt>
      <trkpt lat="43.52679" lon="5.53624">
        <ele>330</ele>
        <time>2011-02-11T14:03:44Z</time>
      </trkpt>
      <trkpt lat="43.52674" lon="5.53641">
        <ele>329</ele>
        <time>2011-02-11T14:03:54Z</time>
      </trkpt>
      <trkpt lat="43.52665" lon="5.53654">
        <ele>328</ele>
        <time>2011-02-11T14:04:04Z</time>
      </trkpt>
      <trkpt lat="43.52654" lon="5.53656">
        <ele>328</ele>
        <time>2011-02-11T14:04:27Z</time>
      </trkpt>
      <trkpt lat="43.52654" lon="5.53655">
        <ele>328</ele>
        <time>2011-02-11T14:04:44Z</time>
      </trkpt>
      <trkpt lat="43.52652" lon="5.53655">
        <ele>328</ele>
        <time>2011-02-11T14:05:04Z</time>
      </trkpt>
      <trkpt lat="43.52642" lon="5.5365">
        <ele>328</ele>
        <time>2011-02-11T14:05:15Z</time>
      </trkpt>
      <trkpt lat="43.52632" lon="5.53643">
        <ele>327</ele>
        <time>2011-02-11T14:05:25Z</time>
      </trkpt>
      <trkpt lat="43.5262" lon="5.53643">
        <ele>324</ele>
        <time>2011-02-11T14:05:36Z</time>
      </trkpt>
      <trkpt lat="43.52608" lon="5.53648">
        <ele>322</ele>
        <time>2011-02-11T14:05:46Z</time>
      </trkpt>
      <trkpt lat="43.52596" lon="5.53653">
        <ele>320</ele>
        <time>2011-02-11T14:05:56Z</time>
      </trkpt>
      <trkpt lat="43.52585" lon="5.53659">
        <ele>318</ele>
        <time>2011-02-11T14:06:06Z</time>
      </trkpt>
      <trkpt lat="43.52573" lon="5.53665">
        <ele>317</ele>
        <time>2011-02-11T14:06:16Z</time>
      </trkpt>
      <trkpt lat="43.52562" lon="5.53674">
        <ele>313</ele>
        <time>2011-02-11T14:06:27Z</time>
      </trkpt>
      <trkpt lat="43.52551" lon="5.53686">
        <ele>312</ele>
        <time>2011-02-11T14:06:38Z</time>
      </trkpt>
      <trkpt lat="43.52544" lon="5.53698">
        <ele>312</ele>
        <time>2011-02-11T14:06:48Z</time>
      </trkpt>
      <trkpt lat="43.52541" lon="5.53702">
        <ele>312</ele>
        <time>2011-02-11T14:06:58Z</time>
      </trkpt>
      <trkpt lat="43.52546" lon="5.53692">
        <ele>312</ele>
        <time>2011-02-11T14:07:08Z</time>
      </trkpt>
      <trkpt lat="43.5255" lon="5.53698">
        <ele>312</ele>
        <time>2011-02-11T14:07:19Z</time>
      </trkpt>
      <trkpt lat="43.52549" lon="5.53712">
        <ele>313</ele>
        <time>2011-02-11T14:07:29Z</time>
      </trkpt>
      <trkpt lat="43.5255" lon="5.53727">
        <ele>315</ele>
        <time>2011-02-11T14:07:39Z</time>
      </trkpt>
      <trkpt lat="43.52554" lon="5.53742">
        <ele>316</ele>
        <time>2011-02-11T14:07:50Z</time>
      </trkpt>
      <trkpt lat="43.52558" lon="5.53756">
        <ele>317</ele>
        <time>2011-02-11T14:08:00Z</time>
      </trkpt>
      <trkpt lat="43.52563" lon="5.53771">
        <ele>317</ele>
        <time>2011-02-11T14:08:10Z</time>
      </trkpt>
      <trkpt lat="43.52568" lon="5.53787">
        <ele>317</ele>
        <time>2011-02-11T14:08:20Z</time>
      </trkpt>
      <trkpt lat="43.52573" lon="5.53803">
        <ele>317</ele>
        <time>2011-02-11T14:08:30Z</time>
      </trkpt>
      <trkpt lat="43.52576" lon="5.5382">
        <ele>317</ele>
        <time>2011-02-11T14:08:40Z</time>
      </trkpt>
      <trkpt lat="43.52578" lon="5.53836">
        <ele>318</ele>
        <time>2011-02-11T14:08:50Z</time>
      </trkpt>
      <trkpt lat="43.5258" lon="5.53854">
        <ele>319</ele>
        <time>2011-02-11T14:09:00Z</time>
      </trkpt>
      <trkpt lat="43.5258" lon="5.53869">
        <ele>319</ele>
        <time>2011-02-11T14:09:10Z</time>
      </trkpt>
      <trkpt lat="43.52581" lon="5.53887">
        <ele>319</ele>
        <time>2011-02-11T14:09:21Z</time>
      </trkpt>
      <trkpt lat="43.52581" lon="5.53905">
        <ele>319</ele>
        <time>2011-02-11T14:09:31Z</time>
      </trkpt>
      <trkpt lat="43.52581" lon="5.53924">
        <ele>316</ele>
        <time>2011-02-11T14:09:41Z</time>
      </trkpt>
      <trkpt lat="43.52581" lon="5.53941">
        <ele>314</ele>
        <time>2011-02-11T14:09:51Z</time>
      </trkpt>
      <trkpt lat="43.52579" lon="5.53958">
        <ele>312</ele>
        <time>2011-02-11T14:10:01Z</time>
      </trkpt>
      <trkpt lat="43.5258" lon="5.53975">
        <ele>311</ele>
        <time>2011-02-11T14:10:11Z</time>
      </trkpt>
      <trkpt lat="43.52578" lon="5.53993">
        <ele>309</ele>
        <time>2011-02-11T14:10:21Z</time>
      </trkpt>
      <trkpt lat="43.52578" lon="5.54008">
        <ele>308</ele>
        <time>2011-02-11T14:10:31Z</time>
      </trkpt>
      <trkpt lat="43.52573" lon="5.54024">
        <ele>306</ele>
        <time>2011-02-11T14:10:41Z</time>
      </trkpt>
      <trkpt lat="43.52568" lon="5.54039">
        <ele>304</ele>
        <time>2011-02-11T14:10:51Z</time>
      </trkpt>
      <trkpt lat="43.52562" lon="5.54053">
        <ele>303</ele>
        <time>2011-02-11T14:11:01Z</time>
      </trkpt>
      <trkpt lat="43.52558" lon="5.54067">
        <ele>301</ele>
        <time>2011-02-11T14:11:12Z</time>
      </trkpt>
      <trkpt lat="43.52557" lon="5.5408">
        <ele>299</ele>
        <time>2011-02-11T14:11:23Z</time>
      </trkpt>
      <trkpt lat="43.5256" lon="5.54095">
        <ele>296</ele>
        <time>2011-02-11T14:11:33Z</time>
      </trkpt>
      <trkpt lat="43.52566" lon="5.54109">
        <ele>294</ele>
        <time>2011-02-11T14:11:43Z</time>
      </trkpt>
      <trkpt lat="43.52569" lon="5.54113">
        <ele>293</ele>
        <time>2011-02-11T14:12:01Z</time>
      </trkpt>
      <trkpt lat="43.5257" lon="5.54112">
        <ele>293</ele>
        <time>2011-02-11T14:12:19Z</time>
      </trkpt>
      <trkpt lat="43.52572" lon="5.54111">
        <ele>291</ele>
        <time>2011-02-11T14:12:31Z</time>
      </trkpt>
      <trkpt lat="43.52575" lon="5.54111">
        <ele>290</ele>
        <time>2011-02-11T14:12:44Z</time>
      </trkpt>
      <trkpt lat="43.52578" lon="5.54113">
        <ele>289</ele>
        <time>2011-02-11T14:13:13Z</time>
      </trkpt>
      <trkpt lat="43.52586" lon="5.5411">
        <ele>289</ele>
        <time>2011-02-11T14:13:24Z</time>
      </trkpt>
      <trkpt lat="43.52593" lon="5.5411">
        <ele>289</ele>
        <time>2011-02-11T14:13:36Z</time>
      </trkpt>
      <trkpt lat="43.52596" lon="5.54113">
        <ele>295</ele>
        <time>2011-02-11T14:13:46Z</time>
      </trkpt>
      <trkpt lat="43.52604" lon="5.54112">
        <ele>302</ele>
        <time>2011-02-11T14:13:57Z</time>
      </trkpt>
      <trkpt lat="43.52605" lon="5.54104">
        <ele>304</ele>
        <time>2011-02-11T14:14:08Z</time>
      </trkpt>
      <trkpt lat="43.52604" lon="5.54104">
        <ele>306</ele>
        <time>2011-02-11T14:14:19Z</time>
      </trkpt>
      <trkpt lat="43.52594" lon="5.54101">
        <ele>317</ele>
        <time>2011-02-11T14:14:30Z</time>
      </trkpt>
      <trkpt lat="43.52596" lon="5.54105">
        <ele>325</ele>
        <time>2011-02-11T14:14:42Z</time>
      </trkpt>
      <trkpt lat="43.5259" lon="5.54109">
        <ele>332</ele>
        <time>2011-02-11T14:14:52Z</time>
      </trkpt>
      <trkpt lat="43.52597" lon="5.54108">
        <ele>331</ele>
        <time>2011-02-11T14:15:02Z</time>
      </trkpt>
      <trkpt lat="43.52599" lon="5.54106">
        <ele>321</ele>
        <time>2011-02-11T14:15:12Z</time>
      </trkpt>
      <trkpt lat="43.52598" lon="5.54107">
        <ele>321</ele>
        <time>2011-02-11T14:15:22Z</time>
      </trkpt>
      <trkpt lat="43.52599" lon="5.54108">
        <ele>322</ele>
        <time>2011-02-11T14:15:34Z</time>
      </trkpt>
      <trkpt lat="43.52592" lon="5.54109">
        <ele>332</ele>
        <time>2011-02-11T14:15:45Z</time>
      </trkpt>
      <trkpt lat="43.52591" lon="5.54111">
        <ele>335</ele>
        <time>2011-02-11T14:15:56Z</time>
      </trkpt>
      <trkpt lat="43.52589" lon="5.54108">
        <ele>332</ele>
        <time>2011-02-11T14:16:10Z</time>
      </trkpt>
      <trkpt lat="43.52588" lon="5.54111">
        <ele>329</ele>
        <time>2011-02-11T14:16:25Z</time>
      </trkpt>
      <trkpt lat="43.52591" lon="5.54108">
        <ele>319</ele>
        <time>2011-02-11T14:16:37Z</time>
      </trkpt>
      <trkpt lat="43.52581" lon="5.54111">
        <ele>319</ele>
        <time>2011-02-11T14:16:47Z</time>
      </trkpt>
      <trkpt lat="43.52577" lon="5.54114">
        <ele>312</ele>
        <time>2011-02-11T14:17:02Z</time>
      </trkpt>
      <trkpt lat="43.52578" lon="5.54117">
        <ele>312</ele>
        <time>2011-02-11T14:17:13Z</time>
      </trkpt>
      <trkpt lat="43.52571" lon="5.54121">
        <ele>308</ele>
        <time>2011-02-11T14:17:23Z</time>
      </trkpt>
      <trkpt lat="43.5257" lon="5.54134">
        <ele>304</ele>
        <time>2011-02-11T14:17:33Z</time>
      </trkpt>
      <trkpt lat="43.52568" lon="5.54138">
        <ele>301</ele>
        <time>2011-02-11T14:17:44Z</time>
      </trkpt>
      <trkpt lat="43.52562" lon="5.54148">
        <ele>299</ele>
        <time>2011-02-11T14:17:55Z</time>
      </trkpt>
      <trkpt lat="43.52558" lon="5.54157">
        <ele>296</ele>
        <time>2011-02-11T14:18:05Z</time>
      </trkpt>
      <trkpt lat="43.5256" lon="5.54164">
        <ele>293</ele>
        <time>2011-02-11T14:18:26Z</time>
      </trkpt>
      <trkpt lat="43.52561" lon="5.54165">
        <ele>293</ele>
        <time>2011-02-11T14:18:38Z</time>
      </trkpt>
      <trkpt lat="43.5256" lon="5.54166">
        <ele>292</ele>
        <time>2011-02-11T14:18:52Z</time>
      </trkpt>
      <trkpt lat="43.52559" lon="5.54163">
        <ele>292</ele>
        <time>2011-02-11T14:19:07Z</time>
      </trkpt>
      <trkpt lat="43.52559" lon="5.54164">
        <ele>292</ele>
        <time>2011-02-11T14:19:17Z</time>
      </trkpt>
      <trkpt lat="43.52559" lon="5.54168">
        <ele>292</ele>
        <time>2011-02-11T14:19:42Z</time>
      </trkpt>
      <trkpt lat="43.5256" lon="5.54168">
        <ele>292</ele>
        <time>2011-02-11T14:19:54Z</time>
      </trkpt>
      <trkpt lat="43.52559" lon="5.54168">
        <ele>292</ele>
        <time>2011-02-11T14:20:23Z</time>
      </trkpt>
      <trkpt lat="43.52559" lon="5.54178">
        <ele>292</ele>
        <time>2011-02-11T14:20:34Z</time>
      </trkpt>
      <trkpt lat="43.52561" lon="5.5419">
        <ele>292</ele>
        <time>2011-02-11T14:20:44Z</time>
      </trkpt>
      <trkpt lat="43.52557" lon="5.54206">
        <ele>292</ele>
        <time>2011-02-11T14:20:55Z</time>
      </trkpt>
      <trkpt lat="43.52556" lon="5.54223">
        <ele>291</ele>
        <time>2011-02-11T14:21:05Z</time>
      </trkpt>
      <trkpt lat="43.52554" lon="5.54238">
        <ele>288</ele>
        <time>2011-02-11T14:21:15Z</time>
      </trkpt>
      <trkpt lat="43.52551" lon="5.54254">
        <ele>286</ele>
        <time>2011-02-11T14:21:25Z</time>
      </trkpt>
      <trkpt lat="43.52547" lon="5.54269">
        <ele>286</ele>
        <time>2011-02-11T14:21:36Z</time>
      </trkpt>
      <trkpt lat="43.52543" lon="5.54286">
        <ele>284</ele>
        <time>2011-02-11T14:21:47Z</time>
      </trkpt>
      <trkpt lat="43.5254" lon="5.54298">
        <ele>283</ele>
        <time>2011-02-11T14:21:58Z</time>
      </trkpt>
      <trkpt lat="43.5254" lon="5.54317">
        <ele>281</ele>
        <time>2011-02-11T14:22:08Z</time>
      </trkpt>
      <trkpt lat="43.52541" lon="5.54332">
        <ele>278</ele>
        <time>2011-02-11T14:22:18Z</time>
      </trkpt>
      <trkpt lat="43.52542" lon="5.54349">
        <ele>275</ele>
        <time>2011-02-11T14:22:28Z</time>
      </trkpt>
      <trkpt lat="43.52541" lon="5.54365">
        <ele>275</ele>
        <time>2011-02-11T14:22:38Z</time>
      </trkpt>
      <trkpt lat="43.52543" lon="5.5438">
        <ele>275</ele>
        <time>2011-02-11T14:22:48Z</time>
      </trkpt>
      <trkpt lat="43.52546" lon="5.54396">
        <ele>274</ele>
        <time>2011-02-11T14:22:58Z</time>
      </trkpt>
      <trkpt lat="43.52549" lon="5.54412">
        <ele>271</ele>
        <time>2011-02-11T14:23:08Z</time>
      </trkpt>
      <trkpt lat="43.52554" lon="5.54428">
        <ele>270</ele>
        <time>2011-02-11T14:23:18Z</time>
      </trkpt>
      <trkpt lat="43.52559" lon="5.54441">
        <ele>270</ele>
        <time>2011-02-11T14:23:28Z</time>
      </trkpt>
      <trkpt lat="43.5256" lon="5.54457">
        <ele>270</ele>
        <time>2011-02-11T14:23:38Z</time>
      </trkpt>
      <trkpt lat="43.52562" lon="5.54475">
        <ele>268</ele>
        <time>2011-02-11T14:23:48Z</time>
      </trkpt>
      <trkpt lat="43.52564" lon="5.54492">
        <ele>264</ele>
        <time>2011-02-11T14:23:58Z</time>
      </trkpt>
      <trkpt lat="43.52566" lon="5.54508">
        <ele>261</ele>
        <time>2011-02-11T14:24:08Z</time>
      </trkpt>
      <trkpt lat="43.52562" lon="5.54525">
        <ele>261</ele>
        <time>2011-02-11T14:24:19Z</time>
      </trkpt>
      <trkpt lat="43.52554" lon="5.54537">
        <ele>261</ele>
        <time>2011-02-11T14:24:30Z</time>
      </trkpt>
      <trkpt lat="43.52549" lon="5.54553">
        <ele>260</ele>
        <time>2011-02-11T14:24:41Z</time>
      </trkpt>
      <trkpt lat="43.52545" lon="5.54567">
        <ele>260</ele>
        <time>2011-02-11T14:24:51Z</time>
      </trkpt>
      <trkpt lat="43.52538" lon="5.5458">
        <ele>258</ele>
        <time>2011-02-11T14:25:01Z</time>
      </trkpt>
      <trkpt lat="43.52533" lon="5.54595">
        <ele>258</ele>
        <time>2011-02-11T14:25:12Z</time>
      </trkpt>
      <trkpt lat="43.52526" lon="5.54606">
        <ele>258</ele>
        <time>2011-02-11T14:25:23Z</time>
      </trkpt>
      <trkpt lat="43.52519" lon="5.54619">
        <ele>257</ele>
        <time>2011-02-11T14:25:33Z</time>
      </trkpt>
      <trkpt lat="43.52511" lon="5.54633">
        <ele>257</ele>
        <time>2011-02-11T14:25:43Z</time>
      </trkpt>
      <trkpt lat="43.52504" lon="5.54645">
        <ele>257</ele>
        <time>2011-02-11T14:25:54Z</time>
      </trkpt>
      <trkpt lat="43.52495" lon="5.5466">
        <ele>256</ele>
        <time>2011-02-11T14:26:04Z</time>
      </trkpt>
      <trkpt lat="43.52487" lon="5.54675">
        <ele>253</ele>
        <time>2011-02-11T14:26:14Z</time>
      </trkpt>
      <trkpt lat="43.5248" lon="5.54686">
        <ele>253</ele>
        <time>2011-02-11T14:26:24Z</time>
      </trkpt>
      <trkpt lat="43.52472" lon="5.547">
        <ele>253</ele>
        <time>2011-02-11T14:26:34Z</time>
      </trkpt>
      <trkpt lat="43.52461" lon="5.54712">
        <ele>251</ele>
        <time>2011-02-11T14:26:45Z</time>
      </trkpt>
      <trkpt lat="43.5245" lon="5.54721">
        <ele>251</ele>
        <time>2011-02-11T14:26:55Z</time>
      </trkpt>
      <trkpt lat="43.5244" lon="5.54728">
        <ele>251</ele>
        <time>2011-02-11T14:27:06Z</time>
      </trkpt>
      <trkpt lat="43.52428" lon="5.54734">
        <ele>251</ele>
        <time>2011-02-11T14:27:16Z</time>
      </trkpt>
      <trkpt lat="43.52417" lon="5.54738">
        <ele>251</ele>
        <time>2011-02-11T14:27:26Z</time>
      </trkpt>
      <trkpt lat="43.52406" lon="5.54729">
        <ele>251</ele>
        <time>2011-02-11T14:27:36Z</time>
      </trkpt>
      <trkpt lat="43.52396" lon="5.54731">
        <ele>251</ele>
        <time>2011-02-11T14:27:46Z</time>
      </trkpt>
      <trkpt lat="43.52384" lon="5.54737">
        <ele>251</ele>
        <time>2011-02-11T14:27:56Z</time>
      </trkpt>
      <trkpt lat="43.52374" lon="5.5474">
        <ele>251</ele>
        <time>2011-02-11T14:28:07Z</time>
      </trkpt>
      <trkpt lat="43.52372" lon="5.54739">
        <ele>251</ele>
        <time>2011-02-11T14:28:17Z</time>
      </trkpt>
      <trkpt lat="43.52372" lon="5.54738">
        <ele>251</ele>
        <time>2011-02-11T14:28:32Z</time>
      </trkpt>
      <trkpt lat="43.52371" lon="5.54736">
        <ele>251</ele>
        <time>2011-02-11T14:28:51Z</time>
      </trkpt>
      <trkpt lat="43.5237" lon="5.54737">
        <ele>251</ele>
        <time>2011-02-11T14:29:11Z</time>
      </trkpt>
      <trkpt lat="43.5237" lon="5.54737">
        <ele>251</ele>
        <time>2011-02-11T14:29:14Z</time>
      </trkpt>
    </trkseg>
  </trk>
</gpx>